[[{"header":{"parameterUnit":"m.s-1","parameterCategory":1,"la1":31.0,"la2":29.5877,"lo1":-88.7671,"lo2":-86.6584,"dy":0.0162,"dx":0.0185,"nx":115,"ny":88,"refTime":"2023-10-11T06:00:00:Z","depth":0,"parameterNumber":2,"parameterNumberName":"U-component_of_WINDS"},"data":[0.0,0.0,0.0,0.0,0.0,0.0,0.0,0.0,0.0,0.0,0.0,0.0,0.0,0.0,0.0,0.0,0.0,0.0,0.0,0.0,0.0,0.0,0.0,0.0,0.0,0.0,0.0,0.0,0.0,0.0,0.0,0.0,0.0,0.0,0.0,0.0,0.0,0.0,0.0,0.0,0.0,0.0,0.0,0.0,0.0,0.0,0.0,0.0,0.0,0.0,0.0,0.0,0.0,0.0,0.0,0.0,0.0,0.0,0.0,0.0,0.0,0.0,0.0,0.0,0.0,0.0,0.0,0.0,0.0,0.0,0.0,0.0,0.0,0.0,0.0,0.0,0.0,0.0,0.0,0.0,0.0,0.0,0.0,0.0,0.0,0.0,0.0,0.0,0.0,0.0,0.0,0.0,0.0,0.0,0.0,0.0,0.0,0.0,0.0,0.0,0.0,0.0,0.0,0.0,0.0,0.0,0.0,0.0,0.0,0.0,0.0,0.0,0.0,0.0,0.0,0.0,0.0,0.0,0.0,0.0,0.0,0.0,0.0,0.0,0.0,0.0,0.0,0.0,0.0,0.0,0.0,0.0,0.0,0.0,0.0,0.0,0.0,0.0,0.0,0.0,0.0,0.0,0.0,0.0,0.0,0.0,0.0,0.0,0.0,0.0,0.0,0.0,0.0,0.0,0.0,0.0,0.0,0.0,0.0,0.0,0.0,0.0,0.0,0.0,0.0,0.0,0.0,0.0,0.0,0.0,0.0,0.0,0.0,0.0,0.0,0.0,0.0,0.0,0.0,0.0,0.0,0.0,0.0,0.0,0.0,0.0,0.0,0.0,0.0,0.0,0.0,0.0,0.0,0.0,0.0,0.0,0.0,0.0,0.0,0.0,0.0,0.0,0.0,0.0,0.0,0.0,0.0,0.0,0.0,0.0,0.0,0.0,0.0,0.0,0.0,0.0,0.0,0.0,0.0,0.0,0.0,0.0,0.0,0.0,0.0,0.0,0.0,0.0,0.0,0.0,0.0,0.0,0.0,0.0,0.0,0.0,0.0,0.0,0.0,0.0,0.0,0.0,0.0,0.0,0.0,0.0,0.0,0.0,0.0,0.0,0.0,0.0,0.0,0.0,0.0,0.0,0.0,0.0,0.0,0.0,0.0,0.0,0.0,0.0,0.0,0.0,0.0,0.0,0.0,0.0,0.0,0.0,0.0,0.0,0.0,0.0,0.0,0.0,0.0,0.0,0.0,0.0,0.0,0.0,0.0,0.0,0.0,0.0,0.0,0.0,0.0,0.0,0.0,0.0,0.0,0.0,0.0,0.0,0.0,0.0,0.0,0.0,0.0,0.0,0.0,0.0,0.0,0.0,0.0,0.0,0.0,0.0,0.0,0.0,0.0,0.0,0.0,0.0,0.0,0.0,0.0,0.0,0.0,0.0,0.0,0.0,0.0,0.0,0.0,0.0,0.0,0.0,0.0,0.0,0.0,0.0,0.0,0.0,0.0,0.0,0.0,0.0,0.0,0.0,0.0,0.0,0.0,0.0,0.0,0.0,0.0,0.0,0.0,0.0,0.0,0.0,0.0,0.0,0.0,0.0,0.0,0.0,0.0,0.0,0.0,0.0,0.0,0.0,0.0,0.0,0.0,0.0,0.0,0.0,0.0,0.0,0.0,0.0,0.0,0.0,0.0,0.0,0.0,0.0,0.0,0.0,0.0,0.0,0.0,0.0,0.0,0.0,0.0,0.0,0.0,0.0,0.0,0.0,0.0,0.0,0.0,0.0,0.0,0.0,0.0,0.0,0.0,0.0,0.0,0.0,0.0,0.0,0.0,0.0,0.0,0.0,0.0,0.0,0.0,0.0,0.0,0.0,0.0,0.0,0.0,0.0,0.0,0.0,0.0,0.0,0.0,0.0,0.0,0.0,0.0,0.0,0.0,0.0,0.0,0.0,0.0,0.0,0.0,0.0,0.0,0.0,0.0,0.0,0.0,0.0,0.0,0.0,0.0,0.0,0.0,0.0,0.0,0.0,0.0,0.0,0.0,0.0,0.0,0.0,0.0,0.0,0.0,0.0,0.0,0.0,0.0,0.0,0.0,0.0,0.0,0.0,0.0,0.0,0.0,0.0,0.0,0.0,0.0,0.0,0.0,0.0,0.0,0.0,0.0,0.0,0.0,0.0,0.0,0.0,0.0,0.0,0.0,0.0,0.0,0.0,0.0,0.0,0.0,0.0,0.0,0.0,0.0,0.0,0.0,0.0,0.0,0.0,0.0,0.0,0.0,0.0,0.0,0.0,0.0,0.0,0.0,0.0,0.0,0.0,0.0,0.0,0.0,0.0,0.0,0.0,0.0,0.0,0.0,0.0,0.0,0.0,0.0,0.0,0.0,0.0,0.0,0.0,0.0,0.0,0.0,0.0,0.0,0.0,0.0,0.0,0.0,0.0,0.0,0.0,0.0,0.0,0.0,0.0,0.0,0.0,0.0,0.0,0.0,0.0,0.0,0.0,0.0,0.0,0.0,0.0,0.0,0.0,0.0,0.0,0.0,0.0,0.0,0.0,0.0,0.0,0.0,0.0,0.0,0.0,0.0,0.0,0.0,0.0,0.0,0.0,0.0,0.0,0.0,0.0,0.0,0.0,0.0,0.0,0.0,0.0,0.0,0.0,0.0,0.0,0.0,0.0,0.0,0.0,0.0,0.0,0.0,0.0,0.0,0.0,0.0,0.0,0.0,0.0,0.0,0.0,0.0,0.0,0.0,0.0,0.0,0.0,0.0,0.0,0.0,0.0,0.0,0.0,0.0,0.0,0.0,0.0,0.0,0.0,0.0,0.0,0.0,0.0,0.0,0.0,0.0,0.0,0.0,0.0,0.0,0.0,0.0,0.0,0.0,0.0,0.0,0.0,0.0,0.0,0.0,0.0,0.0,0.0,0.0,0.0,0.0,0.0,0.0,0.0,0.0,0.0,0.0,0.0,0.0,0.0,0.0,0.0,0.0,0.0,0.0,0.0,0.0,0.0,0.0,0.0,0.0,0.0,0.0,0.0,0.0,0.0,0.0,0.0,0.0,0.0,0.0,0.0,0.0,0.0,0.0,0.0,0.0,0.0,0.0,0.0,0.0,0.0,0.0,0.0,0.0,0.0,0.0,0.0,0.0,0.0,0.0,0.0,0.0,0.0,0.0,0.0,0.0,0.0,0.0,0.0,0.0,0.0,0.0,0.0,0.0,0.0,0.0,0.0,0.0,0.0,0.0,0.0,0.0,0.0,0.0,0.0,0.0,0.0,0.0,0.0,0.0,0.0,0.0,0.0,0.0,0.0,0.0,0.0,0.0,0.0,0.0,0.0,0.0,0.0,0.0,0.0,0.0,0.0,0.0,0.0,0.0,0.0,0.0,0.0,0.0,0.0,0.0,0.0,0.0,0.0,0.0,0.0,0.0,0.0,0.0,0.0,0.0,0.0,0.0,0.0,0.0,0.0,0.0,0.0,0.0,0.0,0.0,0.0,0.0,0.0,0.0,0.0,0.0,0.0,0.0,0.0,0.0,0.0,0.0,0.0,0.0,0.0,0.0,0.0,0.0,0.0,0.0,0.0,0.0,0.0,0.0,0.0,0.0,0.0,0.0,0.0,0.0,0.0,0.0,0.0,0.0,0.0,0.0,0.0,0.0,0.0,0.0,0.0,0.0,0.0,0.0,0.0,0.0,0.0,0.0,0.0,0.0,0.0,0.0,0.0,0.0,0.0,0.0,0.0,0.0,0.0,0.0,0.0,0.0,0.0,0.0,0.0,0.0,0.0,0.0,0.0,0.0,0.0,0.0,0.0,0.0,0.0,0.0,0.0,0.0,0.0,0.0,0.0,0.0,0.0,0.0,0.0,0.0,0.0,0.0,0.0,0.0,0.0,0.0,0.0,0.0,0.0,0.0,0.0,0.0,0.0,0.0,0.0,0.0,0.0,0.0,0.0,0.0,0.0,0.0,0.0,0.0,0.0,0.0,0.0,0.0,0.0,0.0,0.0,0.0,0.0,0.0,0.0,0.0,0.0,0.0,0.0,0.0,0.0,0.0,0.0,0.0,0.0,0.0,0.0,0.0,0.0,0.0,0.0,0.0,0.0,0.0,0.0,0.0,0.0,0.0,0.0,0.0,0.0,0.0,0.0,0.0,0.0,0.0,0.0,0.0,0.0,0.0,0.0,0.0,0.0,0.0,0.0,0.0,0.0,0.0,0.0,0.0,0.0,0.0,0.0,0.0,0.0,0.0,0.0,0.0,0.0,-2.2639,0.0,0.0,0.0,0.0,0.0,0.0,0.0,0.0,0.0,0.0,0.0,0.0,0.0,0.0,0.0,0.0,0.0,0.0,0.0,0.0,0.0,0.0,0.0,0.0,0.0,0.0,0.0,0.0,0.0,0.0,0.0,0.0,0.0,0.0,0.0,0.0,0.0,0.0,0.0,0.0,0.0,0.0,0.0,0.0,0.0,0.0,0.0,0.0,0.0,0.0,0.0,0.0,0.0,0.0,0.0,0.0,0.0,0.0,0.0,0.0,0.0,0.0,0.0,0.0,0.0,0.0,0.0,0.0,0.0,0.0,0.0,0.0,0.0,0.0,0.0,0.0,0.0,0.0,0.0,0.0,0.0,0.0,0.0,0.0,0.0,0.0,0.0,0.0,0.0,0.0,0.0,0.0,0.0,0.0,0.0,0.0,0.0,0.0,0.0,0.0,0.0,0.0,0.0,0.0,0.0,0.0,0.0,0.0,0.0,0.0,-2.5114,-2.5472,-2.466,-2.3979,-2.3507,0.0,0.0,0.0,0.0,0.0,0.0,0.0,0.0,0.0,0.0,0.0,0.0,0.0,0.0,0.0,0.0,0.0,0.0,0.0,0.0,0.0,0.0,0.0,0.0,0.0,0.0,0.0,0.0,0.0,0.0,0.0,0.0,0.0,0.0,0.0,0.0,0.0,0.0,0.0,0.0,0.0,0.0,0.0,0.0,0.0,0.0,0.0,0.0,0.0,0.0,0.0,0.0,0.0,0.0,0.0,0.0,0.0,0.0,0.0,0.0,0.0,0.0,0.0,0.0,0.0,0.0,0.0,0.0,0.0,0.0,0.0,0.0,0.0,0.0,0.0,0.0,0.0,0.0,0.0,0.0,0.0,0.0,0.0,0.0,0.0,0.0,0.0,0.0,0.0,0.0,0.0,0.0,0.0,0.0,0.0,0.0,0.0,0.0,0.0,0.0,0.0,0.0,0.0,0.0,0.0,0.0,0.0,0.0,0.0,0.0,0.0,0.0,-2.5321,-2.4752,-2.4105,0.0,0.0,0.0,0.0,0.0,0.0,0.0,0.0,0.0,0.0,0.0,0.0,0.0,0.0,0.0,0.0,0.0,0.0,0.0,0.0,0.0,0.0,0.0,0.0,0.0,0.0,0.0,0.0,0.0,0.0,0.0,0.0,0.0,0.0,0.0,0.0,0.0,0.0,0.0,0.0,0.0,0.0,0.0,0.0,0.0,0.0,0.0,0.0,0.0,0.0,0.0,0.0,0.0,0.0,0.0,0.0,0.0,0.0,0.0,0.0,0.0,0.0,0.0,0.0,0.0,0.0,0.0,0.0,0.0,0.0,0.0,0.0,0.0,0.0,0.0,0.0,0.0,0.0,0.0,0.0,0.0,0.0,0.0,0.0,0.0,0.0,0.0,0.0,0.0,0.0,0.0,0.0,0.0,0.0,0.0,0.0,0.0,0.0,0.0,0.0,0.0,0.0,0.0,0.0,0.0,0.0,0.0,0.0,0.0,0.0,-2.6683,-2.6684,-2.7297,0.0,-2.422,0.0,0.0,0.0,0.0,0.0,0.0,0.0,0.0,0.0,0.0,0.0,0.0,0.0,0.0,0.0,0.0,0.0,0.0,0.0,0.0,0.0,0.0,0.0,0.0,0.0,0.0,0.0,0.0,0.0,0.0,0.0,0.0,0.0,0.0,0.0,0.0,0.0,0.0,0.0,0.0,0.0,0.0,0.0,0.0,0.0,0.0,0.0,0.0,0.0,0.0,0.0,0.0,0.0,0.0,0.0,0.0,0.0,0.0,0.0,0.0,0.0,0.0,0.0,0.0,0.0,0.0,0.0,0.0,0.0,0.0,0.0,0.0,0.0,0.0,0.0,0.0,0.0,0.0,0.0,0.0,0.0,0.0,0.0,0.0,0.0,0.0,0.0,0.0,0.0,0.0,0.0,0.0,0.0,0.0,0.0,0.0,0.0,0.0,0.0,0.0,0.0,0.0,0.0,0.0,0.0,0.0,0.0,0.0,0.0,0.0,-2.7488,-2.7449,-2.7267,-2.6448,0.0,0.0,0.0,0.0,0.0,0.0,0.0,0.0,0.0,0.0,0.0,0.0,0.0,0.0,0.0,0.0,0.0,0.0,0.0,0.0,0.0,0.0,0.0,0.0,0.0,0.0,0.0,0.0,0.0,0.0,0.0,0.0,0.0,0.0,0.0,0.0,0.0,0.0,0.0,0.0,0.0,0.0,0.0,0.0,0.0,0.0,0.0,0.0,0.0,0.0,0.0,0.0,0.0,0.0,0.0,0.0,0.0,0.0,0.0,0.0,0.0,0.0,0.0,0.0,0.0,0.0,0.0,0.0,0.0,0.0,0.0,0.0,0.0,0.0,0.0,0.0,0.0,0.0,0.0,0.0,0.0,0.0,0.0,0.0,0.0,0.0,0.0,0.0,0.0,0.0,0.0,0.0,0.0,0.0,0.0,0.0,0.0,0.0,0.0,0.0,0.0,0.0,0.0,0.0,0.0,0.0,0.0,0.0,0.0,0.0,-2.7548,-2.8198,-2.8526,-2.7537,-2.6463,-2.5404,0.0,0.0,0.0,0.0,0.0,0.0,0.0,0.0,0.0,0.0,0.0,0.0,0.0,0.0,0.0,0.0,0.0,0.0,0.0,0.0,0.0,0.0,0.0,0.0,0.0,0.0,0.0,0.0,0.0,0.0,0.0,0.0,0.0,0.0,0.0,0.0,0.0,0.0,0.0,0.0,0.0,0.0,0.0,0.0,0.0,0.0,0.0,0.0,0.0,0.0,0.0,0.0,0.0,0.0,0.0,0.0,0.0,0.0,0.0,0.0,0.0,0.0,0.0,0.0,0.0,0.0,0.0,0.0,0.0,0.0,0.0,0.0,0.0,0.0,0.0,0.0,0.0,0.0,0.0,0.0,0.0,0.0,0.0,0.0,0.0,0.0,0.0,0.0,0.0,0.0,0.0,0.0,0.0,0.0,0.0,0.0,0.0,0.0,0.0,0.0,0.0,0.0,0.0,0.0,0.0,0.0,0.0,0.0,-2.6702,-2.7574,-2.8772,-3.0234,-2.8723,-2.706,0.0,0.0,0.0,0.0,0.0,0.0,0.0,0.0,0.0,0.0,0.0,0.0,0.0,0.0,0.0,0.0,0.0,0.0,0.0,0.0,0.0,0.0,0.0,0.0,0.0,0.0,0.0,0.0,0.0,0.0,0.0,0.0,0.0,0.0,0.0,0.0,0.0,0.0,0.0,0.0,0.0,0.0,0.0,0.0,0.0,0.0,0.0,0.0,0.0,0.0,0.0,0.0,0.0,0.0,0.0,0.0,0.0,0.0,0.0,0.0,0.0,0.0,0.0,0.0,0.0,0.0,0.0,0.0,0.0,0.0,0.0,0.0,0.0,0.0,0.0,0.0,0.0,0.0,0.0,0.0,0.0,0.0,0.0,0.0,0.0,0.0,0.0,0.0,0.0,0.0,0.0,0.0,0.0,0.0,0.0,0.0,0.0,0.0,0.0,0.0,0.0,0.0,0.0,0.0,0.0,0.0,0.0,0.0,0.0,-2.7535,-2.8845,-2.9571,-2.9624,-2.8505,-2.7353,0.0,0.0,0.0,0.0,0.0,0.0,0.0,0.0,0.0,0.0,0.0,0.0,0.0,0.0,0.0,0.0,0.0,0.0,0.0,0.0,0.0,0.0,0.0,0.0,0.0,0.0,0.0,0.0,0.0,0.0,0.0,0.0,0.0,0.0,0.0,0.0,0.0,0.0,0.0,0.0,0.0,0.0,0.0,0.0,0.0,0.0,0.0,0.0,0.0,0.0,0.0,0.0,0.0,0.0,0.0,0.0,0.0,0.0,0.0,0.0,0.0,0.0,0.0,0.0,0.0,0.0,0.0,0.0,0.0,0.0,0.0,0.0,0.0,0.0,0.0,0.0,0.0,0.0,0.0,0.0,0.0,0.0,0.0,0.0,0.0,0.0,0.0,0.0,0.0,0.0,0.0,0.0,0.0,0.0,0.0,0.0,0.0,0.0,0.0,0.0,0.0,0.0,0.0,0.0,0.0,0.0,0.0,0.0,0.0,-2.799,0.0,-2.9883,-2.9599,-2.8508,-2.7386,0.0,0.0,0.0,0.0,0.0,0.0,0.0,0.0,0.0,0.0,0.0,0.0,0.0,0.0,0.0,0.0,0.0,0.0,0.0,0.0,0.0,0.0,0.0,0.0,0.0,0.0,0.0,0.0,0.0,0.0,0.0,0.0,0.0,0.0,0.0,0.0,0.0,0.0,0.0,0.0,0.0,0.0,0.0,0.0,0.0,0.0,0.0,0.0,0.0,0.0,0.0,0.0,0.0,0.0,0.0,0.0,0.0,0.0,0.0,0.0,0.0,0.0,0.0,0.0,0.0,0.0,0.0,0.0,0.0,0.0,0.0,0.0,0.0,0.0,0.0,0.0,0.0,0.0,0.0,0.0,0.0,0.0,0.0,0.0,0.0,0.0,0.0,0.0,0.0,0.0,0.0,0.0,0.0,0.0,0.0,0.0,0.0,0.0,0.0,0.0,0.0,0.0,0.0,0.0,0.0,0.0,0.0,0.0,-2.633,-2.7966,-2.8844,-2.9682,-3.0407,-2.8807,-2.7131,0.0,0.0,0.0,0.0,0.0,0.0,0.0,0.0,0.0,0.0,0.0,0.0,0.0,0.0,0.0,0.0,0.0,0.0,0.0,0.0,0.0,0.0,0.0,0.0,0.0,0.0,0.0,0.0,0.0,0.0,0.0,0.0,0.0,0.0,0.0,0.0,0.0,0.0,0.0,0.0,0.0,0.0,0.0,0.0,0.0,0.0,0.0,0.0,0.0,0.0,0.0,0.0,0.0,0.0,0.0,0.0,0.0,0.0,0.0,0.0,0.0,0.0,0.0,0.0,0.0,0.0,0.0,0.0,0.0,0.0,0.0,0.0,0.0,0.0,0.0,0.0,0.0,0.0,0.0,0.0,0.0,0.0,0.0,0.0,0.0,0.0,0.0,0.0,0.0,0.0,0.0,0.0,0.0,0.0,0.0,0.0,0.0,0.0,0.0,0.0,0.0,0.0,0.0,0.0,0.0,0.0,0.0,0.0,0.0,-2.8758,-2.9655,-3.0193,-3.037,-2.8797,-2.7098,0.0,0.0,0.0,0.0,0.0,0.0,0.0,0.0,0.0,0.0,0.0,0.0,0.0,0.0,0.0,0.0,0.0,0.0,0.0,0.0,0.0,0.0,0.0,0.0,0.0,0.0,0.0,0.0,0.0,0.0,0.0,0.0,0.0,0.0,0.0,0.0,0.0,0.0,0.0,0.0,0.0,0.0,0.0,0.0,0.0,0.0,0.0,0.0,0.0,0.0,0.0,0.0,0.0,0.0,0.0,0.0,0.0,0.0,0.0,0.0,0.0,0.0,0.0,0.0,0.0,0.0,0.0,0.0,0.0,0.0,0.0,0.0,0.0,0.0,0.0,0.0,0.0,0.0,0.0,0.0,0.0,0.0,0.0,0.0,0.0,0.0,0.0,0.0,0.0,0.0,0.0,0.0,0.0,0.0,0.0,0.0,0.0,0.0,0.0,0.0,0.0,0.0,0.0,0.0,0.0,0.0,0.0,0.0,0.0,-3.04,-3.0427,-3.0708,-3.1358,-2.9373,-2.7382,-2.5466,0.0,0.0,0.0,0.0,0.0,0.0,0.0,0.0,0.0,0.0,0.0,0.0,0.0,0.0,0.0,0.0,0.0,0.0,0.0,0.0,0.0,0.0,0.0,0.0,0.0,0.0,0.0,0.0,0.0,0.0,0.0,0.0,0.0,0.0,0.0,0.0,0.0,0.0,0.0,0.0,0.0,0.0,0.0,0.0,0.0,0.0,0.0,0.0,0.0,0.0,0.0,0.0,0.0,0.0,0.0,0.0,0.0,0.0,0.0,0.0,0.0,0.0,0.0,0.0,0.0,0.0,0.0,0.0,0.0,0.0,0.0,0.0,0.0,0.0,0.0,0.0,0.0,0.0,0.0,0.0,0.0,0.0,0.0,0.0,0.0,0.0,0.0,0.0,0.0,0.0,0.0,0.0,0.0,0.0,0.0,0.0,0.0,0.0,0.0,0.0,0.0,0.0,0.0,0.0,0.0,0.0,0.0,0.0,-3.2826,-3.1324,-3.1379,-3.2991,-3.0471,-2.7923,0.0,0.0,0.0,0.0,0.0,0.0,0.0,0.0,0.0,0.0,0.0,0.0,0.0,0.0,0.0,0.0,0.0,0.0,0.0,0.0,0.0,0.0,0.0,0.0,0.0,0.0,0.0,0.0,0.0,0.0,0.0,0.0,0.0,0.0,0.0,0.0,0.0,0.0,0.0,0.0,0.0,0.0,0.0,0.0,0.0,0.0,0.0,0.0,0.0,0.0,0.0,0.0,0.0,0.0,0.0,0.0,0.0,0.0,0.0,0.0,0.0,0.0,0.0,0.0,0.0,0.0,0.0,0.0,0.0,0.0,0.0,0.0,0.0,0.0,0.0,0.0,0.0,0.0,0.0,0.0,0.0,0.0,0.0,0.0,0.0,0.0,0.0,0.0,0.0,0.0,0.0,0.0,0.0,0.0,0.0,0.0,0.0,0.0,0.0,0.0,0.0,0.0,0.0,0.0,0.0,0.0,0.0,0.0,0.0,-3.446,-3.453,-3.4479,-3.444,-3.2054,-2.9579,0.0,0.0,0.0,0.0,0.0,0.0,0.0,0.0,0.0,0.0,0.0,0.0,0.0,0.0,0.0,0.0,0.0,0.0,0.0,0.0,0.0,0.0,0.0,0.0,0.0,0.0,0.0,0.0,0.0,0.0,0.0,0.0,0.0,0.0,0.0,0.0,0.0,0.0,0.0,0.0,0.0,0.0,0.0,0.0,0.0,0.0,0.0,0.0,0.0,0.0,0.0,0.0,0.0,0.0,0.0,0.0,0.0,0.0,0.0,0.0,0.0,0.0,0.0,0.0,0.0,0.0,0.0,0.0,0.0,0.0,0.0,0.0,0.0,0.0,0.0,0.0,0.0,0.0,0.0,0.0,0.0,0.0,0.0,0.0,0.0,0.0,0.0,0.0,0.0,0.0,0.0,0.0,0.0,0.0,0.0,0.0,0.0,0.0,0.0,0.0,0.0,0.0,0.0,0.0,0.0,0.0,0.0,0.0,-3.3089,-3.5273,-3.7016,-3.7317,-3.6108,-3.332,-3.0517,0.0,0.0,0.0,0.0,0.0,0.0,0.0,0.0,0.0,0.0,0.0,0.0,0.0,0.0,0.0,0.0,0.0,0.0,0.0,0.0,0.0,0.0,0.0,0.0,0.0,0.0,0.0,0.0,0.0,0.0,0.0,0.0,0.0,0.0,0.0,0.0,0.0,0.0,0.0,0.0,0.0,0.0,0.0,0.0,0.0,0.0,0.0,0.0,0.0,0.0,0.0,0.0,0.0,0.0,0.0,0.0,0.0,0.0,0.0,0.0,0.0,0.0,0.0,0.0,0.0,0.0,0.0,0.0,0.0,0.0,0.0,0.0,0.0,0.0,0.0,0.0,0.0,0.0,0.0,0.0,0.0,0.0,0.0,0.0,0.0,0.0,0.0,0.0,0.0,0.0,0.0,0.0,0.0,0.0,0.0,0.0,0.0,0.0,0.0,0.0,0.0,0.0,0.0,0.0,0.0,0.0,0.0,0.0,-3.471,-3.5476,-3.8743,-3.9556,-3.7597,-3.4426,-3.1213,0.0,0.0,0.0,0.0,0.0,0.0,0.0,0.0,0.0,0.0,0.0,0.0,0.0,0.0,0.0,0.0,0.0,0.0,0.0,0.0,0.0,0.0,0.0,0.0,0.0,0.0,0.0,0.0,0.0,0.0,0.0,0.0,0.0,0.0,0.0,0.0,0.0,0.0,0.0,0.0,0.0,0.0,0.0,0.0,0.0,0.0,0.0,0.0,0.0,0.0,0.0,0.0,0.0,0.0,0.0,0.0,0.0,0.0,0.0,0.0,0.0,0.0,0.0,0.0,0.0,0.0,0.0,0.0,0.0,0.0,0.0,0.0,0.0,0.0,0.0,0.0,0.0,0.0,0.0,0.0,0.0,0.0,0.0,0.0,0.0,0.0,0.0,0.0,0.0,0.0,0.0,0.0,0.0,0.0,0.0,0.0,0.0,0.0,0.0,0.0,0.0,0.0,0.0,0.0,0.0,0.0,0.0,0.0,-3.4878,-3.6324,-3.8906,-3.9419,-3.7655,-3.5654,-3.3047,0.0,0.0,0.0,0.0,0.0,0.0,0.0,0.0,0.0,0.0,0.0,0.0,0.0,0.0,0.0,0.0,0.0,0.0,0.0,0.0,0.0,0.0,0.0,0.0,0.0,0.0,0.0,0.0,0.0,0.0,0.0,0.0,0.0,0.0,0.0,0.0,0.0,0.0,0.0,0.0,0.0,0.0,0.0,0.0,0.0,0.0,0.0,0.0,-2.9505,0.0,0.0,0.0,0.0,0.0,0.0,0.0,0.0,0.0,0.0,0.0,0.0,0.0,0.0,0.0,0.0,0.0,0.0,0.0,0.0,0.0,0.0,0.0,0.0,0.0,0.0,0.0,0.0,0.0,0.0,0.0,0.0,0.0,0.0,0.0,0.0,0.0,0.0,0.0,0.0,0.0,0.0,0.0,0.0,0.0,0.0,0.0,0.0,0.0,0.0,0.0,0.0,0.0,0.0,0.0,0.0,0.0,0.0,0.0,-3.5258,-3.6163,-3.818,-3.8589,-3.7194,-3.517,-3.2862,0.0,0.0,0.0,0.0,0.0,0.0,0.0,0.0,0.0,0.0,0.0,0.0,0.0,0.0,0.0,0.0,0.0,0.0,0.0,0.0,0.0,0.0,0.0,0.0,0.0,0.0,0.0,0.0,0.0,0.0,0.0,0.0,0.0,0.0,0.0,0.0,0.0,0.0,0.0,0.0,0.0,0.0,0.0,0.0,0.0,0.0,0.0,0.0,0.0,0.0,0.0,0.0,0.0,0.0,0.0,0.0,0.0,0.0,0.0,0.0,0.0,0.0,0.0,0.0,0.0,0.0,0.0,0.0,0.0,0.0,0.0,0.0,0.0,0.0,0.0,0.0,0.0,0.0,0.0,0.0,0.0,0.0,0.0,0.0,0.0,0.0,0.0,0.0,0.0,0.0,0.0,0.0,0.0,0.0,0.0,0.0,0.0,0.0,0.0,0.0,0.0,0.0,0.0,0.0,0.0,0.0,0.0,-3.3456,-3.5546,-3.567,-3.7311,-3.7655,-3.6502,-3.4222,-3.21,-3.0213,0.0,0.0,0.0,0.0,0.0,0.0,0.0,0.0,0.0,0.0,0.0,0.0,0.0,0.0,0.0,0.0,0.0,0.0,0.0,0.0,0.0,0.0,0.0,0.0,0.0,0.0,0.0,0.0,0.0,0.0,0.0,0.0,0.0,0.0,0.0,0.0,0.0,0.0,-2.8336,-2.9257,0.0,0.0,0.0,0.0,0.0,0.0,0.0,0.0,-3.0035,0.0,0.0,0.0,0.0,0.0,0.0,0.0,0.0,0.0,0.0,0.0,0.0,0.0,0.0,0.0,0.0,0.0,0.0,0.0,0.0,0.0,0.0,0.0,0.0,0.0,0.0,0.0,0.0,0.0,0.0,0.0,0.0,0.0,0.0,0.0,0.0,0.0,0.0,0.0,0.0,0.0,0.0,0.0,0.0,0.0,0.0,0.0,0.0,0.0,0.0,0.0,0.0,0.0,0.0,0.0,0.0,-3.0455,-3.3214,-3.4955,-3.5698,-3.7342,-3.7365,-3.5655,-3.4391,-3.2565,-3.0121,0.0,0.0,0.0,0.0,0.0,0.0,0.0,0.0,0.0,0.0,0.0,0.0,0.0,0.0,0.0,0.0,0.0,0.0,0.0,0.0,0.0,0.0,0.0,0.0,0.0,0.0,0.0,0.0,0.0,0.0,0.0,0.0,0.0,0.0,0.0,0.0,0.0,0.0,0.0,-3.0347,-3.0603,0.0,0.0,0.0,0.0,0.0,0.0,0.0,0.0,-3.0044,0.0,0.0,0.0,0.0,0.0,0.0,0.0,0.0,0.0,0.0,0.0,0.0,0.0,0.0,0.0,0.0,0.0,0.0,0.0,0.0,0.0,0.0,0.0,0.0,0.0,0.0,0.0,0.0,0.0,0.0,0.0,0.0,0.0,0.0,0.0,0.0,0.0,0.0,0.0,0.0,0.0,0.0,0.0,0.0,0.0,0.0,0.0,0.0,0.0,0.0,0.0,0.0,0.0,0.0,0.0,-2.9993,-3.2468,-3.3935,-3.4369,-3.5588,-3.5733,-3.4644,-3.335,-3.1787,0.0,0.0,0.0,0.0,0.0,0.0,0.0,0.0,0.0,0.0,0.0,0.0,0.0,0.0,0.0,0.0,0.0,0.0,0.0,0.0,0.0,0.0,0.0,0.0,0.0,0.0,0.0,0.0,0.0,0.0,0.0,0.0,0.0,0.0,0.0,0.0,0.0,0.0,0.0,0.0,-3.1529,-3.1845,-3.1838,0.0,0.0,0.0,0.0,0.0,0.0,-3.1204,-3.0951,0.0,0.0,0.0,0.0,0.0,0.0,0.0,0.0,0.0,0.0,0.0,0.0,0.0,0.0,0.0,0.0,0.0,0.0,0.0,0.0,0.0,0.0,0.0,0.0,0.0,0.0,0.0,0.0,0.0,0.0,0.0,0.0,0.0,0.0,0.0,0.0,0.0,0.0,0.0,0.0,0.0,0.0,0.0,0.0,0.0,0.0,0.0,0.0,0.0,0.0,0.0,0.0,0.0,0.0,0.0,-2.9372,-3.1687,-3.2842,-3.2875,-3.3826,-3.4045,-3.3398,-3.2103,-3.0826,0.0,0.0,0.0,0.0,0.0,0.0,0.0,0.0,0.0,0.0,0.0,0.0,0.0,0.0,0.0,0.0,0.0,0.0,0.0,0.0,0.0,0.0,0.0,0.0,0.0,0.0,0.0,0.0,0.0,0.0,0.0,0.0,0.0,0.0,0.0,0.0,0.0,0.0,0.0,0.0,0.0,-3.305,-3.2847,-3.328,0.0,0.0,0.0,0.0,-3.2345,-3.2393,0.0,0.0,0.0,0.0,0.0,0.0,0.0,0.0,0.0,0.0,0.0,0.0,0.0,0.0,0.0,0.0,0.0,0.0,0.0,0.0,0.0,0.0,0.0,0.0,0.0,0.0,0.0,0.0,0.0,0.0,0.0,0.0,0.0,0.0,0.0,0.0,0.0,0.0,0.0,0.0,0.0,0.0,0.0,0.0,0.0,0.0,0.0,0.0,0.0,0.0,0.0,0.0,0.0,0.0,0.0,0.0,-2.9338,-3.1116,-3.2014,-3.2024,-3.3388,-3.3337,-3.1672,-3.1366,-3.0391,0.0,0.0,0.0,0.0,0.0,0.0,0.0,0.0,0.0,0.0,0.0,0.0,0.0,0.0,0.0,0.0,0.0,0.0,0.0,0.0,0.0,0.0,0.0,0.0,0.0,0.0,0.0,0.0,0.0,0.0,0.0,0.0,0.0,0.0,0.0,0.0,0.0,0.0,0.0,0.0,0.0,-3.3679,-3.2902,-3.4142,-3.4364,0.0,0.0,-3.2808,-3.2801,-3.3401,0.0,0.0,0.0,0.0,0.0,0.0,0.0,0.0,0.0,0.0,0.0,0.0,0.0,0.0,0.0,0.0,0.0,0.0,0.0,0.0,0.0,0.0,0.0,0.0,0.0,0.0,0.0,0.0,0.0,0.0,0.0,0.0,0.0,0.0,0.0,0.0,0.0,0.0,0.0,0.0,0.0,0.0,0.0,0.0,0.0,0.0,0.0,0.0,0.0,0.0,0.0,0.0,0.0,0.0,0.0,-2.6553,-2.8621,-3.0305,-3.1105,-3.0995,-3.2563,-3.2718,-3.1225,-3.1195,-3.0324,0.0,0.0,0.0,0.0,0.0,0.0,0.0,0.0,0.0,0.0,0.0,0.0,0.0,0.0,0.0,0.0,0.0,0.0,0.0,0.0,0.0,0.0,0.0,0.0,0.0,0.0,0.0,0.0,0.0,0.0,0.0,0.0,0.0,0.0,0.0,0.0,0.0,0.0,0.0,0.0,0.0,0.0,-3.4163,-3.5578,0.0,0.0,0.0,-3.4195,-3.4245,0.0,0.0,0.0,0.0,0.0,0.0,0.0,0.0,0.0,0.0,0.0,0.0,0.0,0.0,0.0,0.0,0.0,0.0,0.0,0.0,0.0,0.0,0.0,0.0,0.0,0.0,0.0,0.0,0.0,0.0,0.0,0.0,0.0,0.0,0.0,0.0,0.0,0.0,0.0,0.0,0.0,0.0,0.0,0.0,0.0,0.0,0.0,0.0,0.0,0.0,0.0,0.0,0.0,0.0,0.0,0.0,0.0,-2.8059,-2.9684,-3.0557,-3.066,-3.2012,-3.2203,-3.1134,-3.1066,0.0,0.0,0.0,0.0,0.0,0.0,0.0,0.0,0.0,0.0,0.0,0.0,0.0,0.0,0.0,0.0,0.0,0.0,0.0,0.0,0.0,0.0,0.0,0.0,0.0,0.0,0.0,-2.4272,0.0,0.0,0.0,0.0,0.0,0.0,0.0,0.0,0.0,0.0,0.0,0.0,0.0,0.0,-3.6319,-3.544,-3.701,-3.7911,0.0,0.0,-3.5693,-3.5324,-3.5569,-3.5204,0.0,0.0,0.0,0.0,0.0,0.0,0.0,0.0,0.0,0.0,0.0,0.0,0.0,0.0,0.0,0.0,0.0,0.0,0.0,0.0,0.0,0.0,0.0,0.0,0.0,0.0,0.0,0.0,0.0,0.0,0.0,0.0,0.0,0.0,0.0,0.0,0.0,0.0,0.0,0.0,0.0,0.0,0.0,0.0,0.0,0.0,0.0,0.0,0.0,0.0,0.0,0.0,0.0,0.0,0.0,-2.7977,-2.9529,-3.0704,-3.1495,-3.2048,-3.1919,-3.1043,-3.0827,-2.9654,0.0,0.0,0.0,0.0,0.0,0.0,0.0,0.0,0.0,0.0,0.0,0.0,0.0,0.0,0.0,0.0,0.0,0.0,0.0,0.0,0.0,0.0,0.0,0.0,0.0,0.0,0.0,0.0,0.0,0.0,0.0,0.0,0.0,0.0,0.0,0.0,0.0,0.0,0.0,0.0,0.0,-3.7202,-3.6336,-3.8305,-3.9289,0.0,0.0,-3.6928,-3.5441,-3.6397,-3.6558,-3.4312,0.0,0.0,0.0,0.0,0.0,0.0,0.0,0.0,0.0,0.0,0.0,0.0,0.0,0.0,0.0,0.0,0.0,0.0,0.0,0.0,0.0,0.0,0.0,0.0,0.0,0.0,0.0,0.0,0.0,0.0,0.0,0.0,0.0,0.0,0.0,0.0,0.0,0.0,0.0,0.0,0.0,0.0,0.0,0.0,0.0,0.0,0.0,0.0,0.0,0.0,0.0,0.0,0.0,-2.6524,-2.8596,-3.0262,-3.1181,-3.1322,-3.2435,-3.2307,-3.0845,-3.0728,-2.9839,0.0,0.0,0.0,0.0,0.0,0.0,0.0,0.0,0.0,0.0,0.0,0.0,0.0,0.0,0.0,0.0,0.0,0.0,0.0,0.0,0.0,0.0,0.0,0.0,0.0,0.0,0.0,0.0,-2.6671,-2.6545,-2.6843,0.0,0.0,0.0,0.0,0.0,0.0,0.0,0.0,0.0,0.0,-3.7459,-3.7107,-3.8701,0.0,0.0,-3.7853,-3.7151,-3.6034,-3.6372,-3.6125,-3.4234,-3.3515,0.0,0.0,0.0,0.0,0.0,0.0,0.0,0.0,0.0,0.0,0.0,0.0,0.0,0.0,0.0,0.0,0.0,0.0,0.0,0.0,0.0,0.0,0.0,0.0,0.0,0.0,0.0,0.0,0.0,0.0,0.0,0.0,0.0,0.0,0.0,0.0,0.0,0.0,0.0,0.0,0.0,0.0,0.0,0.0,0.0,0.0,0.0,0.0,0.0,0.0,0.0,0.0,-2.6848,-2.8982,-3.0682,-3.1654,-3.1889,-3.2939,-3.2872,-3.1565,-3.1435,-3.0555,0.0,0.0,0.0,0.0,0.0,0.0,0.0,0.0,0.0,0.0,0.0,0.0,0.0,0.0,0.0,0.0,0.0,0.0,0.0,0.0,0.0,0.0,0.0,0.0,0.0,0.0,0.0,0.0,-2.7559,-2.7444,-2.7752,0.0,0.0,0.0,0.0,0.0,0.0,0.0,0.0,0.0,0.0,-3.7908,-3.7878,-3.9019,-3.968,-3.9148,-3.8358,-3.7492,-3.645,-3.6285,-3.5748,-3.4131,0.0,0.0,0.0,0.0,0.0,0.0,0.0,0.0,0.0,0.0,0.0,0.0,0.0,0.0,0.0,0.0,0.0,0.0,0.0,0.0,0.0,0.0,0.0,0.0,0.0,0.0,0.0,0.0,0.0,0.0,-2.6805,0.0,0.0,0.0,0.0,0.0,0.0,0.0,0.0,0.0,0.0,0.0,0.0,0.0,0.0,0.0,0.0,0.0,0.0,0.0,0.0,0.0,0.0,-2.7314,-2.8995,-3.0603,-3.2157,-3.3623,-3.3582,-3.342,-3.3256,-3.3067,-3.1838,-2.951,0.0,0.0,0.0,0.0,0.0,0.0,0.0,0.0,0.0,0.0,0.0,0.0,0.0,0.0,0.0,0.0,0.0,0.0,0.0,0.0,0.0,0.0,0.0,0.0,0.0,0.0,-2.8616,-2.7861,-2.7691,0.0,0.0,0.0,0.0,0.0,0.0,0.0,0.0,0.0,0.0,-3.6687,-3.867,-3.8652,-3.9368,-3.9863,-3.9843,-3.9166,-3.812,-3.656,-3.6321,-3.5734,0.0,0.0,0.0,0.0,0.0,0.0,0.0,0.0,0.0,0.0,0.0,0.0,0.0,0.0,0.0,0.0,0.0,0.0,0.0,0.0,0.0,0.0,0.0,0.0,0.0,0.0,0.0,-2.9761,-2.9722,0.0,0.0,0.0,0.0,0.0,0.0,0.0,0.0,0.0,0.0,0.0,-3.1758,-3.1806,0.0,0.0,0.0,0.0,0.0,0.0,0.0,0.0,0.0,0.0,0.0,0.0,-2.7691,-2.9749,-3.0957,-3.2015,-3.2969,-3.3413,-3.327,-3.2579,-3.2439,-3.1233,-2.8782,0.0,0.0,0.0,0.0,0.0,0.0,0.0,0.0,0.0,0.0,0.0,0.0,0.0,0.0,0.0,0.0,0.0,0.0,0.0,0.0,0.0,0.0,0.0,0.0,0.0,-2.9631,0.0,0.0,0.0,0.0,0.0,0.0,0.0,0.0,0.0,0.0,0.0,-3.5142,-3.6261,-3.772,-3.8707,-3.8707,-3.9386,-3.9717,0.0,0.0,0.0,0.0,0.0,0.0,0.0,0.0,0.0,0.0,0.0,0.0,0.0,0.0,-3.3898,-3.2958,-3.1959,-3.1349,-3.1719,0.0,0.0,0.0,0.0,0.0,0.0,0.0,0.0,0.0,0.0,0.0,0.0,0.0,0.0,-3.1429,0.0,-3.0552,0.0,0.0,0.0,0.0,0.0,0.0,0.0,0.0,-3.1987,-3.2623,-3.3339,-3.3465,-3.344,0.0,-3.2633,-3.1279,0.0,0.0,0.0,0.0,0.0,0.0,0.0,0.0,-2.8133,-3.0165,-3.1136,-3.1936,-3.266,-3.3115,-3.3004,-3.2222,-3.1785,-3.0662,-2.8753,-2.7942,-2.706,0.0,0.0,0.0,0.0,0.0,0.0,0.0,0.0,0.0,0.0,0.0,0.0,0.0,0.0,0.0,0.0,0.0,0.0,0.0,0.0,0.0,0.0,0.0,-3.065,0.0,0.0,0.0,0.0,0.0,0.0,0.0,0.0,0.0,-3.411,-3.5164,-3.6366,-3.7448,-3.8239,-3.8707,-3.8707,0.0,0.0,0.0,0.0,0.0,0.0,0.0,-3.7658,-3.685,-3.6864,-3.7003,-3.6927,-3.6789,-3.6546,-3.6282,0.0,0.0,-3.4271,-3.325,-3.2646,-3.297,-3.3442,-3.3831,-3.3847,-3.4321,-3.4673,0.0,0.0,0.0,0.0,0.0,0.0,0.0,0.0,-3.3122,-3.3128,0.0,-3.2276,0.0,0.0,0.0,0.0,0.0,-3.1353,0.0,0.0,-3.4616,-3.4952,-3.4105,-3.4238,-3.4166,-3.3832,-3.3409,-3.2646,-3.1533,-2.9992,0.0,0.0,0.0,0.0,0.0,0.0,-2.8651,-3.0253,-3.1115,-3.1955,-3.2697,-3.2696,-3.2569,-3.2326,-3.12,-3.0225,-2.9425,-2.8715,-2.7587,-2.5981,-2.6105,0.0,0.0,0.0,0.0,0.0,0.0,0.0,0.0,0.0,0.0,0.0,0.0,0.0,0.0,0.0,0.0,0.0,0.0,0.0,0.0,-3.0959,0.0,0.0,0.0,0.0,0.0,0.0,0.0,0.0,0.0,0.0,-3.4265,-3.6155,-3.7632,-3.765,0.0,0.0,0.0,0.0,-3.8762,-3.8762,-3.8781,-3.8524,-3.7786,-3.8285,-3.8524,-3.7768,0.0,0.0,-3.8276,-3.7775,-3.7466,-3.743,-3.6825,-3.5989,-3.5119,-3.4836,-3.4765,-3.4637,-3.4618,-3.454,-3.4272,-3.4432,-3.4486,-3.5608,0.0,0.0,0.0,0.0,-3.3702,-3.4286,-3.4847,-3.5457,-3.5355,-3.477,-3.4552,0.0,0.0,0.0,0.0,0.0,0.0,-3.3069,-3.3872,-3.4359,-3.4737,-3.5064,-3.5175,-3.5162,-3.5091,-3.5002,-3.4483,-3.355,-3.2393,-3.0816,-2.8868,0.0,0.0,0.0,0.0,-2.9338,-3.0259,-3.0695,-3.1176,-3.1807,-3.1884,-3.1754,-3.1426,-3.0888,-3.0235,-2.9429,-2.9297,-2.8718,-2.7643,-2.7788,0.0,0.0,0.0,0.0,0.0,0.0,0.0,0.0,0.0,0.0,0.0,0.0,0.0,0.0,0.0,0.0,0.0,0.0,0.0,-3.1464,-3.2013,-3.2151,0.0,0.0,0.0,0.0,0.0,0.0,0.0,0.0,0.0,-3.6333,-3.7421,-3.8258,0.0,0.0,-3.8707,-3.8707,-3.9184,-3.9551,-3.9551,-4.0047,0.0,-4.0104,-4.0251,-4.0325,-4.0102,-4.027,-4.0349,-4.0183,-4.0081,-3.9657,-3.8526,-3.8129,-3.7532,-3.6133,-3.5318,-3.5101,-3.5453,-3.552,-3.5544,-3.5697,-3.5775,-3.5734,-3.8443,-3.6652,-3.5501,-3.5025,-3.5026,-3.5534,-3.6042,-3.6516,-3.7035,-3.6978,-3.6477,-3.6131,-3.5232,-3.3942,-3.3268,0.0,0.0,0.0,-3.3911,-3.4725,-3.4719,-3.4982,-3.5411,-3.5534,-3.5534,-3.5392,-3.52,-3.465,-3.3795,-3.2801,-3.1399,-2.9646,0.0,0.0,-2.8844,-2.9017,-2.9458,-3.0196,-3.034,-3.056,-3.0885,-3.0892,-3.0761,-3.0532,-3.0299,-2.9934,-2.9461,-2.9474,-2.9148,-2.8306,-2.8407,-2.7784,0.0,0.0,0.0,0.0,0.0,0.0,0.0,0.0,0.0,0.0,0.0,-2.9439,-3.0292,0.0,0.0,0.0,-3.1173,-3.173,-3.2059,-3.2822,0.0,0.0,0.0,0.0,0.0,0.0,0.0,-3.6282,-3.6873,-3.7309,-3.7576,-3.8059,-3.843,-3.8476,-3.8609,-3.8707,-3.8707,0.0,-3.9423,-3.9423,-3.9845,-4.0141,-4.0159,-4.0432,-4.0677,-4.0838,-4.084,-4.054,-3.9932,-3.9878,-3.9409,-3.815,-3.7723,-3.7381,-3.6396,-3.5671,-3.537,-3.5837,-3.5844,-3.5876,-3.6071,-3.6178,-3.6199,-4.1219,-4.0389,-3.8907,-3.8162,-3.8,-3.8077,-3.8094,-3.8123,-3.818,-3.8161,-3.8027,-3.7257,-3.6462,-3.5596,-3.4045,0.0,-3.4494,-3.4417,-3.486,-3.5584,-3.5547,-3.5424,-3.5345,-3.5509,-3.5432,-3.5116,-3.4498,-3.3789,-3.2987,-3.195,-3.1049,-3.0388,-2.9371,-2.9359,-3.0183,-2.9442,-2.94,-3.0164,-3.0197,-3.0178,-3.0087,-2.9891,-2.9777,-2.979,-2.9598,-2.9521,-2.9511,-2.9434,-2.9068,-2.8351,-2.8306,-2.7686,-2.6382,0.0,0.0,0.0,0.0,0.0,0.0,0.0,0.0,0.0,0.0,0.0,0.0,0.0,0.0,0.0,-3.2464,0.0,-3.2797,-3.3555,0.0,0.0,0.0,-3.5661,-3.6387,-3.6401,-3.6897,-3.8346,0.0,0.0,-3.8118,-3.8257,-3.8356,-3.8462,-3.8593,-3.8658,-3.8676,-3.8768,-3.8768,-3.886,-3.8894,-3.893,-3.9224,-3.9698,-4.0227,-4.0507,-4.0456,-3.9932,-3.8736,-3.8415,-3.784,-3.6821,-3.6418,-3.6315,-3.623,-3.592,-3.5795,-3.5788,-3.5783,-3.5739,-3.5711,-3.5849,-3.6019,-4.0766,-4.0534,-4.0115,-3.9184,-3.806,-3.8715,-3.8977,-3.9034,-3.965,-3.9573,-3.8977,-3.8777,-3.8219,-3.7392,-3.6969,-3.6892,-3.7084,-3.6458,-3.6291,-3.6445,-3.5875,-3.5547,-3.5527,-3.5589,-3.5589,-3.5501,-3.4635,-3.4103,-3.3821,-3.222,-3.1315,-3.1087,-3.0133,-2.9813,-3.0152,-3.0524,-3.075,-3.0864,-3.1001,-3.0723,-2.9972,-2.9763,-2.9664,-2.9719,-2.9589,-2.9521,-2.9521,-2.958,-2.9476,-2.914,-2.8643,-2.8174,-2.7791,-2.6633,0.0,0.0,0.0,0.0,0.0,0.0,0.0,0.0,0.0,-3.0029,-3.0837,0.0,-3.1652,0.0,-3.2915,-3.4081,-3.5139,-3.5447,0.0,0.0,-3.5714,-3.6391,-3.7796,-3.7317,-3.753,-3.9051,-3.8475,-3.8008,-3.8172,-3.8257,-3.8305,-3.8338,-3.8417,-3.8465,-3.8465,-3.9013,-3.9378,-3.9396,-3.99,-4.0445,-4.0354,-4.0641,-4.0685,-4.0526,-4.0473,-4.0239,-3.9575,-3.9478,-3.9073,-3.7886,-3.7585,-3.7147,-3.6112,-3.5839,-3.5773,-3.5667,-3.5644,-3.5667,-3.5751,-3.5888,-3.6014,-4.1169,-4.115,-4.073,-4.001,-3.9194,-3.9646,-3.9823,-3.9881,-4.0304,-4.0246,-3.9823,-3.9457,-3.8815,-3.8007,-3.8007,-3.8015,-3.8005,-3.7576,-3.7172,-3.6774,-3.6356,-3.6188,-3.6161,-3.5713,-3.5534,-3.5507,-3.4093,-3.3255,-3.2882,-3.139,-3.0668,-3.0712,-3.0118,-3.0021,-3.0448,-3.0911,-3.1266,-3.1553,-3.1292,-3.0743,-2.9835,-2.9692,-2.9655,-2.9701,-2.9636,-2.9589,-2.9579,-2.9251,-2.9036,-2.8949,-2.854,-2.8165,-2.7864,-2.731,-2.6897,0.0,0.0,0.0,0.0,0.0,0.0,0.0,0.0,0.0,0.0,0.0,-3.292,-3.3284,-3.4258,-3.5196,-3.5996,-3.6352,-3.6653,-3.6989,-3.7025,-3.7646,-3.9193,-3.8358,-3.8109,-3.9311,-3.8715,-3.8209,-3.8209,-3.8242,-3.8241,-3.8257,-3.8289,-3.8338,-3.8437,-3.8818,-3.9057,-3.9092,-3.9508,-3.9849,-3.9882,-3.9898,-3.98,-3.9476,-3.9475,-3.9318,-3.858,-3.858,-3.8343,-3.7352,-3.7053,-3.6793,-3.5975,-3.5745,-3.5689,-3.5622,-3.5616,-3.5622,-3.5689,-3.5839,-3.5927,-4.1745,-4.1668,-4.0923,-4.0588,-4.0588,-4.0542,-4.0512,-4.0512,-4.0531,-4.0504,-4.0477,-3.9758,-3.9012,-3.8312,-3.8251,-3.8235,-3.8195,-3.8087,-3.7569,-3.6768,-3.6685,-3.6626,-3.6485,-3.5611,-3.5224,-3.5109,-3.3304,-3.2083,-3.1493,-3.0399,-2.9859,-2.9874,-2.9746,-3.0114,-3.0856,-3.0912,-3.1287,-3.2067,-3.1429,-3.0612,-2.972,-2.9701,-2.9701,-2.9701,-2.9701,-2.9701,-2.9673,-2.8811,-2.8381,-2.8531,-2.8222,-2.7895,-2.7593,-2.8002,-2.8074,0.0,-2.7619,0.0,0.0,0.0,0.0,0.0,0.0,0.0,0.0,-3.4232,-3.4642,-3.5422,-3.5954,-3.6266,-3.6286,-3.6882,-3.7493,-3.8117,-3.8259,-3.8838,-4.0111,-3.913,-3.8584,-3.9314,-3.8681,-3.8209,-3.8209,-3.8209,-3.8209,-3.8209,-3.8209,-3.8257,-3.8336,-3.8387,-3.8423,-3.8385,-3.8385,-3.8599,-3.8627,-3.8538,-3.8409,-3.8105,-3.8194,-3.7861,-3.6886,-3.6911,-3.6841,-3.6182,-3.5988,-3.5846,-3.5785,-3.5673,-3.5616,-3.56,-3.5616,-3.5616,-3.5622,-3.5728,-3.5795,-4.0938,-4.0899,-4.0698,-4.0588,-4.0588,-4.06,-4.0593,-4.0574,-4.0593,-4.0591,-4.0573,-4.0241,-4.0021,-3.9855,-3.969,-3.928,-3.8631,-3.799,-3.7252,-3.6446,-3.5752,-3.5086,-3.4488,-3.4274,-3.419,-3.4106,-3.2972,-3.2327,-3.2182,-3.1176,-3.0349,-2.9738,-2.972,-3.0096,-3.0875,0.0,0.0,0.0,-3.1954,-3.1166,-2.9777,-2.9701,-2.9701,-2.9701,-2.9701,0.0,-2.9579,-2.8783,-2.8615,-2.9213,-2.7979,0.0,0.0,0.0,0.0,0.0,0.0,0.0,0.0,0.0,0.0,0.0,-3.3667,-3.3753,-3.4098,-3.5267,-3.6293,-3.6919,-3.7096,-3.7357,-3.781,-3.7996,-3.8092,-3.8207,-3.8209,-3.8588,-3.9441,-3.877,-3.8534,-3.9278,-3.8698,-3.8209,-3.8209,-3.8209,-3.8209,-3.8209,-3.8209,-3.8209,-3.8242,-3.8241,-3.8241,-3.8241,-3.829,-3.8354,-3.8417,-3.8417,-3.8269,-3.7931,-3.7578,-3.7247,-3.6739,-3.6367,-3.6199,-3.5849,-3.5817,-3.5751,-3.5678,-3.5616,-3.5616,-3.5616,-3.5616,-3.5616,-3.56,-3.5689,-3.5756,-4.0746,0.0,-4.0707,-4.0628,0.0,-4.0557,-4.0492,-4.0394,-4.0423,-4.0394,-4.0304,-4.0194,-4.0148,-4.012,-3.9633,-3.9213,-3.8804,-3.7984,-3.7172,-3.6377,-3.5954,-3.5531,-3.5119,-3.462,-3.4406,-3.4338,-3.3374,-3.2685,-3.2251,-3.175,-3.1278,-3.0884,-3.049,-3.0696,-3.1456,-3.1504,-3.1494,-3.1523,-3.1879,-3.1316,-2.9777,-2.9701,-2.9701,-2.9701,-2.9701,0.0,0.0,0.0,0.0,0.0,0.0,0.0,0.0,-2.8857,0.0,-3.0043,-3.0541,-3.11,-3.1818,-3.2233,-3.2904,-3.3956,-3.4321,-3.487,-3.5703,-3.6523,-3.7261,-3.7876,-3.7921,-3.8011,-3.8251,-3.8274,-3.8387,-3.8716,-3.8444,-3.8517,-3.9152,-3.8698,-3.8372,-3.8698,-3.8427,-3.8209,-3.8209,-3.8209,-3.8209,-3.8209,-3.8209,-3.8209,-3.8209,-3.8209,-3.8209,-3.8209,-3.8224,-3.8274,-3.8338,-3.8322,-3.8254,-3.8018,-3.7667,-3.7209,-3.6818,-3.643,-3.6062,-3.5778,-3.5689,-3.5667,-3.5622,-3.5616,-3.5616,-3.5616,-3.5616,-3.5616,-3.5616,-3.5644,-3.5667,-4.0759,-4.0739,-4.0713,-4.0598,-4.0449,-4.043,-4.033,-4.0139,0.0,0.0,0.0,-3.9821,-3.9754,-3.9687,-3.901,-3.8593,-3.8337,-3.7633,-3.6852,-3.6096,-3.6077,-3.6001,-3.5821,-3.5021,-3.4642,-3.4595,-3.3775,-3.3043,-3.2349,-3.233,-3.2236,-3.2048,-3.1419,-3.1419,-3.2067,-3.2255,-3.1936,-3.1175,-3.1635,-3.1185,-2.9758,-2.9701,-2.9701,-2.9701,-2.9701,-2.973,-2.9804,-2.897,-2.8661,-2.8922,-2.8762,-2.8733,-2.8959,-3.02,-3.0984,-3.1123,-3.1776,-3.2486,-3.3152,-3.3184,-3.3432,-3.4029,-3.4646,-3.5573,-3.6978,-3.7312,-3.7689,-3.822,-3.8214,-3.8188,-3.8272,-3.8079,-3.8317,-3.9115,-3.8589,-3.8462,-3.9042,-3.8627,-3.8227,-3.8209,-3.8227,-3.8209,-3.8209,-3.8209,-3.8209,-3.8209,-3.8209,-3.8209,-3.8209,-3.8209,-3.8209,-3.8209,-3.8209,-3.8242,-3.8257,-3.8241,-3.8191,-3.8087,-3.7685,-3.7265,-3.686,-3.6451,-3.6045,-3.5689,-3.5616,-3.5616,-3.5616,-3.5616,-3.5616,-3.5616,-3.5616,-3.5616,-3.5616,-3.5616,-3.56,-4.0546,-4.0519,-4.0356,-4.0269,-4.0242,-4.0223,-4.0129,-3.991,-3.9347,-3.948,-4.0024,-3.9171,-3.8803,-3.8769,-3.849,-3.763,-3.6335,-3.6203,-3.5676,-3.4858,-3.484,-3.4482,-3.3831,-3.3688,-3.3611,-3.3592,-3.3467,-3.3352,-3.3231,-3.3202,-3.2837,-3.218,-3.1992,-3.1973,-3.2142,-3.2837,-3.2799,-3.1954,-3.1372,-3.064,-2.972,-2.9701,-2.9701,-2.9701,-2.972,-2.9992,-3.058,-2.9802,-2.9997,-3.1368,-3.0737,-3.066,-3.135,-3.1592,-3.1998,-3.2616,-3.2783,-3.3175,-3.3889,-3.3895,-3.4144,-3.4757,-3.4931,-3.5114,-3.5353,-3.6578,-3.7345,-3.7377,-3.7353,-3.7546,-3.8062,-3.7611,-3.7593,-3.8246,-3.8281,-3.8263,-3.8391,-3.8299,-3.8209,-3.8209,-3.8209,-3.8209,-3.8209,-3.8209,-3.8209,-3.8209,-3.8118,-3.8191,-3.8209,-3.8209,-3.8209,-3.8209,-3.8209,-3.8209,-3.8225,-3.8209,-3.8072,-3.765,-3.7302,-3.69,-3.6495,-3.6049,-3.5739,-3.5622,-3.5616,-3.5616,-3.5616,-3.5616,-3.5616,-3.5616,-3.5616,-3.56,-3.5549,-3.5498,-3.5532,-4.0441,-4.033,-4.0242,-4.0139,-4.003,-3.9924,-3.955,-3.8977,-3.8237,-3.8382,-3.9002,-3.818,-3.7785,-3.7743,-3.7227,-3.661,-3.5878,-3.5409,-3.4958,-3.4631,-3.4612,-3.4414,-3.4076,-3.4057,-3.4057,-3.4057,-3.4057,-3.4038,-3.4057,-3.4057,-3.3832,-3.3438,-3.3025,-3.2624,-3.2317,-3.2549,-3.2549,-3.227,-3.2267,-3.1832,-3.1034,-3.0997,-3.1007,-3.1007,-3.1005,-3.1134,-3.1447,-3.104,-3.1129,-3.1871,-3.1522,-3.1455,-3.1827,-3.2244,-3.2634,-3.3001,-3.3398,-3.3771,-3.403,-3.3947,-3.4021,-3.4321,-3.4316,-3.4289,-3.4307,-3.5322,-3.6309,-3.7059,-3.7121,-3.7402,-3.81,-3.7865,-3.7792,-3.8154,-3.8209,-3.8209,-3.8209,-3.8209,-3.8209,-3.8209,-3.8209,-3.8209,-3.8209,-3.8209,-3.8209,-3.8172,-3.7883,-3.772,-3.81,-3.7846,-3.7738,-3.81,-3.8209,-3.8209,-3.8191,-3.8209,-3.8003,-3.7578,-3.717,-3.6779,-3.6367,-3.5915,-3.5644,-3.5616,-3.5616,-3.5616,-3.56,-3.5616,-3.5616,-3.5616,-3.5616,-3.5498,-3.5126,-3.4726,-3.4687,-4.0278,-4.0139,-4.008,-3.9969,-3.9804,-3.9668,-3.9214,-3.8525,-3.7561,-3.7448,-3.7868,-3.7192,-3.6828,-3.6772,-3.616,-3.5803,-3.5522,-3.4902,-3.4612,-3.4612,-3.4612,-3.4612,-3.4612,-3.4612,-3.4612,-3.4612,-3.4612,-3.4612,-3.4612,-3.4612,-3.4612,-3.4537,-3.3963,-3.3397,-3.2893,-3.2738,-3.2738,-3.2921,-3.3416,-3.3156,-3.2142,-3.2115,-3.2115,-3.2105,-3.2102,-3.2162,-3.2246,-3.2221,-3.224,-3.2351,-3.2351,-3.2351,-3.237,-3.2915,-3.3262,-3.3324,-3.3832,-3.4111,-3.3985,-3.3868,-3.3807,-3.3807,-3.3739,-3.3698,-3.3739,-3.4388,-3.5389,-3.6578,-3.6783,-3.7152,-3.7972,-3.7991,-3.8009,-3.8172,-3.8209,-3.8209,-3.8209,-3.8209,-3.8209,-3.8209,-3.8209,-3.8209,-3.8209,-3.8209,-3.8209,-3.8118,-3.7647,-3.7575,-3.7991,-3.7629,-3.7611,-3.7919,-3.8064,-3.7774,-3.7739,-3.7794,-3.7608,-3.7201,-3.6989,-3.6646,-3.6241,-3.5805,-3.5644,-3.5616,-3.5616,-3.5498,-3.5397,-3.5312,-3.5211,-3.5064,-3.4945,-3.4839,-3.4336,-3.3897,-3.374,-3.9937,-3.9903,-3.9762,-3.965,-3.9638,-3.9602,-3.9514,-3.9232,-3.7786,-3.7129,-3.7129,-3.6348,-3.601,-3.601,-3.5916,-3.5465,-3.48,-3.465,-3.4612,-3.4612,-3.4612,-3.4612,-3.4612,-3.4612,-3.4612,-3.4612,-3.4612,-3.4612,-3.4612,-3.4612,-3.4612,-3.4612,-3.4518,-3.4425,-3.4352,-3.4331,-3.436,-3.439,-3.4462,-3.3719,-3.2217,-3.2115,-3.2115,-3.2115,-3.2123,-3.2418,-3.3067,-3.3075,-3.3347,-3.3912,-3.3918,-3.3968,-3.3956,-3.4048,-3.4086,-3.4086,-3.4111,-3.4049,-3.3921,-3.386,-3.3844,-3.3807,-3.3812,-3.3766,-3.3729,-3.4331,-3.5072,-3.5895,-3.6012,-3.6687,-3.7919,-3.7611,-3.7538,-3.8154,-3.8209,-3.8209,-3.8209,-3.8209,-3.8209,-3.8209,-3.8209,-3.8209,-3.8209,-3.8209,-3.8209,-3.8209,-3.7973,-3.7901,-3.8136,-3.7991,-3.7865,-3.7973,-3.7629,-3.6888,-3.649,-3.6689,-3.6768,-3.6196,-3.648,-3.6452,-3.6002,-3.5689,-3.5616,-3.5616,-3.5616,-3.5414,-3.4895,-3.4573,-3.4404,-3.4049,-3.3846,-3.3626,-3.3508,-3.3339,-3.3406,-3.9862,-3.9727,-3.9638,-3.9608,-3.9608,-3.9608,-3.9308,-3.8713,-3.7598,-3.6847,-3.631,-3.5503,-3.5127,-3.5127,-3.5138,-3.4921,-3.4602,-3.4612,-3.4612,-3.4612,-3.4612,-3.4612,-3.4612,-3.4612,-3.4612,-3.4612,-3.4612,-3.4612,-3.4612,-3.4612,-3.4612,-3.4612,-3.4612,-3.4612,-3.4612,-3.4612,-3.4612,-3.4612,-3.4612,-3.4274,-3.3692,-3.3569,-3.3579,-3.3588,-3.3505,-3.3582,-3.3863,-3.385,-3.391,-3.4191,-3.4216,-3.4216,-3.4216,-3.4142,-3.4142,-3.4179,-3.4099,-3.3998,-3.3908,-3.427,-3.4495,-3.4472,-3.484,-3.5024,-3.4972,-3.5205,-3.5685,-3.6375,-3.6506,-3.6979,-3.7991,-3.7901,-3.7846,-3.8154,-3.8209,-3.8209,-3.8209,-3.8209,-3.8209,-3.8209,-3.8209,-3.8209,-3.8209,-3.8209,-3.8209,-3.8136,-3.7865,-3.772,-3.8082,-3.781,-3.7502,-3.7393,-3.6832,-3.6472,-3.6383,-3.6474,-3.6292,-3.5979,-3.6173,-3.6266,-3.5759,-3.56,-3.5616,-3.5583,-3.5498,-3.5211,-3.468,-3.4472,-3.4269,-3.3558,-3.2933,-3.2767,-3.2767,-3.2412,-3.2171,-3.973,-3.9397,-3.9549,-3.9631,-3.9619,-3.9602,-3.9251,-3.8582,-3.7774,-3.6986,-3.6179,-3.5334,-3.4827,-3.4631,-3.4612,-3.4612,-3.4612,-3.4612,-3.4612,-3.4612,-3.4612,-3.4612,-3.4612,-3.4612,-3.4612,-3.4612,-3.4612,-3.4612,-3.4612,-3.4612,-3.4612,-3.4612,-3.4612,-3.4612,-3.4612,-3.4612,-3.4612,-3.4612,-3.4612,-3.4612,-3.4594,-3.4612,-3.4583,-3.4561,-3.4484,-3.4509,-3.4717,-3.4653,-3.4574,-3.455,-3.455,-3.4439,-3.4216,-3.4136,-3.4111,-3.4111,-3.4049,-3.407,-3.4181,-3.4688,-3.504,-3.5239,-3.5732,-3.5951,-3.5947,-3.6032,-3.6363,-3.6868,-3.7194,-3.7611,-3.8082,-3.8209,-3.8209,-3.8209,-3.8209,-3.8192,-3.8141,-3.8158,-3.8158,-3.8072,-3.8124,-3.8209,-3.8209,-3.8209,-3.8209,-3.8154,-3.7756,-3.7451,-3.7924,-3.7654,-3.7276,-3.7099,-3.6325,-3.5818,-3.6158,-3.5882,-3.5581,-3.5411,-3.5466,-3.5797,-3.528,-3.5137,-3.5009,-3.461,-3.4891,-3.4582,-3.3684,-3.3604,-3.3596,-3.29,-3.2347,-3.1975,-3.1925,-3.1472,-3.1289,-3.9464,-3.8902,-3.9437,-3.9712,-3.9701,-3.9631,-3.9602,-3.9407,-3.8606,-3.7786,-3.702,-3.6152,-3.5382,-3.4661,-3.4653,-3.4612,-3.4612,-3.4612,-3.4612,-3.4612,-3.4612,-3.4612,-3.4612,-3.4612,-3.4612,-3.4612,-3.4612,-3.4612,-3.4612,-3.4612,-3.4612,-3.4612,-3.4612,-3.4612,-3.4612,-3.4612,-3.4612,-3.4612,-3.4612,-3.4612,-3.4612,-3.4612,-3.4561,-3.4517,-3.4476,-3.4775,-3.536,-3.5504,-3.546,-3.5436,-3.538,-3.5064,-3.4346,-3.4155,-3.4049,-3.3934,-3.3991,-3.4302,-3.4798,-3.5007,-3.5312,-3.5901,-3.6091,-3.5965,-3.6168,-3.6628,-3.6995,-3.7031,-3.7701,-3.8136,-3.8191,-3.8209,-3.8209,-3.8209,-3.8209,-3.8124,-3.7951,-3.8107,-3.8003,-3.781,-3.7986,-3.8158,-3.8192,-3.8209,-3.8192,-3.8192,-3.8119,-3.8069,-3.7879,-3.7844,-3.772,-3.7274,-3.6344,-3.5092,-3.4629,-3.4605,-3.4281,-3.4163,-3.4666,-3.5106,-3.4442,-3.3897,-3.3785,-3.3626,-3.3659,-3.3302,-3.2471,-3.2035,-3.1905,-3.159,-3.1426,-3.119,-3.1375,-3.115,-3.1052,-3.9319,-3.9472,-3.9724,-3.9826,-3.9834,-3.98,-3.9796,-3.9702,-3.892,-3.842,-3.791,-3.6709,-3.5916,-3.5594,-3.5046,-3.472,-3.4623,-3.4612,-3.4612,-3.4612,-3.4612,-3.4612,-3.4612,-3.4612,-3.4612,-3.4612,-3.4612,-3.4612,-3.4612,-3.4612,-3.4612,-3.4612,-3.4612,-3.4612,-3.4612,-3.4612,-3.4612,-3.4612,-3.4612,-3.4612,-3.4612,-3.4612,-3.4561,-3.4495,-3.4461,-3.4554,-3.477,-3.4741,-3.4958,-3.5473,-3.5491,-3.5336,-3.4964,-3.437,-3.3972,-3.391,-3.4428,-3.4857,-3.5078,-3.5923,-3.6525,-3.6772,-3.7226,-3.7348,-3.7408,-3.7627,-3.7774,-3.781,-3.7973,-3.8209,-3.8209,-3.8209,-3.8209,-3.8209,-3.8192,-3.8157,-3.8089,-3.8056,-3.7951,-3.7828,-3.7934,-3.7986,-3.8056,-3.8106,-3.8158,-3.8056,-3.8124,-3.8038,-3.7828,-3.7811,-3.7811,-3.7524,-3.6684,-3.5686,-3.4833,-3.4109,-3.367,-3.365,-3.3856,-3.3988,-3.3654,-3.3427,-3.3311,-3.3041,-3.2847,-3.2596,-3.1989,-3.1504,-3.1202,-3.1069,-3.0871,-3.0871,-3.0995,-3.0935,-3.0975,-3.9051,-3.9931,-3.9994,-3.9954,-3.9954,-3.9911,-3.99,-3.9843,-3.9323,-3.8955,-3.85,-3.7476,-3.687,-3.6491,-3.5695,-3.5238,-3.5087,-3.485,-3.4678,-3.4685,-3.4647,-3.4687,-3.4678,-3.4626,-3.4623,-3.4655,-3.4623,-3.4612,-3.4612,-3.4612,-3.4612,-3.4612,-3.4612,-3.4612,-3.4612,-3.4612,-3.4612,-3.4612,-3.4612,-3.4612,-3.4612,-3.4612,-3.458,-3.4495,-3.442,-3.4512,-3.4696,-3.4642,-3.4878,-3.5436,-3.5751,-3.5849,-3.5703,-3.5169,-3.4745,-3.4697,-3.5216,-3.5676,-3.5866,-3.6717,-3.7335,-3.758,-3.796,-3.8241,-3.8209,-3.8209,-3.8209,-3.8209,-3.8209,-3.8209,-3.8209,-3.8209,-3.8209,-3.8209,-3.8209,-3.8175,-3.8107,-3.7969,-3.7863,-3.7775,-3.7721,-3.7757,-3.7899,-3.8021,-3.8073,-3.8004,-3.809,-3.7933,-3.7721,-3.7631,-3.7649,-3.7394,-3.6681,-3.597,-3.5313,-3.4605,-3.3565,-3.3369,-3.341,-3.337,-3.3094,-3.2938,-3.2676,-3.244,-3.2214,-3.1976,-3.1625,-3.1124,-3.0907,-3.0824,-3.0749,-3.0712,-3.0794,-3.0855,-3.0895,-3.8754,-4.0158,-4.0157,-4.0087,-4.0077,-3.9994,-3.9911,-3.9933,-3.9884,-3.9469,-3.8921,-3.8635,-3.8067,-3.7393,-3.6587,-3.6187,-3.594,-3.5344,-3.4945,-3.478,-3.4798,-3.482,-3.4851,-3.4699,-3.4666,-3.4747,-3.4655,-3.4612,-3.4612,-3.4612,-3.4612,-3.4612,-3.4612,-3.4612,-3.4612,-3.4612,-3.4612,-3.4612,-3.4612,-3.4612,-3.4612,-3.4612,-3.458,-3.4506,-3.445,-3.4717,-3.5441,-3.538,-3.533,-3.5566,-3.6235,-3.6602,-3.6518,-3.633,-3.6334,-3.6144,-3.6319,-3.6742,-3.7257,-3.7305,-3.7669,-3.8093,-3.8254,-3.8207,-3.8209,-3.8209,-3.8209,-3.8209,-3.8209,-3.8209,-3.8209,-3.8209,-3.8209,-3.8209,-3.8209,-3.8141,-3.7986,-3.7899,-3.7828,-3.7631,-3.7448,-3.7484,-3.7757,-3.7881,-3.7916,-3.7986,-3.7969,-3.7793,-3.7576,-3.7447,-3.7259,-3.6981,-3.6612,-3.6119,-3.5675,-3.5127,-3.3968,-3.309,-3.3136,-3.3133,-3.2542,-3.2232,-3.18,-3.1541,-3.1332,-3.1112,-3.1129,-3.0713,-3.0676,-3.0589,-3.0568,-3.0609,-3.0692,-3.0773,-3.0773,-3.926,-4.0244,-4.0273,-4.0234,-4.0234,-4.0205,-4.0166,-4.0166,-4.0166,-4.0014,-3.9719,-3.9185,-3.8756,-3.8356,-3.7613,-3.6881,-3.6274,-3.6043,-3.5608,-3.4965,-3.486,-3.4879,-3.4879,-3.479,-3.4708,-3.4666,-3.4623,-3.4612,-3.4612,-3.4612,-3.4612,-3.4612,-3.4612,-3.4612,-3.4612,-3.4612,-3.4612,-3.4612,-3.4612,-3.4612,-3.4612,-3.4612,-3.4583,-3.4569,-3.4506,-3.4588,-3.4755,-3.4648,-3.4897,-3.5491,-3.6272,-3.688,-3.7133,-3.6726,-3.636,-3.6372,-3.6864,-3.721,-3.7511,-3.7882,-3.8136,-3.8346,-3.8322,-3.8241,-3.8209,-3.8209,-3.8209,-3.8209,-3.8209,-3.8209,-3.8209,-3.8209,-3.8209,-3.8209,-3.8192,-3.8157,-3.8055,-3.7864,-3.7613,-3.7428,-3.7334,-3.7353,-3.7466,-3.7576,-3.7667,-3.7649,-3.7667,-3.7594,-3.7298,-3.7278,-3.722,-3.6976,-3.6638,-3.6373,-3.6004,-3.5723,-3.5074,-3.4019,-3.3677,-3.3277,-3.2571,-3.1964,-3.1439,-3.0958,-3.0701,-3.0522,-3.0522,-3.0489,-3.0489,-3.0489,-3.051,-3.0589,-3.0667,-3.0708,-3.0692,-3.9535,-4.0291,-4.031,-4.032,-4.032,-4.032,-4.0234,-4.0176,-4.0273,-4.0205,-3.9913,-3.9546,-3.9269,-3.8982,-3.8061,-3.7243,-3.6663,-3.6249,-3.5658,-3.5095,-3.4992,-3.4982,-3.5001,-3.4936,-3.484,-3.472,-3.4687,-3.4676,-3.4666,-3.4623,-3.4612,-3.4612,-3.4612,-3.4612,-3.4612,-3.4612,-3.4612,-3.4612,-3.4612,-3.4612,-3.4612,-3.4612,-3.4612,-3.4602,-3.4506,-3.4431,-3.4404,-3.4567,-3.4934,-3.559,-3.6493,-3.7414,-3.8005,-3.7577,-3.7228,-3.7294,-3.7624,-3.797,-3.7991,-3.8282,-3.8478,-3.8399,-3.8338,-3.8274,-3.8225,-3.8209,-3.8209,-3.8209,-3.8209,-3.8209,-3.8209,-3.8209,-3.8209,-3.8209,-3.8209,-3.8157,-3.8073,-3.7811,-3.7539,-3.7353,-3.7239,-3.722,-3.7316,-3.7372,-3.7484,-3.7428,-3.7447,-3.7466,-3.7164,-3.7163,-3.7068,-3.7009,-3.6902,-3.6636,-3.6373,-3.6197,-3.6094,-3.526,-3.4462,-3.3844,-3.3114,-3.2605,-3.2089,-3.1453,-3.1085,-3.0787,-3.0721,-3.0555,-3.0489,-3.0489,-3.0555,-3.0547,-3.0589,-3.0584,-3.0568,-3.9569,-4.0244,-4.028,-4.0262,-4.0234,-4.0244,-4.0108,-3.9935,-4.0127,-3.9965,-3.9621,-3.9558,-3.9524,-3.9096,-3.7872,-3.716,-3.6982,-3.596,-3.5308,-3.5129,-3.5028,-3.5028,-3.5126,-3.5092,-3.4983,-3.4879,-3.482,-3.4809,-3.478,-3.4687,-3.4623,-3.4634,-3.4623,-3.4612,-3.4612,-3.4612,-3.4612,-3.4612,-3.4612,-3.4612,-3.4612,-3.4612,-3.4612,-3.4602,-3.4476,-3.4409,-3.4468,-3.5125,-3.5603,-3.585,-3.7066,-3.8021,-3.8689,-3.8837,-3.8596,-3.8469,-3.8652,-3.8615,-3.8637,-3.8554,-3.8494,-3.8417,-3.8354,-3.8292,-3.8225,-3.8209,-3.8209,-3.8209,-3.8209,-3.8209,-3.8209,-3.8209,-3.8209,-3.8209,-3.8175,-3.8072,-3.7916,-3.7721,-3.7539,-3.7353,-3.7182,-3.7068,-3.7278,-3.7297,-3.7353,-3.7428,-3.7353,-3.7259,-3.722,-3.7124,-3.7009,-3.6989,-3.6989,-3.6902,-3.6619,-3.6601,-3.6478,-3.6118,-3.5275,-3.4519,-3.3717,-3.3148,-3.2617,-3.2014,-3.1598,-3.1267,-3.1019,-3.0969,-3.0837,-3.082,-3.077,-3.0588,-3.0539,-3.0605,-3.0803,-3.945,-4.0002,-4.0224,-4.007,-3.9773,-3.9914,-3.9859,-3.9635,-3.9663,-3.959,-3.9414,-3.8929,-3.8672,-3.8493,-3.7536,-3.6771,-3.6206,-3.5788,-3.5233,-3.4751,-3.4655,-3.4841,-3.5065,-3.5101,-3.502,-3.4908,-3.487,-3.4888,-3.486,-3.479,-3.4747,-3.4747,-3.4655,-3.4612,-3.4612,-3.4612,-3.4612,-3.4612,-3.4612,-3.4612,-3.4612,-3.4612,-3.4612,-3.4602,-3.4517,-3.4469,-3.4554,-3.5702,-3.6699,-3.7225,-3.7553,-3.8136,-3.8799,-3.8833,-3.8762,-3.8704,-3.8707,-3.8707,-3.8692,-3.8658,-3.8578,-3.8415,-3.8366,-3.8322,-3.8209,-3.8209,-3.8209,-3.8209,-3.8209,-3.8209,-3.8209,-3.8209,-3.8209,-3.8192,-3.8072,-3.7969,-3.7881,-3.7703,-3.7576,-3.7521,-3.7317,-3.7239,-3.7239,-3.7182,-3.7124,-3.7163,-3.7143,-3.7087,-3.7105,-3.7085,-3.6989,-3.6989,-3.6989,-3.6989,-3.6954,-3.6954,-3.688,-3.6748,-3.6102,-3.5282,-3.4402,-3.3573,-3.3028,-3.2453,-3.2415,-3.215,-3.1951,-3.1818,-3.1603,-3.1085,-3.0787,-3.0555,-3.0737,-3.0853,-3.1217,-3.9366,-3.9943,-4.0011,-3.9843,-3.9575,-3.9701,-3.9568,-3.9327,-3.9089,-3.9064,-3.8915,-3.8059,-3.7754,-3.7851,-3.6826,-3.6108,-3.5647,-3.5357,-3.4969,-3.4556,-3.4143,-3.4314,-3.4689,-3.4851,-3.486,-3.4889,-3.4841,-3.4879,-3.4945,-3.4898,-3.4868,-3.482,-3.4739,-3.4676,-3.4687,-3.4623,-3.4612,-3.4612,-3.4612,-3.4612,-3.4612,-3.4612,-3.4612,-3.4591,-3.4566,-3.4667,-3.5415,-3.6267,-3.6928,-3.7397,-3.7951,-3.8544,-3.8851,-3.8862,-3.8792,-3.8704,-3.8707,-3.8707,-3.8707,-3.8707,-3.8609,-3.8462,-3.8415,-3.8336,-3.8257,-3.8225,-3.8209,-3.8209,-3.8209,-3.8209,-3.8209,-3.8209,-3.8209,-3.8175,-3.8021,-3.7917,-3.7899,-3.7649,-3.7485,-3.7428,-3.7316,-3.7163,-3.7182,-3.7066,-3.7027,-3.6989,-3.7029,-3.7009,-3.6989,-3.6989,-3.6989,-3.6989,-3.6989,-3.6989,-3.6989,-3.6989,-3.693,-3.6853,-3.646,-3.5737,-3.4974,-3.4075,-3.3695,-3.3299,-3.3216,-3.2994,-3.2624,-3.2106,-3.1466,-3.1019,-3.0721,-3.0721,-3.0915,-3.1224,-3.1588,-3.9176,-3.9839,-3.9645,-3.9559,-3.9464,-3.9364,-3.9106,-3.8845,-3.8426,-3.8282,-3.8128,-3.7252,-3.7035,-3.7158,-3.5975,-3.5274,-3.5008,-3.4452,-3.4188,-3.3788,-3.3414,-3.3353,-3.384,-3.4212,-3.4494,-3.4735,-3.4733,-3.4793,-3.4879,-3.487,-3.487,-3.4831,-3.481,-3.4798,-3.4768,-3.4676,-3.4615,-3.4612,-3.4612,-3.4612,-3.4612,-3.4612,-3.4612,-3.462,-3.4791,-3.528,-3.6155,-3.6756,-3.6941,-3.6872,-3.8284,-3.8887,-3.8939,-3.891,-3.884,-3.8719,-3.8707,-3.8707,-3.8707,-3.8707,-3.8643,-3.851,-3.8446,-3.8385,-3.8307,-3.8259,-3.8225,-3.8209,-3.8209,-3.8209,-3.8209,-3.8209,-3.8209,-3.8175,-3.8039,-3.7917,-3.7828,-3.7558,-3.7334,-3.7316,-3.7182,-3.7066,-3.7027,-3.7007,-3.6989,-3.6989,-3.6989,-3.6989,-3.6989,-3.6989,-3.6989,-3.6989,-3.6989,-3.6989,-3.6989,-3.6989,-3.693,-3.6831,-3.6451,-3.5904,-3.5323,-3.4668,-3.4413,-3.417,-3.3902,-3.3393,-3.2782,-3.2172,-3.161,-3.1133,-3.0959,-3.1029,-3.1186,-3.1572,-3.1929,-3.8299,-3.8826,-3.8731,-3.879,-3.8878,-3.8459,-3.8085,-3.7845,-3.7718,-3.7321,-3.6989,-3.712,-3.6577,-3.5587,-3.5179,-3.4439,-3.3521,-3.3191,-3.2718,-3.2047,-3.1936,-3.1862,-3.2321,-3.2982,-3.389,-3.4346,-3.4561,-3.4572,-3.4624,-3.4714,-3.4743,-3.4743,-3.4812,-3.4831,-3.4778,-3.4833,-3.4716,-3.4623,-3.465,-3.4763,-3.4781,-3.4763,-3.4763,-3.4808,-3.5241,-3.5598,-3.6062,-3.7074,-3.7668,-3.7902,-3.8488,-3.9031,-3.8954,-3.891,-3.8855,-3.8753,-3.8707,-3.8707,-3.8707,-3.8692,-3.8658,-3.8525,-3.8494,-3.8415,-3.8323,-3.829,-3.8241,-3.8225,-3.8209,-3.8209,-3.8209,-3.8209,-3.8209,-3.8158,-3.8039,-3.7934,-3.7882,-3.7685,-3.7539,-3.7484,-3.7372,-3.7239,-3.722,-3.7085,-3.7029,-3.6989,-3.6989,-3.6989,-3.6989,-3.6989,-3.6989,-3.6989,-3.6989,-3.6989,-3.6989,-3.697,-3.693,-3.6831,-3.6509,-3.6216,-3.5605,-3.5095,-3.4808,-3.4627,-3.4493,-3.3877,-3.3222,-3.2852,-3.2373,-3.1798,-3.1244,-3.1252,-3.139,-3.1823,-3.2393,-3.6847,-3.7706,-3.7225,-3.7279,-3.7664,-3.7364,-3.7123,-3.6908,-3.6483,-3.634,-3.6174,-3.6046,-3.5459,-3.4986,-3.4582,-3.3899,-3.3238,-3.2711,-3.1953,-3.1134,-3.0846,-3.0827,-3.0907,-3.1587,-3.2456,-3.3609,-3.421,-3.4368,-3.4497,-3.4551,-3.4612,-3.4622,-3.4724,-3.4693,-3.4789,-3.5066,-3.5286,-3.5319,-3.5585,-3.5777,-3.5777,-3.5777,-3.5777,-3.5784,-3.6189,-3.6456,-3.6976,-3.7504,-3.8135,-3.8505,-3.8873,-3.9045,-3.8983,-3.8925,-3.8851,-3.878,-3.8723,-3.8707,-3.8707,-3.8707,-3.8673,-3.8609,-3.8525,-3.8462,-3.8403,-3.8338,-3.829,-3.8259,-3.8225,-3.8209,-3.8209,-3.8209,-3.8227,-3.8192,-3.8124,-3.8056,-3.8004,-3.7775,-3.7595,-3.7577,-3.7503,-3.7391,-3.7279,-3.7164,-3.7068,-3.7029,-3.6989,-3.6989,-3.6989,-3.6989,-3.6989,-3.6989,-3.6989,-3.6989,-3.6989,-3.697,-3.693,-3.6831,-3.6629,-3.6423,-3.6105,-3.5577,-3.5078,-3.4913,-3.4673,-3.4376,-3.3782,-3.3459,-3.2974,-3.2248,-3.1717,-3.1518,-3.1674,-3.229,-3.2907,-3.5213,-3.6366,-3.5535,-3.5679,-3.6318,-3.6302,-3.6233,-3.609,-3.5376,-3.5436,-3.5711,-3.4568,-3.4876,-3.4628,-3.4371,-3.3949,-3.3183,-3.2443,-3.1262,-3.0173,-3.0026,-3.0008,-3.0105,-3.0465,-3.126,-3.2727,-3.3468,-3.3941,-3.4262,-3.445,-3.445,-3.4483,-3.4612,-3.4588,-3.4686,-3.5191,-3.5446,-3.5313,-3.5741,-3.6094,-3.6169,-3.6206,-3.6225,-3.6503,-3.7071,-3.741,-3.7879,-3.8239,-3.854,-3.9141,-3.9142,-3.9073,-3.9021,-3.8954,-3.8862,-3.8788,-3.8753,-3.8707,-3.8707,-3.8707,-3.8707,-3.8707,-3.8609,-3.8525,-3.8478,-3.8401,-3.8356,-3.8347,-3.8351,-3.85,-3.8391,-3.8482,-3.848,-3.8391,-3.8319,-3.8209,-3.8141,-3.7899,-3.7757,-3.7649,-3.7594,-3.7503,-3.741,-3.7279,-3.7164,-3.7068,-3.7029,-3.6989,-3.6989,-3.6989,-3.6989,-3.6989,-3.6989,-3.6989,-3.6989,-3.6989,-3.695,-3.6891,-3.671,-3.6588,-3.644,-3.6023,-3.5515,-3.5024,-3.4743,-3.4424,-3.4173,-3.3794,-3.3234,-3.2555,-3.2194,-3.1981,-3.2289,-3.2813,-3.3259,-3.3673,-3.3934,-3.4203,-3.4796,-3.5504,-3.5459,-3.5404,-3.5372,-3.5174,-3.4779,-3.444,-3.5436,-3.5063,-3.4507,-3.4806,-3.3805,-3.212,-3.1195,-3.0331,-2.9457,-2.9354,-2.9409,-2.9537,-3.0008,-3.079,-3.1599,-3.2501,-3.3227,-3.3876,-3.4117,-3.4227,-3.4267,-3.442,-3.4461,-3.4416,-3.4618,-3.4876,-3.4853,-3.5095,-3.5194,-3.5163,-3.5237,-3.5516,-3.6224,-3.7349,-3.8041,-3.8328,-3.8807,-3.9184,-3.921,-3.9142,-3.9101,-3.9059,-3.8964,-3.8877,-3.8807,-3.875,-3.8723,-3.8707,-3.8707,-3.8707,-3.8707,-3.8673,-3.859,-3.8544,-3.8481,-3.8455,-3.8561,-3.8841,-3.9152,-3.9188,-3.9188,-3.9188,-3.9061,-3.8663,-3.8317,-3.8282,-3.8142,-3.7986,-3.7864,-3.7739,-3.7613,-3.7558,-3.7466,-3.7354,-3.7259,-3.7143,-3.7105,-3.7048,-3.7029,-3.6989,-3.6989,-3.6989,-3.6989,-3.6989,-3.6989,-3.697,-3.697,-3.6851,-3.6768,-3.6588,-3.6364,-3.5963,-3.543,-3.489,-3.4479,-3.4194,-3.3966,-3.3542,-3.2935,-3.2643,-3.2416,-3.2616,-3.2841,-3.3071,-3.2155,-3.2526,-3.2816,-3.3388,-3.4124,-3.4498,-3.4626,-3.4631,-3.4587,-3.4313,-3.4226,-3.4739,-3.4771,-3.4086,-3.3823,-3.2729,-3.1164,-3.0514,-2.9791,-2.92,-2.939,-2.9629,-2.9592,-3.0063,-3.0662,-3.1305,-3.1861,-3.2706,-3.371,-3.3921,-3.4035,-3.4049,-3.4239,-3.4274,-3.4327,-3.4758,-3.484,-3.4853,-3.513,-3.5316,-3.539,-3.5571,-3.6184,-3.6819,-3.7753,-3.8518,-3.864,-3.8809,-3.9092,-3.9073,-3.9036,-3.9031,-3.9045,-3.9003,-3.8921,-3.8851,-3.8777,-3.8719,-3.8707,-3.8707,-3.8707,-3.8707,-3.8707,-3.8673,-3.8609,-3.858,-3.8613,-3.894,-3.9094,-3.9568,-3.9912,-3.9967,-3.9967,-3.984,-3.9278,-3.888,-3.8717,-3.8444,-3.8232,-3.8092,-3.8004,-3.7899,-3.7757,-3.7667,-3.7576,-3.7428,-3.7278,-3.7201,-3.7145,-3.7085,-3.7046,-3.6989,-3.6989,-3.6989,-3.6989,-3.6989,-3.6989,-3.6989,-3.697,-3.6869,-3.6748,-3.6527,-3.622,-3.5815,-3.5253,-3.465,-3.4185,-3.3947,-3.3602,-3.3315,-3.3056,-3.283,-3.2727,-3.2806,-3.3042,-3.0883,-3.1348,-3.1496,-3.1924,-3.2588,-3.3475,-3.3747,-3.3691,-3.3925,-3.3899,-3.3687,-3.3948,-3.4072,-3.3749,-3.3043,-3.1906,-3.0319,-3.0257,-2.9756,-2.9167,-2.9489,-2.9934,-3.0173,-3.032,-3.0723,-3.1733,-3.2137,-3.2449,-3.3348,-3.3981,-3.4064,-3.431,-3.4424,-3.4541,-3.4689,-3.5358,-3.5531,-3.5763,-3.608,-3.6435,-3.6431,-3.6939,-3.7372,-3.746,-3.8213,-3.8681,-3.8824,-3.884,-3.8892,-3.8935,-3.8935,-3.895,-3.9036,-3.9036,-3.8979,-3.8892,-3.8818,-3.878,-3.8738,-3.8707,-3.8707,-3.8707,-3.8707,-3.8707,-3.8658,-3.8651,-3.8775,-3.9392,-3.9727,-4.0056,-4.0654,-4.0763,-4.0763,-4.0601,-4.0111,-3.9514,-3.9224,-3.8897,-3.848,-3.8338,-3.8263,-3.8141,-3.7986,-3.7846,-3.7739,-3.7649,-3.7484,-3.741,-3.7336,-3.7182,-3.7105,-3.7009,-3.6989,-3.6989,-3.6989,-3.6989,-3.6989,-3.6989,-3.697,-3.6911,-3.6829,-3.6708,-3.636,-3.6019,-3.5549,-3.4968,-3.4431,-3.3949,-3.3696,-3.3501,-3.3351,-3.3097,-3.2756,-3.281,-3.3083,-3.0233,-2.975,-3.0474,-3.079,-3.1158,-3.2444,-3.2624,-3.2235,-3.3395,-3.358,-3.2844,-3.3623,-3.3857,-3.3497,-3.2938,-3.1592,-3.0392,-2.9942,-2.9533,-2.8815,-2.9205,-2.9795,-3.0161,-3.021,-3.0986,-3.1913,-3.28,-3.3109,-3.3203,-3.4051,-3.4839,-3.4995,-3.5501,-3.5942,-3.5707,-3.5952,-3.6195,-3.6166,-3.6178,-3.5831,-3.5393,-3.6,-3.6391,-3.6688,-3.7397,-3.8224,-3.873,-3.8743,-3.8758,-3.8773,-3.8848,-3.8877,-3.8954,-3.905,-3.9007,-3.8921,-3.8818,-3.8743,-3.8704,-3.8707,-3.8707,-3.8707,-3.8707,-3.8707,-3.8658,-3.863,-3.886,-3.9703,-4.0173,-4.0779,-4.1343,-4.1597,-4.1578,-4.1307,-4.0854,-4.013,-3.9604,-3.9241,-3.8825,-3.8437,-3.8309,-3.8257,-3.8156,-3.8021,-3.7882,-3.7811,-3.7739,-3.7613,-3.7484,-3.7278,-3.7124,-3.7029,-3.6989,-3.6989,-3.6989,-3.6989,-3.6989,-3.6989,-3.695,-3.693,-3.6849,-3.6705,-3.6488,-3.6109,-3.5667,-3.5155,-3.4501,-3.4087,-3.3851,-3.3581,-3.3299,-3.2956,-3.2609,-3.2807,-3.3123,-3.0228,-2.9835,-3.0208,-3.0625,-3.104,-3.1617,-3.1734,-3.1685,-3.2025,-3.2067,-3.1808,-3.2093,-3.2052,-3.1696,-3.1197,-3.0308,-2.922,-2.9147,-2.8915,-2.8822,-2.9375,-3.0243,-3.0571,-3.0657,-3.1203,-3.1637,-3.1837,-3.1556,-3.2281,-3.4223,-3.5734,-3.5756,-3.6068,-3.6225,-3.645,-3.6321,-3.6285,-3.6237,-3.6113,-3.583,-3.57,-3.6136,-3.6607,-3.6625,-3.7499,-3.8076,-3.8405,-3.8483,-3.8433,-3.8433,-3.8446,-3.8554,-3.8691,-3.8796,-3.8826,-3.8964,-3.8892,-3.8807,-3.8723,-3.8707,-3.8707,-3.8707,-3.8707,-3.8707,-3.8673,-3.863,-3.8857,-3.9682,-4.0387,-4.1103,-4.185,-4.2268,-4.2395,-4.2176,-4.1615,-4.089,-4.0148,-3.9549,-3.9132,-3.8725,-3.8352,-3.8322,-3.8289,-3.8172,-3.8055,-3.7986,-3.7828,-3.7649,-3.7466,-3.7259,-3.7124,-3.7009,-3.6989,-3.6989,-3.6989,-3.6989,-3.6989,-3.697,-3.6888,-3.6869,-3.6829,-3.6664,-3.6488,-3.6281,-3.5937,-3.5336,-3.4612,-3.4114,-3.3759,-3.3485,-3.3203,-3.2931,-3.2688,-3.2942,-3.322,-3.0533,-3.0239,-2.9978,-3.0161,-3.0618,-3.0665,-3.0636,-3.0605,-3.0929,-3.0812,-3.0663,-3.0803,-3.0536,-2.9916,-2.9826,-2.9358,-2.8255,-2.825,-2.8156,-2.8653,-2.944,-3.031,-3.0617,-3.083,-3.1064,-3.1444,-3.2026,-3.1905,-3.2637,-3.416,-3.5888,-3.615,-3.6394,-3.6707,-3.6894,-3.7037,-3.711,-3.7096,-3.6918,-3.6611,-3.6406,-3.6712,-3.6935,-3.7156,-3.7557,-3.7991,-3.8191,-3.8225,-3.8207,-3.8189,-3.817,-3.8265,-3.8426,-3.8597,-3.8691,-3.8815,-3.8848,-3.8866,-3.8765,-3.8723,-3.8707,-3.8707,-3.8707,-3.8707,-3.8692,-3.8627,-3.909,-4.0061,-4.049,-4.1264,-4.2068,-4.2814,-4.2813,-4.2666,-4.2321,-4.1615,-4.0908,-4.0184,-3.953,-3.9037,-3.8684,-3.8419,-3.837,-3.8303,-3.8239,-3.8157,-3.7968,-3.7721,-3.7485,-3.7278,-3.7143,-3.7027,-3.6989,-3.6989,-3.6989,-3.6989,-3.6989,-3.6968,-3.6869,-3.6806,-3.6766,-3.6705,-3.6558,-3.6356,-3.6114,-3.5722,-3.5142,-3.4386,-3.365,-3.3202,-3.2879,-3.2933,-3.2918,-3.3128,-3.3277,-3.1174,-3.0576,-2.946,-2.8925,-2.8855,-2.9538,-2.9396,-2.8964,-3.0278,-3.0261,-2.9677,-3.0232,-3.0124,-2.971,-2.9332,-2.8848,-2.7896,-2.8174,-2.8163,-2.8078,-2.8262,-2.9597,-3.029,-3.0862,-3.1255,-3.2309,-3.2433,-3.2878,-3.3671,-3.3815,-3.5179,-3.576,-3.6157,-3.7361,-3.7817,-3.7668,-3.8001,-3.8056,-3.8013,-3.7661,-3.7255,-3.7176,-3.7132,-3.7102,-3.7158,-3.743,-3.8154,-3.8209,-3.8175,-3.8157,-3.8087,-3.8051,-3.8183,-3.836,-3.8489,-3.8569,-3.8785,-3.8788,-3.8732,-3.8719,-3.8689,-3.8707,-3.8707,-3.8707,-3.8692,-3.8707,-3.9389,-4.0459,-4.069,-4.1498,-4.2395,-4.3105,-4.3049,-4.2865,-4.2592,-4.214,-4.1397,-4.0691,-4.0039,-3.942,-3.8958,-3.8565,-3.8433,-3.8385,-3.8289,-3.8207,-3.8055,-3.781,-3.754,-3.7334,-3.7182,-3.7066,-3.7009,-3.6989,-3.6989,-3.6989,-3.6989,-3.695,-3.6888,-3.6806,-3.6742,-3.6661,-3.6579,-3.6395,-3.6148,-3.5893,-3.5526,-3.4514,-3.3627,-3.2888,-3.2636,-3.297,-3.3023,-3.307,-3.3192,-3.0724,-3.0549,-2.9147,-2.8671,-2.883,-2.8514,-2.8298,-2.8172,-2.8563,-2.8606,-2.8282,-2.8588,-2.8647,-2.8464,-2.8352,-2.8373,-2.8262,-2.8345,-2.8528,-2.9103,-2.9685,-3.0335,-3.0896,-3.1002,-3.1283,-3.187,-3.2106,-3.1986,-3.1899,-3.3161,-3.3688,-3.4372,-3.5464,-3.5918,-3.657,-3.7449,-3.8011,-3.852,-3.8541,-3.8259,-3.8136,-3.7881,-3.7818,-3.782,-3.7754,-3.7865,-3.8172,-3.8209,-3.8124,-3.8038,-3.8003,-3.7967,-3.7931,-3.8083,-3.8167,-3.8283,-3.8538,-3.8649,-3.8652,-3.8652,-3.8732,-3.8707,-3.8707,-3.8707,-3.8692,-3.8643,-3.9106,-3.99,-4.0726,-4.1553,-4.2123,-4.2796,-4.3067,-4.2956,-4.2737,-4.2429,-4.1904,-4.1162,-4.0419,-3.9763,-3.9062,-3.8517,-3.8462,-3.8446,-3.8336,-3.8224,-3.8072,-3.7899,-3.7594,-3.7353,-3.7182,-3.7085,-3.7009,-3.6989,-3.6989,-3.6989,-3.6989,-3.693,-3.6888,-3.6806,-3.6702,-3.6602,-3.6499,-3.6353,-3.617,-3.5876,-3.5307,-3.4424,-3.3799,-3.3456,-3.3327,-3.3395,-3.3304,-3.3039,-3.3054,-3.0441,-3.0394,-2.9229,-2.8673,-2.8531,-2.7829,-2.76,-2.7686,-2.7559,-2.7421,-2.7438,-2.7481,-2.7509,-2.7542,-2.7576,-2.7931,-2.8369,-2.8564,-2.8934,-2.9451,-3.0055,-3.0904,-3.1236,-3.1515,-3.1725,-3.1795,-3.1879,-3.1941,-3.222,-3.2336,-3.3131,-3.3948,-3.4446,-3.496,-3.5553,-3.6244,-3.7249,-3.7812,-3.8326,-3.8348,-3.8298,-3.8316,-3.8269,-3.8234,-3.8152,-3.8136,-3.8191,-3.8192,-3.8123,-3.8038,-3.7933,-3.7845,-3.7774,-3.7774,-3.7826,-3.8016,-3.8249,-3.846,-3.851,-3.8606,-3.886,-3.9108,-3.8781,-3.8744,-3.871,-3.881,-3.9491,-4.0121,-4.0839,-4.1483,-4.2141,-4.2832,-4.303,-4.2938,-4.2919,-4.2629,-4.2212,-4.1578,-4.0817,-4.0087,-3.944,-3.8809,-3.832,-3.8287,-3.8171,-3.8003,-3.7775,-3.7631,-3.7466,-3.7259,-3.7143,-3.7046,-3.6989,-3.6989,-3.6989,-3.6989,-3.697,-3.6871,-3.6829,-3.6766,-3.6664,-3.6544,-3.6502,-3.6423,-3.6199,-3.5847,-3.5401,-3.4891,-3.4569,-3.4284,-3.4019,-3.3591,-3.3096,-3.2796,-3.285,-3.0467,-3.0185,-2.983,-2.8865,-2.7668,-2.7531,-2.7502,-2.7421,-2.7452,-2.7434,-2.7419,-2.745,-2.7465,-2.7481,-2.7432,-2.794,-2.8551,-2.8657,-2.9039,-2.9782,-3.0214,-3.0715,-3.1337,-3.1909,-3.2344,-3.3667,-3.3613,-3.3406,-3.3716,-3.3596,-3.3896,-3.3947,-3.4227,-3.458,-3.5186,-3.5934,-3.638,-3.6593,-3.7513,-3.7727,-3.7906,-3.7988,-3.7988,-3.8223,-3.8122,-3.8072,-3.8192,-3.8192,-3.8175,-3.8141,-3.8003,-3.7863,-3.7703,-3.7739,-3.7703,-3.7578,-3.8163,-3.8457,-3.8544,-3.8643,-3.8982,-3.9365,-3.8927,-3.8781,-3.8891,-3.9334,-4.0093,-4.0778,-4.1495,-4.2248,-4.2778,-4.305,-4.2994,-4.2956,-4.2919,-4.2829,-4.2393,-4.1615,-4.078,-4.0144,-3.9754,-3.9292,-3.8567,-3.8072,-3.7986,-3.7775,-3.7503,-3.7353,-3.7278,-3.722,-3.7143,-3.7046,-3.6989,-3.6989,-3.6989,-3.6989,-3.695,-3.6831,-3.6768,-3.6728,-3.6626,-3.6502,-3.6464,-3.6468,-3.6287,-3.602,-3.5805,-3.556,-3.5099,-3.4574,-3.3972,-3.3497,-3.2976,-3.2644,-3.2712,-2.8678,-2.9422,-2.9084,-2.824,-2.7305,-2.7702,-2.7617,-2.7188,-2.7153,-2.7185,-2.7168,-2.7169,-2.7231,-2.7261,-2.7381,-2.79,-2.9003,-2.9212,-2.9661,-3.0833,-3.0832,-3.1283,-3.1816,-3.2242,-3.2796,-3.3317,-3.3714,-3.4068,-3.401,-3.4192,-3.4145,-3.4096,-3.4273,-3.4389,-3.4604,-3.4854,-3.473,-3.5506,-3.6035,-3.6339,-3.686,-3.6967,-3.7235,-3.7859,-3.7755,-3.7808,-3.8123,-3.8141,-3.8158,-3.8192,-3.809,-3.7986,-3.7775,-3.7775,-3.7577,-3.7449,-3.7827,-3.837,-3.8798,-3.9077,-3.8827,-3.8961,-3.9001,-3.8982,-3.9423,-3.9635,-4.05,-4.1348,-4.1864,-4.2468,-4.2886,-4.2939,-4.2938,-4.2919,-4.2919,-4.2919,-4.2484,-4.1415,-4.0491,-4.0039,-3.9636,-3.9016,-3.8336,-3.8021,-3.7899,-3.7739,-3.7503,-3.7372,-3.7278,-3.7259,-3.7201,-3.7066,-3.6989,-3.6989,-3.6989,-3.6989,-3.693,-3.6829,-3.6768,-3.6728,-3.6606,-3.6464,-3.6423,-3.6406,-3.6346,-3.6228,-3.6071,-3.581,-3.5257,-3.4725,-3.4255,-3.4124,-3.4057,-3.3383,-3.27,-2.7262,-2.8426,-2.8555,-2.8237,-2.7709,-2.7981,-2.7691,-2.7093,-2.7008,-2.7008,-2.7008,-2.7024,-2.7056,-2.7086,-2.7189,-2.7653,-2.9042,-2.916,-2.967,-3.1039,-3.1344,-3.1511,-3.1905,-3.2337,-3.2835,-3.3202,-3.3611,-3.399,-3.4316,-3.4523,-3.4758,-3.4881,-3.4576,-3.4738,-3.4742,-3.4626,-3.4421,-3.5134,-3.5508,-3.5954,-3.6025,-3.6096,-3.6488,-3.6898,-3.7077,-3.7184,-3.7737,-3.7985,-3.8037,-3.8123,-3.8176,-3.8125,-3.7934,-3.7739,-3.7521,-3.7411,-3.7521,-3.8061,-3.8564,-3.8905,-3.8664,-3.8588,-3.8847,-3.9184,-3.9753,-4.0256,-4.083,-4.1531,-4.2048,-4.2541,-4.2977,-4.2975,-4.2919,-4.2919,-4.2919,-4.2919,-4.2611,-4.156,-4.0691,-4.0202,-3.9496,-3.8825,-3.8228,-3.8021,-3.7846,-3.7685,-3.7539,-3.741,-3.7295,-3.722,-3.7201,-3.7085,-3.6989,-3.6989,-3.6989,-3.6989,-3.6911,-3.6829,-3.6768,-3.6728,-3.6626,-3.6502,-3.6444,-3.6364,-3.6326,-3.6284,-3.6284,-3.6017,-3.5645,-3.5208,-3.474,-3.4768,-3.507,-3.4245,-3.3132,-2.6446,-2.729,-2.8261,-2.8621,-2.8577,-2.8082,-2.7572,-2.6992,-2.6975,-2.6975,-2.6992,-2.6975,-2.6975,-2.6991,-2.6991,-2.7435,-2.8066,-2.8374,-2.9053,-2.9752,-3.0395,-3.0979,-3.1482,-3.1867,-3.2408,-3.3261,-3.3789,-3.3889,-3.4511,-3.4834,-3.5392,-3.5788,-3.5276,-3.5246,-3.5206,-3.5163,-3.4805,-3.4859,-3.524,-3.5513,-3.5391,-3.5626,-3.5947,-3.6231,-3.6281,-3.6622,-3.7092,-3.7416,-3.7721,-3.7969,-3.8214,-3.8092,-3.7934,-3.7757,-3.7557,-3.7445,-3.752,-3.7757,-3.8183,-3.8485,-3.8631,-3.8747,-3.9426,-3.9339,-3.9772,-4.0857,-4.1612,-4.1984,-4.2446,-4.2796,-4.3123,-4.3031,-4.2938,-4.2919,-4.2901,-4.2847,-4.2738,-4.2013,-4.118,-4.0438,-3.9604,-3.8898,-3.8337,-3.8056,-3.7899,-3.7721,-3.7576,-3.7372,-3.7239,-3.7105,-3.7085,-3.7066,-3.6989,-3.6989,-3.6989,-3.6989,-3.6911,-3.6829,-3.6786,-3.6725,-3.6623,-3.6523,-3.6444,-3.6364,-3.6343,-3.6305,-3.6284,-3.6284,-3.6194,-3.5738,-3.5284,-3.5211,-3.5433,-3.4621,-3.3754,-2.5604,-2.7006,-2.7669,-2.7643,-2.7174,-2.7044,-2.6808,-2.6657,-2.6691,-2.6708,-2.6725,-2.6775,-2.6792,-2.6926,-2.6926,-2.7216,-2.7482,-2.7876,-2.8474,-2.9019,-2.9473,-3.0026,-3.057,-3.1132,-3.166,-3.2248,-3.285,-3.3376,-3.3813,-3.4466,-3.5134,-3.5458,-3.5421,-3.5527,-3.574,-3.5935,-3.5122,-3.472,-3.5102,-3.5057,-3.5055,-3.527,-3.549,-3.5636,-3.5906,-3.6236,-3.6434,-3.6898,-3.7267,-3.765,-3.8259,-3.8402,-3.8124,-3.842,-3.8526,-3.8082,-3.7875,-3.7756,-3.8259,-3.8237,-3.8386,-3.9122,-3.9949,-4.0432,-4.0789,-4.1442,-4.2361,-4.2548,-4.2772,-4.3141,-4.3233,-4.3142,-4.3031,-4.2994,-4.2957,-4.2902,-4.2629,-4.1778,-4.0945,-4.0093,-3.9278,-3.8771,-3.8246,-3.8175,-3.8039,-3.7846,-3.7631,-3.7428,-3.722,-3.7085,-3.7007,-3.6989,-3.6989,-3.6989,-3.6989,-3.6989,-3.6911,-3.6811,-3.6768,-3.6705,-3.6585,-3.6502,-3.6444,-3.6364,-3.6322,-3.6305,-3.6284,-3.6284,-3.6284,-3.6284,-3.5914,-3.5832,-3.5611,-3.4959,-3.4562,-2.478,-2.6067,-2.6925,-2.6996,-2.6631,-2.6564,-2.6432,-2.6253,-2.6416,-2.6554,-2.6554,-2.6401,-2.6401,-2.6383,-2.6261,-2.6301,-2.65,-2.6661,-2.7203,-2.7918,-2.8488,-2.9114,-2.9701,-3.0144,-3.0493,-3.1043,-3.1669,-3.227,-3.2869,-3.3754,-3.4479,-3.4955,-3.5088,-3.5425,-3.5593,-3.553,-3.5394,-3.509,-3.5036,-3.4884,-3.4898,-3.495,-3.5122,-3.5269,-3.5673,-3.5711,-3.5991,-3.6484,-3.6886,-3.7395,-3.8094,-3.8241,-3.8091,-3.8402,-3.8615,-3.8187,-3.8056,-3.7989,-3.8278,-3.8328,-3.8743,-3.942,-4.0284,-4.0964,-4.1649,-4.2338,-4.2652,-4.2821,-4.3136,-4.3376,-4.3323,-4.3251,-4.3178,-4.3086,-4.303,-4.2975,-4.2213,-4.1343,-4.0492,-3.9604,-3.8971,-3.8464,-3.8192,-3.8209,-3.8124,-3.7899,-3.7685,-3.7484,-3.7278,-3.7105,-3.7027,-3.6989,-3.6989,-3.6989,-3.6989,-3.697,-3.693,-3.6869,-3.6768,-3.6705,-3.6564,-3.6464,-3.6364,-3.6343,-3.6284,-3.6284,-3.6284,-3.6284,-3.6284,-3.6284,-3.6284,-3.6128,-3.5973,-3.5714,-3.5473,-2.4058,-2.4944,-2.6119,-2.6587,-2.6597,-2.6555,-2.6211,-2.5721,-2.6169,-2.6416,-2.6346,-2.5959,-2.5815,-2.5835,-2.558,-2.5335,-2.5454,-2.5604,-2.6015,-2.6735,-2.7372,-2.8052,-2.8611,-2.9044,-2.9406,-2.9893,-3.0485,-3.1158,-3.1899,-3.2855,-3.3786,-3.4268,-3.4341,-3.4648,-3.5065,-3.4931,-3.4927,-3.525,-3.5369,-3.5441,-3.4871,-3.4806,-3.4972,-3.4899,-3.5006,-3.5121,-3.5843,-3.6298,-3.6597,-3.7132,-3.7612,-3.7864,-3.8185,-3.8115,-3.8199,-3.8398,-3.8417,-3.8388,-3.843,-3.8452,-3.8867,-3.9481,-4.0215,-4.1311,-4.2197,-4.2852,-4.3092,-4.3039,-4.328,-4.3392,-4.3394,-4.3323,-4.3251,-4.3178,-4.3105,-4.2849,-4.225,-4.1144,-3.9876,-3.9097,-3.8645,-3.8209,-3.8209,-3.8192,-3.8124,-3.7934,-3.7739,-3.7503,-3.7317,-3.7126,-3.7029,-3.6989,-3.6989,-3.6989,-3.697,-3.697,-3.6987,-3.6908,-3.6788,-3.6725,-3.6643,-3.6485,-3.6305,-3.6284,-3.6284,-3.6284,-3.6284,-3.6284,-3.6284,-3.6284,-3.6284,-3.6284,-3.6197,-3.6077,-3.5916,-2.4228,-2.5401,-2.5718,-2.5864,-2.5881,-2.5864,-2.5781,-2.5602,-2.5733,-2.5901,-2.601,-2.5652,-2.5486,-2.5486,-2.5093,-2.48,-2.4666,-2.4818,-2.5076,-2.5681,-2.6343,-2.7211,-2.7649,-2.8259,-2.8497,-2.875,-2.9316,-3.0263,-3.1422,-3.2382,-3.3093,-3.3598,-3.371,-3.4012,-3.4503,-3.4341,-3.4528,-3.4948,-3.5136,-3.553,-3.551,-3.5509,-3.5677,-3.5326,-3.5185,-3.5106,-3.5526,-3.5589,-3.6011,-3.655,-3.7532,-3.8267,-3.9028,-3.8635,-3.8842,-3.9313,-3.9123,-3.8998,-3.8922,-3.8853,-3.9101,-3.9786,-4.0618,-4.1718,-4.2622,-4.3187,-4.3424,-4.3314,-4.3296,-4.3407,-4.3445,-4.3394,-4.3341,-4.3269,-4.316,-4.2723,-4.2268,-4.0853,-3.9404,-3.8753,-3.8317,-3.8209,-3.8209,-3.8158,-3.809,-3.7934,-3.7721,-3.7522,-3.7336,-3.7163,-3.7029,-3.6989,-3.6989,-3.697,-3.697,-3.693,-3.6928,-3.6908,-3.6809,-3.6766,-3.6702,-3.6485,-3.6284,-3.6284,-3.6284,-3.6284,-3.6284,-3.6284,-3.6284,-3.6284,-3.6284,-3.6284,-3.6284,-3.6197,-3.5998,-2.3772,-2.4796,-2.5057,-2.5166,-2.515,-2.515,-2.5166,-2.5166,-2.515,-2.5173,-2.5182,-2.4992,-2.4957,-2.4953,-2.4516,-2.4261,-2.4061,-2.4292,-2.482,-2.5281,-2.59,-2.6756,-2.7285,-2.7743,-2.8018,-2.8311,-2.895,-2.993,-3.1087,-3.174,-3.2313,-3.2866,-3.3087,-3.3365,-3.377,-3.3761,-3.3878,-3.4227,-3.4431,-3.4925,-3.5611,-3.5759,-3.5817,-3.5509,-3.5404,-3.5328,-3.5357,-3.5419,-3.5791,-3.6402,-3.7286,-3.8003,-3.8508,-3.8384,-3.8865,-3.9425,-3.9615,-3.9567,-3.9575,-3.9567,-3.9562,-4.0316,-4.0647,-4.1629,-4.2504,-4.3051,-4.3375,-4.33,-4.337,-4.3462,-4.3462,-4.3428,-4.3394,-4.3359,-4.3122,-4.2777,-4.1959,-4.0761,-3.9457,-3.848,-3.8209,-3.8209,-3.8209,-3.8192,-3.8124,-3.8055,-3.7828,-3.7595,-3.7392,-3.7163,-3.7048,-3.6989,-3.6989,-3.6989,-3.697,-3.6911,-3.6831,-3.6829,-3.6809,-3.6647,-3.6523,-3.6385,-3.6284,-3.6284,-3.6284,-3.6284,-3.6284,-3.6284,-3.6284,-3.6284,-3.6284,-3.6284,-3.6284,-3.6262,-3.6071,-2.3189,-2.3936,-2.4416,-2.4594,-2.4609,-2.4609,-2.463,-2.463,-2.4594,-2.4441,-2.4251,-2.4287,-2.4266,-2.4032,-2.3595,-2.3451,-2.3541,-2.409,-2.4652,-2.5352,-2.6126,-2.6608,-2.715,-2.774,-2.785,-2.8232,-2.8819,-2.9663,-3.0662,-3.124,-3.1767,-3.217,-3.2461,-3.2641,-3.2857,-3.2911,-3.2991,-3.3459,-3.3802,-3.4112,-3.4728,-3.5407,-3.5594,-3.5655,-3.5582,-3.5515,-3.5532,-3.5548,-3.5752,-3.6322,-3.6968,-3.7684,-3.8186,-3.8312,-3.8956,-3.9498,-3.9899,-4.0014,-4.0229,-4.0274,-4.0551,-4.092,-4.0935,-4.1381,-4.2287,-4.2792,-4.3105,-4.3139,-4.3227,-4.3442,-4.3442,-4.3479,-4.3464,-4.3338,-4.3083,-4.2757,-4.1739,-4.0742,-3.9619,-3.8499,-3.8372,-3.8372,-3.8209,-3.8209,-3.8158,-3.8089,-3.7933,-3.7721,-3.7503,-3.7222,-3.7009,-3.6989,-3.6989,-3.6989,-3.6989,-3.6891,-3.6791,-3.6788,-3.6748,-3.6527,-3.6364,-3.6343,-3.6301,-3.6284,-3.6284,-3.6284,-3.6284,-3.6284,-3.6284,-3.6284,-3.6284,-3.6284,-3.6284,-3.6241,-3.6131,-2.3323,-2.4443,-2.4578,-2.4609,-2.4609,-2.4609,-2.4609,-2.4609,-2.4574,-2.4354,-2.3964,-2.3687,-2.3601,-2.3543,-2.3054,-2.3078,-2.3748,-2.413,-2.462,-2.5274,-2.6041,-2.6386,-2.6767,-2.7419,-2.761,-2.8017,-2.8516,-2.9138,-2.989,-3.0681,-3.1282,-3.1496,-3.2201,-3.2419,-3.2508,-3.2508,-3.2617,-3.2964,-3.3251,-3.3598,-3.4178,-3.4816,-3.5362,-3.5335,-3.5096,-3.5216,-3.5261,-3.4979,-3.5209,-3.5758,-3.658,-3.7394,-3.7936,-3.833,-3.8884,-3.9391,-3.9792,-4.0049,-4.0207,-4.0432,-4.0686,-4.0933,-4.1007,-4.1303,-4.205,-4.2536,-4.2595,-4.2323,-4.2539,-4.3152,-4.3278,-4.3442,-4.3444,-4.3245,-4.3008,-4.2521,-4.1795,-4.0942,-4.0019,-3.9314,-3.8934,-3.8645,-3.8209,-3.8175,-3.8123,-3.8003,-3.7846,-3.7631,-3.7466,-3.7222,-3.7009,-3.6989,-3.6989,-3.6989,-3.6989,-3.6888,-3.6809,-3.6768,-3.6687,-3.6506,-3.6402,-3.636,-3.6322,-3.6284,-3.6284,-3.6284,-3.6284,-3.6284,-3.6284,-3.6284,-3.6284,-3.6284,-3.6284,-3.6262,-3.6156]},{"header":{"parameterUnit":"m.s-1","parameterCategory":1,"la1":31.0,"la2":29.5877,"lo1":-88.7671,"lo2":-86.6584,"dy":0.0162,"dx":0.0185,"nx":115,"ny":88,"refTime":"2023-10-11T06:00:00:Z","depth":0,"parameterNumber":3,"parameterNumberName":"V-component_of_WINDS"},"data":[0.0,0.0,0.0,0.0,0.0,0.0,0.0,0.0,0.0,0.0,0.0,0.0,0.0,0.0,0.0,0.0,0.0,0.0,0.0,0.0,0.0,0.0,0.0,0.0,0.0,0.0,0.0,0.0,0.0,0.0,0.0,0.0,0.0,0.0,0.0,0.0,0.0,0.0,0.0,0.0,0.0,0.0,0.0,0.0,0.0,0.0,0.0,0.0,0.0,0.0,0.0,0.0,0.0,0.0,0.0,0.0,0.0,0.0,0.0,0.0,0.0,0.0,0.0,0.0,0.0,0.0,0.0,0.0,0.0,0.0,0.0,0.0,0.0,0.0,0.0,0.0,0.0,0.0,0.0,0.0,0.0,0.0,0.0,0.0,0.0,0.0,0.0,0.0,0.0,0.0,0.0,0.0,0.0,0.0,0.0,0.0,0.0,0.0,0.0,0.0,0.0,0.0,0.0,0.0,0.0,0.0,0.0,0.0,0.0,0.0,0.0,0.0,0.0,0.0,0.0,0.0,0.0,0.0,0.0,0.0,0.0,0.0,0.0,0.0,0.0,0.0,0.0,0.0,0.0,0.0,0.0,0.0,0.0,0.0,0.0,0.0,0.0,0.0,0.0,0.0,0.0,0.0,0.0,0.0,0.0,0.0,0.0,0.0,0.0,0.0,0.0,0.0,0.0,0.0,0.0,0.0,0.0,0.0,0.0,0.0,0.0,0.0,0.0,0.0,0.0,0.0,0.0,0.0,0.0,0.0,0.0,0.0,0.0,0.0,0.0,0.0,0.0,0.0,0.0,0.0,0.0,0.0,0.0,0.0,0.0,0.0,0.0,0.0,0.0,0.0,0.0,0.0,0.0,0.0,0.0,0.0,0.0,0.0,0.0,0.0,0.0,0.0,0.0,0.0,0.0,0.0,0.0,0.0,0.0,0.0,0.0,0.0,0.0,0.0,0.0,0.0,0.0,0.0,0.0,0.0,0.0,0.0,0.0,0.0,0.0,0.0,0.0,0.0,0.0,0.0,0.0,0.0,0.0,0.0,0.0,0.0,0.0,0.0,0.0,0.0,0.0,0.0,0.0,0.0,0.0,0.0,0.0,0.0,0.0,0.0,0.0,0.0,0.0,0.0,0.0,0.0,0.0,0.0,0.0,0.0,0.0,0.0,0.0,0.0,0.0,0.0,0.0,0.0,0.0,0.0,0.0,0.0,0.0,0.0,0.0,0.0,0.0,0.0,0.0,0.0,0.0,0.0,0.0,0.0,0.0,0.0,0.0,0.0,0.0,0.0,0.0,0.0,0.0,0.0,0.0,0.0,0.0,0.0,0.0,0.0,0.0,0.0,0.0,0.0,0.0,0.0,0.0,0.0,0.0,0.0,0.0,0.0,0.0,0.0,0.0,0.0,0.0,0.0,0.0,0.0,0.0,0.0,0.0,0.0,0.0,0.0,0.0,0.0,0.0,0.0,0.0,0.0,0.0,0.0,0.0,0.0,0.0,0.0,0.0,0.0,0.0,0.0,0.0,0.0,0.0,0.0,0.0,0.0,0.0,0.0,0.0,0.0,0.0,0.0,0.0,0.0,0.0,0.0,0.0,0.0,0.0,0.0,0.0,0.0,0.0,0.0,0.0,0.0,0.0,0.0,0.0,0.0,0.0,0.0,0.0,0.0,0.0,0.0,0.0,0.0,0.0,0.0,0.0,0.0,0.0,0.0,0.0,0.0,0.0,0.0,0.0,0.0,0.0,0.0,0.0,0.0,0.0,0.0,0.0,0.0,0.0,0.0,0.0,0.0,0.0,0.0,0.0,0.0,0.0,0.0,0.0,0.0,0.0,0.0,0.0,0.0,0.0,0.0,0.0,0.0,0.0,0.0,0.0,0.0,0.0,0.0,0.0,0.0,0.0,0.0,0.0,0.0,0.0,0.0,0.0,0.0,0.0,0.0,0.0,0.0,0.0,0.0,0.0,0.0,0.0,0.0,0.0,0.0,0.0,0.0,0.0,0.0,0.0,0.0,0.0,0.0,0.0,0.0,0.0,0.0,0.0,0.0,0.0,0.0,0.0,0.0,0.0,0.0,0.0,0.0,0.0,0.0,0.0,0.0,0.0,0.0,0.0,0.0,0.0,0.0,0.0,0.0,0.0,0.0,0.0,0.0,0.0,0.0,0.0,0.0,0.0,0.0,0.0,0.0,0.0,0.0,0.0,0.0,0.0,0.0,0.0,0.0,0.0,0.0,0.0,0.0,0.0,0.0,0.0,0.0,0.0,0.0,0.0,0.0,0.0,0.0,0.0,0.0,0.0,0.0,0.0,0.0,0.0,0.0,0.0,0.0,0.0,0.0,0.0,0.0,0.0,0.0,0.0,0.0,0.0,0.0,0.0,0.0,0.0,0.0,0.0,0.0,0.0,0.0,0.0,0.0,0.0,0.0,0.0,0.0,0.0,0.0,0.0,0.0,0.0,0.0,0.0,0.0,0.0,0.0,0.0,0.0,0.0,0.0,0.0,0.0,0.0,0.0,0.0,0.0,0.0,0.0,0.0,0.0,0.0,0.0,0.0,0.0,0.0,0.0,0.0,0.0,0.0,0.0,0.0,0.0,0.0,0.0,0.0,0.0,0.0,0.0,0.0,0.0,0.0,0.0,0.0,0.0,0.0,0.0,0.0,0.0,0.0,0.0,0.0,0.0,0.0,0.0,0.0,0.0,0.0,0.0,0.0,0.0,0.0,0.0,0.0,0.0,0.0,0.0,0.0,0.0,0.0,0.0,0.0,0.0,0.0,0.0,0.0,0.0,0.0,0.0,0.0,0.0,0.0,0.0,0.0,0.0,0.0,0.0,0.0,0.0,0.0,0.0,0.0,0.0,0.0,0.0,0.0,0.0,0.0,0.0,0.0,0.0,0.0,0.0,0.0,0.0,0.0,0.0,0.0,0.0,0.0,0.0,0.0,0.0,0.0,0.0,0.0,0.0,0.0,0.0,0.0,0.0,0.0,0.0,0.0,0.0,0.0,0.0,0.0,0.0,0.0,0.0,0.0,0.0,0.0,0.0,0.0,0.0,0.0,0.0,0.0,0.0,0.0,0.0,0.0,0.0,0.0,0.0,0.0,0.0,0.0,0.0,0.0,0.0,0.0,0.0,0.0,0.0,0.0,0.0,0.0,0.0,0.0,0.0,0.0,0.0,0.0,0.0,0.0,0.0,0.0,0.0,0.0,0.0,0.0,0.0,0.0,0.0,0.0,0.0,0.0,0.0,0.0,0.0,0.0,0.0,0.0,0.0,0.0,0.0,0.0,0.0,0.0,0.0,0.0,0.0,0.0,0.0,0.0,0.0,0.0,0.0,0.0,0.0,0.0,0.0,0.0,0.0,0.0,0.0,0.0,0.0,0.0,0.0,0.0,0.0,0.0,0.0,0.0,0.0,0.0,0.0,0.0,0.0,0.0,0.0,0.0,0.0,0.0,0.0,0.0,0.0,0.0,0.0,0.0,0.0,0.0,0.0,0.0,0.0,0.0,0.0,0.0,0.0,0.0,0.0,0.0,0.0,0.0,0.0,0.0,0.0,0.0,0.0,0.0,0.0,0.0,0.0,0.0,0.0,0.0,0.0,0.0,0.0,0.0,0.0,0.0,0.0,0.0,0.0,0.0,0.0,0.0,0.0,0.0,0.0,0.0,0.0,0.0,0.0,0.0,0.0,0.0,0.0,0.0,0.0,0.0,0.0,0.0,0.0,0.0,0.0,0.0,0.0,0.0,0.0,0.0,0.0,0.0,0.0,0.0,0.0,0.0,0.0,0.0,0.0,0.0,0.0,0.0,0.0,0.0,0.0,0.0,0.0,0.0,0.0,0.0,0.0,0.0,0.0,0.0,0.0,0.0,0.0,0.0,0.0,0.0,0.0,0.0,0.0,0.0,0.0,0.0,0.0,0.0,0.0,0.0,0.0,0.0,0.0,0.0,0.0,0.0,0.0,0.0,0.0,0.0,0.0,0.0,0.0,0.0,0.0,0.0,0.0,0.0,0.0,0.0,0.0,0.0,0.0,0.0,0.0,0.0,0.0,0.0,0.0,0.0,0.0,0.0,0.0,0.0,0.0,0.0,0.0,0.0,0.0,0.0,0.0,0.0,0.0,0.0,0.0,0.0,0.0,0.0,0.0,0.0,0.0,0.0,0.0,0.0,0.0,0.0,0.0,0.0,0.0,0.0,0.0,0.0,0.0,0.0,0.0,0.0,0.0,0.0,0.0,0.0,0.0,0.0,0.0,0.0,0.0,0.0,0.0,-0.3763,0.0,0.0,0.0,0.0,0.0,0.0,0.0,0.0,0.0,0.0,0.0,0.0,0.0,0.0,0.0,0.0,0.0,0.0,0.0,0.0,0.0,0.0,0.0,0.0,0.0,0.0,0.0,0.0,0.0,0.0,0.0,0.0,0.0,0.0,0.0,0.0,0.0,0.0,0.0,0.0,0.0,0.0,0.0,0.0,0.0,0.0,0.0,0.0,0.0,0.0,0.0,0.0,0.0,0.0,0.0,0.0,0.0,0.0,0.0,0.0,0.0,0.0,0.0,0.0,0.0,0.0,0.0,0.0,0.0,0.0,0.0,0.0,0.0,0.0,0.0,0.0,0.0,0.0,0.0,0.0,0.0,0.0,0.0,0.0,0.0,0.0,0.0,0.0,0.0,0.0,0.0,0.0,0.0,0.0,0.0,0.0,0.0,0.0,0.0,0.0,0.0,0.0,0.0,0.0,0.0,0.0,0.0,0.0,0.0,0.0,-0.3167,-0.358,-0.3603,-0.3664,-0.3776,0.0,0.0,0.0,0.0,0.0,0.0,0.0,0.0,0.0,0.0,0.0,0.0,0.0,0.0,0.0,0.0,0.0,0.0,0.0,0.0,0.0,0.0,0.0,0.0,0.0,0.0,0.0,0.0,0.0,0.0,0.0,0.0,0.0,0.0,0.0,0.0,0.0,0.0,0.0,0.0,0.0,0.0,0.0,0.0,0.0,0.0,0.0,0.0,0.0,0.0,0.0,0.0,0.0,0.0,0.0,0.0,0.0,0.0,0.0,0.0,0.0,0.0,0.0,0.0,0.0,0.0,0.0,0.0,0.0,0.0,0.0,0.0,0.0,0.0,0.0,0.0,0.0,0.0,0.0,0.0,0.0,0.0,0.0,0.0,0.0,0.0,0.0,0.0,0.0,0.0,0.0,0.0,0.0,0.0,0.0,0.0,0.0,0.0,0.0,0.0,0.0,0.0,0.0,0.0,0.0,0.0,0.0,0.0,0.0,0.0,0.0,0.0,-0.3671,-0.3782,-0.3872,0.0,0.0,0.0,0.0,0.0,0.0,0.0,0.0,0.0,0.0,0.0,0.0,0.0,0.0,0.0,0.0,0.0,0.0,0.0,0.0,0.0,0.0,0.0,0.0,0.0,0.0,0.0,0.0,0.0,0.0,0.0,0.0,0.0,0.0,0.0,0.0,0.0,0.0,0.0,0.0,0.0,0.0,0.0,0.0,0.0,0.0,0.0,0.0,0.0,0.0,0.0,0.0,0.0,0.0,0.0,0.0,0.0,0.0,0.0,0.0,0.0,0.0,0.0,0.0,0.0,0.0,0.0,0.0,0.0,0.0,0.0,0.0,0.0,0.0,0.0,0.0,0.0,0.0,0.0,0.0,0.0,0.0,0.0,0.0,0.0,0.0,0.0,0.0,0.0,0.0,0.0,0.0,0.0,0.0,0.0,0.0,0.0,0.0,0.0,0.0,0.0,0.0,0.0,0.0,0.0,0.0,0.0,0.0,0.0,0.0,-0.3365,-0.3513,-0.3927,0.0,-0.4135,0.0,0.0,0.0,0.0,0.0,0.0,0.0,0.0,0.0,0.0,0.0,0.0,0.0,0.0,0.0,0.0,0.0,0.0,0.0,0.0,0.0,0.0,0.0,0.0,0.0,0.0,0.0,0.0,0.0,0.0,0.0,0.0,0.0,0.0,0.0,0.0,0.0,0.0,0.0,0.0,0.0,0.0,0.0,0.0,0.0,0.0,0.0,0.0,0.0,0.0,0.0,0.0,0.0,0.0,0.0,0.0,0.0,0.0,0.0,0.0,0.0,0.0,0.0,0.0,0.0,0.0,0.0,0.0,0.0,0.0,0.0,0.0,0.0,0.0,0.0,0.0,0.0,0.0,0.0,0.0,0.0,0.0,0.0,0.0,0.0,0.0,0.0,0.0,0.0,0.0,0.0,0.0,0.0,0.0,0.0,0.0,0.0,0.0,0.0,0.0,0.0,0.0,0.0,0.0,0.0,0.0,0.0,0.0,0.0,0.0,-0.3833,-0.4102,-0.4258,-0.4307,0.0,0.0,0.0,0.0,0.0,0.0,0.0,0.0,0.0,0.0,0.0,0.0,0.0,0.0,0.0,0.0,0.0,0.0,0.0,0.0,0.0,0.0,0.0,0.0,0.0,0.0,0.0,0.0,0.0,0.0,0.0,0.0,0.0,0.0,0.0,0.0,0.0,0.0,0.0,0.0,0.0,0.0,0.0,0.0,0.0,0.0,0.0,0.0,0.0,0.0,0.0,0.0,0.0,0.0,0.0,0.0,0.0,0.0,0.0,0.0,0.0,0.0,0.0,0.0,0.0,0.0,0.0,0.0,0.0,0.0,0.0,0.0,0.0,0.0,0.0,0.0,0.0,0.0,0.0,0.0,0.0,0.0,0.0,0.0,0.0,0.0,0.0,0.0,0.0,0.0,0.0,0.0,0.0,0.0,0.0,0.0,0.0,0.0,0.0,0.0,0.0,0.0,0.0,0.0,0.0,0.0,0.0,0.0,0.0,0.0,-0.3964,-0.4246,-0.455,-0.4546,-0.4458,-0.428,0.0,0.0,0.0,0.0,0.0,0.0,0.0,0.0,0.0,0.0,0.0,0.0,0.0,0.0,0.0,0.0,0.0,0.0,0.0,0.0,0.0,0.0,0.0,0.0,0.0,0.0,0.0,0.0,0.0,0.0,0.0,0.0,0.0,0.0,0.0,0.0,0.0,0.0,0.0,0.0,0.0,0.0,0.0,0.0,0.0,0.0,0.0,0.0,0.0,0.0,0.0,0.0,0.0,0.0,0.0,0.0,0.0,0.0,0.0,0.0,0.0,0.0,0.0,0.0,0.0,0.0,0.0,0.0,0.0,0.0,0.0,0.0,0.0,0.0,0.0,0.0,0.0,0.0,0.0,0.0,0.0,0.0,0.0,0.0,0.0,0.0,0.0,0.0,0.0,0.0,0.0,0.0,0.0,0.0,0.0,0.0,0.0,0.0,0.0,0.0,0.0,0.0,0.0,0.0,0.0,0.0,0.0,0.0,-0.3812,-0.4059,-0.4364,-0.4755,-0.4678,-0.4559,0.0,0.0,0.0,0.0,0.0,0.0,0.0,0.0,0.0,0.0,0.0,0.0,0.0,0.0,0.0,0.0,0.0,0.0,0.0,0.0,0.0,0.0,0.0,0.0,0.0,0.0,0.0,0.0,0.0,0.0,0.0,0.0,0.0,0.0,0.0,0.0,0.0,0.0,0.0,0.0,0.0,0.0,0.0,0.0,0.0,0.0,0.0,0.0,0.0,0.0,0.0,0.0,0.0,0.0,0.0,0.0,0.0,0.0,0.0,0.0,0.0,0.0,0.0,0.0,0.0,0.0,0.0,0.0,0.0,0.0,0.0,0.0,0.0,0.0,0.0,0.0,0.0,0.0,0.0,0.0,0.0,0.0,0.0,0.0,0.0,0.0,0.0,0.0,0.0,0.0,0.0,0.0,0.0,0.0,0.0,0.0,0.0,0.0,0.0,0.0,0.0,0.0,0.0,0.0,0.0,0.0,0.0,0.0,0.0,-0.4054,-0.4536,-0.4816,-0.4858,-0.4802,-0.47,0.0,0.0,0.0,0.0,0.0,0.0,0.0,0.0,0.0,0.0,0.0,0.0,0.0,0.0,0.0,0.0,0.0,0.0,0.0,0.0,0.0,0.0,0.0,0.0,0.0,0.0,0.0,0.0,0.0,0.0,0.0,0.0,0.0,0.0,0.0,0.0,0.0,0.0,0.0,0.0,0.0,0.0,0.0,0.0,0.0,0.0,0.0,0.0,0.0,0.0,0.0,0.0,0.0,0.0,0.0,0.0,0.0,0.0,0.0,0.0,0.0,0.0,0.0,0.0,0.0,0.0,0.0,0.0,0.0,0.0,0.0,0.0,0.0,0.0,0.0,0.0,0.0,0.0,0.0,0.0,0.0,0.0,0.0,0.0,0.0,0.0,0.0,0.0,0.0,0.0,0.0,0.0,0.0,0.0,0.0,0.0,0.0,0.0,0.0,0.0,0.0,0.0,0.0,0.0,0.0,0.0,0.0,0.0,0.0,-0.4183,0.0,-0.4967,-0.4887,-0.4899,-0.4737,0.0,0.0,0.0,0.0,0.0,0.0,0.0,0.0,0.0,0.0,0.0,0.0,0.0,0.0,0.0,0.0,0.0,0.0,0.0,0.0,0.0,0.0,0.0,0.0,0.0,0.0,0.0,0.0,0.0,0.0,0.0,0.0,0.0,0.0,0.0,0.0,0.0,0.0,0.0,0.0,0.0,0.0,0.0,0.0,0.0,0.0,0.0,0.0,0.0,0.0,0.0,0.0,0.0,0.0,0.0,0.0,0.0,0.0,0.0,0.0,0.0,0.0,0.0,0.0,0.0,0.0,0.0,0.0,0.0,0.0,0.0,0.0,0.0,0.0,0.0,0.0,0.0,0.0,0.0,0.0,0.0,0.0,0.0,0.0,0.0,0.0,0.0,0.0,0.0,0.0,0.0,0.0,0.0,0.0,0.0,0.0,0.0,0.0,0.0,0.0,0.0,0.0,0.0,0.0,0.0,0.0,0.0,0.0,-0.3788,-0.4211,-0.4665,-0.4867,-0.4782,-0.4885,-0.4723,0.0,0.0,0.0,0.0,0.0,0.0,0.0,0.0,0.0,0.0,0.0,0.0,0.0,0.0,0.0,0.0,0.0,0.0,0.0,0.0,0.0,0.0,0.0,0.0,0.0,0.0,0.0,0.0,0.0,0.0,0.0,0.0,0.0,0.0,0.0,0.0,0.0,0.0,0.0,0.0,0.0,0.0,0.0,0.0,0.0,0.0,0.0,0.0,0.0,0.0,0.0,0.0,0.0,0.0,0.0,0.0,0.0,0.0,0.0,0.0,0.0,0.0,0.0,0.0,0.0,0.0,0.0,0.0,0.0,0.0,0.0,0.0,0.0,0.0,0.0,0.0,0.0,0.0,0.0,0.0,0.0,0.0,0.0,0.0,0.0,0.0,0.0,0.0,0.0,0.0,0.0,0.0,0.0,0.0,0.0,0.0,0.0,0.0,0.0,0.0,0.0,0.0,0.0,0.0,0.0,0.0,0.0,0.0,0.0,-0.433,-0.4664,-0.4884,-0.5014,-0.4948,-0.4687,0.0,0.0,0.0,0.0,0.0,0.0,0.0,0.0,0.0,0.0,0.0,0.0,0.0,0.0,0.0,0.0,0.0,0.0,0.0,0.0,0.0,0.0,0.0,0.0,0.0,0.0,0.0,0.0,0.0,0.0,0.0,0.0,0.0,0.0,0.0,0.0,0.0,0.0,0.0,0.0,0.0,0.0,0.0,0.0,0.0,0.0,0.0,0.0,0.0,0.0,0.0,0.0,0.0,0.0,0.0,0.0,0.0,0.0,0.0,0.0,0.0,0.0,0.0,0.0,0.0,0.0,0.0,0.0,0.0,0.0,0.0,0.0,0.0,0.0,0.0,0.0,0.0,0.0,0.0,0.0,0.0,0.0,0.0,0.0,0.0,0.0,0.0,0.0,0.0,0.0,0.0,0.0,0.0,0.0,0.0,0.0,0.0,0.0,0.0,0.0,0.0,0.0,0.0,0.0,0.0,0.0,0.0,0.0,0.0,-0.519,-0.5263,-0.5242,-0.5142,-0.5278,-0.4982,-0.4262,0.0,0.0,0.0,0.0,0.0,0.0,0.0,0.0,0.0,0.0,0.0,0.0,0.0,0.0,0.0,0.0,0.0,0.0,0.0,0.0,0.0,0.0,0.0,0.0,0.0,0.0,0.0,0.0,0.0,0.0,0.0,0.0,0.0,0.0,0.0,0.0,0.0,0.0,0.0,0.0,0.0,0.0,0.0,0.0,0.0,0.0,0.0,0.0,0.0,0.0,0.0,0.0,0.0,0.0,0.0,0.0,0.0,0.0,0.0,0.0,0.0,0.0,0.0,0.0,0.0,0.0,0.0,0.0,0.0,0.0,0.0,0.0,0.0,0.0,0.0,0.0,0.0,0.0,0.0,0.0,0.0,0.0,0.0,0.0,0.0,0.0,0.0,0.0,0.0,0.0,0.0,0.0,0.0,0.0,0.0,0.0,0.0,0.0,0.0,0.0,0.0,0.0,0.0,0.0,0.0,0.0,0.0,0.0,-0.6567,-0.6408,-0.6028,-0.5447,-0.5889,-0.5586,0.0,0.0,0.0,0.0,0.0,0.0,0.0,0.0,0.0,0.0,0.0,0.0,0.0,0.0,0.0,0.0,0.0,0.0,0.0,0.0,0.0,0.0,0.0,0.0,0.0,0.0,0.0,0.0,0.0,0.0,0.0,0.0,0.0,0.0,0.0,0.0,0.0,0.0,0.0,0.0,0.0,0.0,0.0,0.0,0.0,0.0,0.0,0.0,0.0,0.0,0.0,0.0,0.0,0.0,0.0,0.0,0.0,0.0,0.0,0.0,0.0,0.0,0.0,0.0,0.0,0.0,0.0,0.0,0.0,0.0,0.0,0.0,0.0,0.0,0.0,0.0,0.0,0.0,0.0,0.0,0.0,0.0,0.0,0.0,0.0,0.0,0.0,0.0,0.0,0.0,0.0,0.0,0.0,0.0,0.0,0.0,0.0,0.0,0.0,0.0,0.0,0.0,0.0,0.0,0.0,0.0,0.0,0.0,0.0,-0.6659,-0.7932,-0.8238,-0.7438,-0.6923,-0.6355,0.0,0.0,0.0,0.0,0.0,0.0,0.0,0.0,0.0,0.0,0.0,0.0,0.0,0.0,0.0,0.0,0.0,0.0,0.0,0.0,0.0,0.0,0.0,0.0,0.0,0.0,0.0,0.0,0.0,0.0,0.0,0.0,0.0,0.0,0.0,0.0,0.0,0.0,0.0,0.0,0.0,0.0,0.0,0.0,0.0,0.0,0.0,0.0,0.0,0.0,0.0,0.0,0.0,0.0,0.0,0.0,0.0,0.0,0.0,0.0,0.0,0.0,0.0,0.0,0.0,0.0,0.0,0.0,0.0,0.0,0.0,0.0,0.0,0.0,0.0,0.0,0.0,0.0,0.0,0.0,0.0,0.0,0.0,0.0,0.0,0.0,0.0,0.0,0.0,0.0,0.0,0.0,0.0,0.0,0.0,0.0,0.0,0.0,0.0,0.0,0.0,0.0,0.0,0.0,0.0,0.0,0.0,0.0,-0.5686,-0.6777,-0.791,-0.8359,-0.8129,-0.7616,-0.6905,0.0,0.0,0.0,0.0,0.0,0.0,0.0,0.0,0.0,0.0,0.0,0.0,0.0,0.0,0.0,0.0,0.0,0.0,0.0,0.0,0.0,0.0,0.0,0.0,0.0,0.0,0.0,0.0,0.0,0.0,0.0,0.0,0.0,0.0,0.0,0.0,0.0,0.0,0.0,0.0,0.0,0.0,0.0,0.0,0.0,0.0,0.0,0.0,0.0,0.0,0.0,0.0,0.0,0.0,0.0,0.0,0.0,0.0,0.0,0.0,0.0,0.0,0.0,0.0,0.0,0.0,0.0,0.0,0.0,0.0,0.0,0.0,0.0,0.0,0.0,0.0,0.0,0.0,0.0,0.0,0.0,0.0,0.0,0.0,0.0,0.0,0.0,0.0,0.0,0.0,0.0,0.0,0.0,0.0,0.0,0.0,0.0,0.0,0.0,0.0,0.0,0.0,0.0,0.0,0.0,0.0,0.0,0.0,-0.5459,-0.6856,-0.7137,-0.7465,-0.7992,-0.7948,-0.7278,0.0,0.0,0.0,0.0,0.0,0.0,0.0,0.0,0.0,0.0,0.0,0.0,0.0,0.0,0.0,0.0,0.0,0.0,0.0,0.0,0.0,0.0,0.0,0.0,0.0,0.0,0.0,0.0,0.0,0.0,0.0,0.0,0.0,0.0,0.0,0.0,0.0,0.0,0.0,0.0,0.0,0.0,0.0,0.0,0.0,0.0,0.0,0.0,0.0,0.0,0.0,0.0,0.0,0.0,0.0,0.0,0.0,0.0,0.0,0.0,0.0,0.0,0.0,0.0,0.0,0.0,0.0,0.0,0.0,0.0,0.0,0.0,0.0,0.0,0.0,0.0,0.0,0.0,0.0,0.0,0.0,0.0,0.0,0.0,0.0,0.0,0.0,0.0,0.0,0.0,0.0,0.0,0.0,0.0,0.0,0.0,0.0,0.0,0.0,0.0,0.0,0.0,0.0,0.0,0.0,0.0,0.0,0.0,-0.6228,-0.6896,-0.7739,-0.8154,-0.8004,-0.7741,-0.7137,0.0,0.0,0.0,0.0,0.0,0.0,0.0,0.0,0.0,0.0,0.0,0.0,0.0,0.0,0.0,0.0,0.0,0.0,0.0,0.0,0.0,0.0,0.0,0.0,0.0,0.0,0.0,0.0,0.0,0.0,0.0,0.0,0.0,0.0,0.0,0.0,0.0,0.0,0.0,0.0,0.0,0.0,0.0,0.0,0.0,0.0,0.0,0.0,-0.6948,0.0,0.0,0.0,0.0,0.0,0.0,0.0,0.0,0.0,0.0,0.0,0.0,0.0,0.0,0.0,0.0,0.0,0.0,0.0,0.0,0.0,0.0,0.0,0.0,0.0,0.0,0.0,0.0,0.0,0.0,0.0,0.0,0.0,0.0,0.0,0.0,0.0,0.0,0.0,0.0,0.0,0.0,0.0,0.0,0.0,0.0,0.0,0.0,0.0,0.0,0.0,0.0,0.0,0.0,0.0,0.0,0.0,0.0,0.0,-0.5742,-0.6133,-0.6732,-0.7109,-0.723,-0.6996,-0.6686,0.0,0.0,0.0,0.0,0.0,0.0,0.0,0.0,0.0,0.0,0.0,0.0,0.0,0.0,0.0,0.0,0.0,0.0,0.0,0.0,0.0,0.0,0.0,0.0,0.0,0.0,0.0,0.0,0.0,0.0,0.0,0.0,0.0,0.0,0.0,0.0,0.0,0.0,0.0,0.0,0.0,0.0,0.0,0.0,0.0,0.0,0.0,0.0,0.0,0.0,0.0,0.0,0.0,0.0,0.0,0.0,0.0,0.0,0.0,0.0,0.0,0.0,0.0,0.0,0.0,0.0,0.0,0.0,0.0,0.0,0.0,0.0,0.0,0.0,0.0,0.0,0.0,0.0,0.0,0.0,0.0,0.0,0.0,0.0,0.0,0.0,0.0,0.0,0.0,0.0,0.0,0.0,0.0,0.0,0.0,0.0,0.0,0.0,0.0,0.0,0.0,0.0,0.0,0.0,0.0,0.0,0.0,-0.4293,-0.4877,-0.5251,-0.5368,-0.5712,-0.6354,-0.6343,-0.6312,-0.6284,0.0,0.0,0.0,0.0,0.0,0.0,0.0,0.0,0.0,0.0,0.0,0.0,0.0,0.0,0.0,0.0,0.0,0.0,0.0,0.0,0.0,0.0,0.0,0.0,0.0,0.0,0.0,0.0,0.0,0.0,0.0,0.0,0.0,0.0,0.0,0.0,0.0,0.0,-0.955,-0.905,0.0,0.0,0.0,0.0,0.0,0.0,0.0,0.0,-0.7419,0.0,0.0,0.0,0.0,0.0,0.0,0.0,0.0,0.0,0.0,0.0,0.0,0.0,0.0,0.0,0.0,0.0,0.0,0.0,0.0,0.0,0.0,0.0,0.0,0.0,0.0,0.0,0.0,0.0,0.0,0.0,0.0,0.0,0.0,0.0,0.0,0.0,0.0,0.0,0.0,0.0,0.0,0.0,0.0,0.0,0.0,0.0,0.0,0.0,0.0,0.0,0.0,0.0,0.0,0.0,0.0,-0.3403,-0.4336,-0.4874,-0.5057,-0.529,-0.5668,-0.6207,-0.6607,-0.6773,-0.6712,0.0,0.0,0.0,0.0,0.0,0.0,0.0,0.0,0.0,0.0,0.0,0.0,0.0,0.0,0.0,0.0,0.0,0.0,0.0,0.0,0.0,0.0,0.0,0.0,0.0,0.0,0.0,0.0,0.0,0.0,0.0,0.0,0.0,0.0,0.0,0.0,0.0,0.0,0.0,-0.9751,-0.9393,0.0,0.0,0.0,0.0,0.0,0.0,0.0,0.0,-0.8085,0.0,0.0,0.0,0.0,0.0,0.0,0.0,0.0,0.0,0.0,0.0,0.0,0.0,0.0,0.0,0.0,0.0,0.0,0.0,0.0,0.0,0.0,0.0,0.0,0.0,0.0,0.0,0.0,0.0,0.0,0.0,0.0,0.0,0.0,0.0,0.0,0.0,0.0,0.0,0.0,0.0,0.0,0.0,0.0,0.0,0.0,0.0,0.0,0.0,0.0,0.0,0.0,0.0,0.0,0.0,-0.3318,-0.4166,-0.4694,-0.483,-0.5002,-0.562,-0.6734,-0.6634,-0.6865,0.0,0.0,0.0,0.0,0.0,0.0,0.0,0.0,0.0,0.0,0.0,0.0,0.0,0.0,0.0,0.0,0.0,0.0,0.0,0.0,0.0,0.0,0.0,0.0,0.0,0.0,0.0,0.0,0.0,0.0,0.0,0.0,0.0,0.0,0.0,0.0,0.0,0.0,0.0,0.0,-1.0473,-1.0386,-1.0345,0.0,0.0,0.0,0.0,0.0,0.0,-0.8874,-0.8765,0.0,0.0,0.0,0.0,0.0,0.0,0.0,0.0,0.0,0.0,0.0,0.0,0.0,0.0,0.0,0.0,0.0,0.0,0.0,0.0,0.0,0.0,0.0,0.0,0.0,0.0,0.0,0.0,0.0,0.0,0.0,0.0,0.0,0.0,0.0,0.0,0.0,0.0,0.0,0.0,0.0,0.0,0.0,0.0,0.0,0.0,0.0,0.0,0.0,0.0,0.0,0.0,0.0,0.0,0.0,-0.3249,-0.3961,-0.447,-0.4657,-0.4905,-0.5774,-0.7175,-0.6787,-0.7046,0.0,0.0,0.0,0.0,0.0,0.0,0.0,0.0,0.0,0.0,0.0,0.0,0.0,0.0,0.0,0.0,0.0,0.0,0.0,0.0,0.0,0.0,0.0,0.0,0.0,0.0,0.0,0.0,0.0,0.0,0.0,0.0,0.0,0.0,0.0,0.0,0.0,0.0,0.0,0.0,0.0,-1.1219,-1.139,-1.0773,0.0,0.0,0.0,0.0,-0.9428,-0.9749,0.0,0.0,0.0,0.0,0.0,0.0,0.0,0.0,0.0,0.0,0.0,0.0,0.0,0.0,0.0,0.0,0.0,0.0,0.0,0.0,0.0,0.0,0.0,0.0,0.0,0.0,0.0,0.0,0.0,0.0,0.0,0.0,0.0,0.0,0.0,0.0,0.0,0.0,0.0,0.0,0.0,0.0,0.0,0.0,0.0,0.0,0.0,0.0,0.0,0.0,0.0,0.0,0.0,0.0,0.0,0.0,-0.3375,-0.3958,-0.4321,-0.4536,-0.5438,-0.6292,-0.7022,-0.7313,-0.7683,0.0,0.0,0.0,0.0,0.0,0.0,0.0,0.0,0.0,0.0,0.0,0.0,0.0,0.0,0.0,0.0,0.0,0.0,0.0,0.0,0.0,0.0,0.0,0.0,0.0,0.0,0.0,0.0,0.0,0.0,0.0,0.0,0.0,0.0,0.0,0.0,0.0,0.0,0.0,0.0,0.0,-1.1432,-1.1409,-1.1465,-1.1166,0.0,0.0,-1.0898,-1.0856,-1.1095,0.0,0.0,0.0,0.0,0.0,0.0,0.0,0.0,0.0,0.0,0.0,0.0,0.0,0.0,0.0,0.0,0.0,0.0,0.0,0.0,0.0,0.0,0.0,0.0,0.0,0.0,0.0,0.0,0.0,0.0,0.0,0.0,0.0,0.0,0.0,0.0,0.0,0.0,0.0,0.0,0.0,0.0,0.0,0.0,0.0,0.0,0.0,0.0,0.0,0.0,0.0,0.0,0.0,0.0,0.0,-0.2967,-0.3451,-0.399,-0.4475,-0.4944,-0.5632,-0.6508,-0.7568,-0.7525,-0.7631,0.0,0.0,0.0,0.0,0.0,0.0,0.0,0.0,0.0,0.0,0.0,0.0,0.0,0.0,0.0,0.0,0.0,0.0,0.0,0.0,0.0,0.0,0.0,0.0,0.0,0.0,0.0,0.0,0.0,0.0,0.0,0.0,0.0,0.0,0.0,0.0,0.0,0.0,0.0,0.0,0.0,0.0,-1.2182,-1.2337,0.0,0.0,0.0,-1.1733,-1.1708,0.0,0.0,0.0,0.0,0.0,0.0,0.0,0.0,0.0,0.0,0.0,0.0,0.0,0.0,0.0,0.0,0.0,0.0,0.0,0.0,0.0,0.0,0.0,0.0,0.0,0.0,0.0,0.0,0.0,0.0,0.0,0.0,0.0,0.0,0.0,0.0,0.0,0.0,0.0,0.0,0.0,0.0,0.0,0.0,0.0,0.0,0.0,0.0,0.0,0.0,0.0,0.0,0.0,0.0,0.0,0.0,0.0,-0.3538,-0.4205,-0.484,-0.5406,-0.615,-0.7065,-0.8088,-0.7962,0.0,0.0,0.0,0.0,0.0,0.0,0.0,0.0,0.0,0.0,0.0,0.0,0.0,0.0,0.0,0.0,0.0,0.0,0.0,0.0,0.0,0.0,0.0,0.0,0.0,0.0,0.0,-0.6306,0.0,0.0,0.0,0.0,0.0,0.0,0.0,0.0,0.0,0.0,0.0,0.0,0.0,0.0,-1.2995,-1.2899,-1.3151,-1.3239,0.0,0.0,-1.2421,-1.2293,-1.2421,-1.2165,0.0,0.0,0.0,0.0,0.0,0.0,0.0,0.0,0.0,0.0,0.0,0.0,0.0,0.0,0.0,0.0,0.0,0.0,0.0,0.0,0.0,0.0,0.0,0.0,0.0,0.0,0.0,0.0,0.0,0.0,0.0,0.0,0.0,0.0,0.0,0.0,0.0,0.0,0.0,0.0,0.0,0.0,0.0,0.0,0.0,0.0,0.0,0.0,0.0,0.0,0.0,0.0,0.0,0.0,0.0,-0.3714,-0.471,-0.5379,-0.5731,-0.7399,-0.8329,-0.8282,-0.8912,-0.8819,0.0,0.0,0.0,0.0,0.0,0.0,0.0,0.0,0.0,0.0,0.0,0.0,0.0,0.0,0.0,0.0,0.0,0.0,0.0,0.0,0.0,0.0,0.0,0.0,0.0,0.0,0.0,0.0,0.0,0.0,0.0,0.0,0.0,0.0,0.0,0.0,0.0,0.0,0.0,0.0,0.0,-1.3311,-1.318,-1.3706,-1.3913,0.0,0.0,-1.3032,-1.255,-1.3068,-1.3081,-1.1815,0.0,0.0,0.0,0.0,0.0,0.0,0.0,0.0,0.0,0.0,0.0,0.0,0.0,0.0,0.0,0.0,0.0,0.0,0.0,0.0,0.0,0.0,0.0,0.0,0.0,0.0,0.0,0.0,0.0,0.0,0.0,0.0,0.0,0.0,0.0,0.0,0.0,0.0,0.0,0.0,0.0,0.0,0.0,0.0,0.0,0.0,0.0,0.0,0.0,0.0,0.0,0.0,0.0,-0.3816,-0.4849,-0.5302,-0.6026,-0.698,-0.8125,-0.877,-0.8991,-0.9248,-0.9016,0.0,0.0,0.0,0.0,0.0,0.0,0.0,0.0,0.0,0.0,0.0,0.0,0.0,0.0,0.0,0.0,0.0,0.0,0.0,0.0,0.0,0.0,0.0,0.0,0.0,0.0,0.0,0.0,-0.6619,-0.6958,-0.713,0.0,0.0,0.0,0.0,0.0,0.0,0.0,0.0,0.0,0.0,-1.3403,-1.346,-1.399,0.0,0.0,-1.3637,-1.3338,-1.2982,-1.3194,-1.3015,-1.2039,-1.1786,0.0,0.0,0.0,0.0,0.0,0.0,0.0,0.0,0.0,0.0,0.0,0.0,0.0,0.0,0.0,0.0,0.0,0.0,0.0,0.0,0.0,0.0,0.0,0.0,0.0,0.0,0.0,0.0,0.0,0.0,0.0,0.0,0.0,0.0,0.0,0.0,0.0,0.0,0.0,0.0,0.0,0.0,0.0,0.0,0.0,0.0,0.0,0.0,0.0,0.0,0.0,0.0,-0.4403,-0.5568,-0.5825,-0.6548,-0.7729,-0.8442,-0.9,-0.9313,-0.9611,-0.9415,0.0,0.0,0.0,0.0,0.0,0.0,0.0,0.0,0.0,0.0,0.0,0.0,0.0,0.0,0.0,0.0,0.0,0.0,0.0,0.0,0.0,0.0,0.0,0.0,0.0,0.0,0.0,0.0,-0.6935,-0.7225,-0.7048,0.0,0.0,0.0,0.0,0.0,0.0,0.0,0.0,0.0,0.0,-1.3657,-1.374,-1.4202,-1.4442,-1.4249,-1.3961,-1.36,-1.3267,-1.3206,-1.2967,-1.2212,0.0,0.0,0.0,0.0,0.0,0.0,0.0,0.0,0.0,0.0,0.0,0.0,0.0,0.0,0.0,0.0,0.0,0.0,0.0,0.0,0.0,0.0,0.0,0.0,0.0,0.0,0.0,0.0,0.0,0.0,-0.1933,0.0,0.0,0.0,0.0,0.0,0.0,0.0,0.0,0.0,0.0,0.0,0.0,0.0,0.0,0.0,0.0,0.0,0.0,0.0,0.0,0.0,0.0,-0.5032,-0.5603,-0.6226,-0.6909,-0.7608,-0.8451,-0.8994,-0.9223,-1.0149,-1.0153,-0.9092,0.0,0.0,0.0,0.0,0.0,0.0,0.0,0.0,0.0,0.0,0.0,0.0,0.0,0.0,0.0,0.0,0.0,0.0,0.0,0.0,0.0,0.0,0.0,0.0,0.0,0.0,-0.7135,-0.7173,-0.7129,0.0,0.0,0.0,0.0,0.0,0.0,0.0,0.0,0.0,0.0,-1.3127,-1.4075,-1.4068,-1.4329,-1.4509,-1.4452,-1.4255,-1.3874,-1.3307,-1.322,-1.3006,0.0,0.0,0.0,0.0,0.0,0.0,0.0,0.0,0.0,0.0,0.0,0.0,0.0,0.0,0.0,0.0,0.0,0.0,0.0,0.0,0.0,0.0,0.0,0.0,0.0,0.0,0.0,-0.3621,-0.3452,0.0,0.0,0.0,0.0,0.0,0.0,0.0,0.0,0.0,0.0,0.0,-0.4605,-0.4258,0.0,0.0,0.0,0.0,0.0,0.0,0.0,0.0,0.0,0.0,0.0,0.0,-0.4696,-0.5816,-0.5947,-0.6441,-0.7309,-0.7906,-0.8488,-0.9035,-0.9455,-0.94,-0.8868,0.0,0.0,0.0,0.0,0.0,0.0,0.0,0.0,0.0,0.0,0.0,0.0,0.0,0.0,0.0,0.0,0.0,0.0,0.0,0.0,0.0,0.0,0.0,0.0,0.0,-0.8044,0.0,0.0,0.0,0.0,0.0,0.0,0.0,0.0,0.0,0.0,0.0,-1.2401,-1.2752,-1.3543,-1.4088,-1.4088,-1.4335,-1.4456,0.0,0.0,0.0,0.0,0.0,0.0,0.0,0.0,0.0,0.0,0.0,0.0,0.0,0.0,-1.3438,-1.2734,-1.2228,-1.2073,-1.2735,0.0,0.0,0.0,0.0,0.0,0.0,0.0,0.0,0.0,0.0,0.0,0.0,0.0,0.0,-0.4417,0.0,-0.4056,0.0,0.0,0.0,0.0,0.0,0.0,0.0,0.0,-0.4923,-0.5276,-0.5616,-0.5076,-0.511,0.0,-0.4695,-0.4222,0.0,0.0,0.0,0.0,0.0,0.0,0.0,0.0,-0.4771,-0.5829,-0.5736,-0.6027,-0.6793,-0.719,-0.7771,-0.8559,-0.9114,-0.9265,-0.8962,-0.8543,-0.8016,0.0,0.0,0.0,0.0,0.0,0.0,0.0,0.0,0.0,0.0,0.0,0.0,0.0,0.0,0.0,0.0,0.0,0.0,0.0,0.0,0.0,0.0,0.0,-0.8752,0.0,0.0,0.0,0.0,0.0,0.0,0.0,0.0,0.0,-1.162,-1.228,-1.2923,-1.3261,-1.3776,-1.4088,-1.4088,0.0,0.0,0.0,0.0,0.0,0.0,0.0,-1.366,-1.3367,-1.3554,-1.3743,-1.3945,-1.4306,-1.4812,-1.5447,0.0,0.0,-1.4283,-1.3688,-1.3564,-1.425,-1.4585,-1.5107,-1.628,-1.6555,-1.6771,0.0,0.0,0.0,0.0,0.0,0.0,0.0,0.0,-0.5246,-0.521,0.0,-0.4968,0.0,0.0,0.0,0.0,0.0,-0.4931,0.0,0.0,-0.6026,-0.6478,-0.6745,-0.5922,-0.6217,-0.7384,-0.5553,-0.5134,-0.5844,-0.5255,0.0,0.0,0.0,0.0,0.0,0.0,-0.5213,-0.5675,-0.5521,-0.5706,-0.6208,-0.6318,-0.6849,-0.7835,-0.9168,-0.9748,-0.949,-0.8951,-0.8434,-0.7943,-0.7239,0.0,0.0,0.0,0.0,0.0,0.0,0.0,0.0,0.0,0.0,0.0,0.0,0.0,0.0,0.0,0.0,0.0,0.0,0.0,0.0,-0.8877,0.0,0.0,0.0,0.0,0.0,0.0,0.0,0.0,0.0,0.0,-1.2008,-1.2759,-1.3326,-1.3333,0.0,0.0,0.0,0.0,-1.4108,-1.4108,-1.4115,-1.4021,-1.3706,-1.3935,-1.4021,-1.37,0.0,0.0,-1.5222,-1.6327,-1.6976,-1.7009,-1.6734,-1.6591,-1.6516,-1.6291,-1.635,-1.68,-1.6838,-1.7174,-1.7746,-1.7734,-1.7714,-0.5401,0.0,0.0,0.0,0.0,-0.5074,-0.5392,-0.5714,-0.5854,-0.5877,-0.5702,-0.5705,0.0,0.0,0.0,0.0,0.0,0.0,-0.5571,-0.5858,-0.602,-0.6125,-0.6183,-0.5768,-0.5726,-0.5912,-0.5231,-0.5,-0.5164,-0.5348,-0.5191,-0.4637,0.0,0.0,0.0,0.0,-0.491,-0.554,-0.4965,-0.5287,-0.658,-0.6198,-0.6641,-0.8054,-0.9259,-0.9715,-0.935,-0.8852,-0.8541,-0.8451,-0.7674,0.0,0.0,0.0,0.0,0.0,0.0,0.0,0.0,0.0,0.0,0.0,0.0,0.0,0.0,0.0,0.0,0.0,0.0,0.0,-0.9845,-1.0247,-1.0137,0.0,0.0,0.0,0.0,0.0,0.0,0.0,0.0,0.0,-1.3584,-1.3852,-1.4067,0.0,0.0,-1.4088,-1.4088,-1.4262,-1.4396,-1.4396,-1.4576,0.0,-1.4646,-1.47,-1.4727,-1.4596,-1.4707,-1.4886,-1.5274,-1.5486,-1.5922,-1.6902,-1.7026,-1.7302,-1.8311,-1.7274,-1.6461,-1.6815,-1.7037,-1.748,-1.8434,-1.8623,-1.8701,-0.6476,-0.5928,-0.5583,-0.5469,-0.5587,-0.5747,-0.6031,-0.6275,-0.6364,-0.6354,-0.6268,-0.6208,-0.6014,-0.568,-0.5567,0.0,0.0,0.0,-0.5865,-0.6084,-0.6005,-0.609,-0.6244,-0.5747,-0.5747,-0.6121,-0.5614,-0.5333,-0.5239,-0.5858,-0.5819,-0.5194,0.0,0.0,-0.5021,-0.5051,-0.536,-0.587,-0.5418,-0.5629,-0.66,-0.6566,-0.7066,-0.8074,-0.9047,-0.9438,-0.9183,-0.8941,-0.8807,-0.8755,-0.8213,-0.7542,0.0,0.0,0.0,0.0,0.0,0.0,0.0,0.0,0.0,0.0,0.0,-0.7545,-0.7834,0.0,0.0,0.0,-0.9531,-1.0233,-1.1039,-1.1342,0.0,0.0,0.0,0.0,0.0,0.0,0.0,-1.3385,-1.3924,-1.4368,-1.4707,-1.4705,-1.4608,-1.4433,-1.4243,-1.4088,-1.4088,0.0,-1.4349,-1.4349,-1.4502,-1.466,-1.4666,-1.4716,-1.4956,-1.5421,-1.5524,-1.5816,-1.6439,-1.6467,-1.6779,-1.7688,-1.8044,-1.8434,-1.9454,-1.8569,-1.7828,-1.8161,-1.8362,-1.8725,-1.9483,-1.949,-1.945,-0.7268,-0.7031,-0.6424,-0.6258,-0.6402,-0.6415,-0.6546,-0.6722,-0.6732,-0.6729,-0.6705,-0.6569,-0.647,-0.6317,-0.6003,0.0,-0.6043,-0.603,-0.6107,-0.6274,-0.6028,-0.6167,-0.671,-0.5783,-0.6009,-0.7264,-0.6355,-0.5882,-0.5928,-0.6464,-0.6388,-0.5701,-0.6109,-0.6073,-0.5731,-0.6057,-0.635,-0.6515,-0.6453,-0.6449,-0.6498,-0.7349,-0.7874,-0.8052,-0.8662,-0.899,-0.9022,-0.9139,-0.913,-0.8939,-0.8755,-0.8103,-0.7038,0.0,0.0,0.0,0.0,0.0,0.0,0.0,0.0,0.0,0.0,0.0,0.0,0.0,0.0,0.0,-1.0941,0.0,-1.2221,-1.2254,0.0,0.0,0.0,-1.2454,-1.3154,-1.3114,-1.3521,-1.472,0.0,0.0,-1.5352,-1.5215,-1.4964,-1.4524,-1.4286,-1.4166,-1.4173,-1.4206,-1.4206,-1.424,-1.4204,-1.4218,-1.4325,-1.4449,-1.499,-1.6007,-1.6345,-1.6796,-1.7909,-1.8272,-1.8609,-1.9066,-1.9415,-1.9564,-1.9722,-1.9962,-2.0303,-2.0196,-2.0245,-2.0323,-2.0411,-2.0128,-1.9863,-0.6913,-0.6874,-0.6893,-0.6777,-0.6625,-0.6739,-0.6829,-0.6839,-0.6947,-0.6933,-0.6829,-0.6837,-0.6739,-0.6593,-0.6519,-0.6505,-0.6539,-0.6265,-0.6195,-0.6222,-0.5843,-0.567,-0.5667,-0.5398,-0.5398,-0.5583,-0.5796,-0.5898,-0.5925,-0.6409,-0.6549,-0.6395,-0.6922,-0.6917,-0.6478,-0.6697,-0.7029,-0.7481,-0.6979,-0.6881,-0.7265,-0.8079,-0.8506,-0.8382,-0.8765,-0.899,-0.899,-0.8657,-0.8731,-0.9293,-0.8655,-0.8245,-0.8232,-0.7668,0.0,0.0,0.0,0.0,0.0,0.0,0.0,0.0,0.0,-0.8434,-0.8879,0.0,-1.0094,0.0,-1.1253,-1.2236,-1.3094,-1.3165,0.0,0.0,-1.3397,-1.3651,-1.4131,-1.4185,-1.4501,-1.5333,-1.5301,-1.526,-1.5374,-1.5215,-1.5041,-1.4957,-1.4699,-1.4573,-1.4573,-1.4781,-1.4919,-1.4926,-1.4918,-1.5021,-1.4987,-1.4943,-1.5161,-1.6117,-1.6301,-1.6668,-1.762,-1.7836,-1.8065,-1.8735,-1.8945,-1.9286,-2.0017,-2.0225,-2.0342,-2.0489,-2.0527,-2.0489,-2.0381,-2.0098,-1.9912,-0.6751,-0.6748,-0.677,-0.6695,-0.6603,-0.6857,-0.6977,-0.6987,-0.7061,-0.7051,-0.6977,-0.6913,-0.6844,-0.6702,-0.6702,-0.666,-0.6488,-0.633,-0.6137,-0.603,-0.5677,-0.5489,-0.5404,-0.5617,-0.5628,-0.5544,-0.6396,-0.6615,-0.628,-0.7031,-0.7292,-0.702,-0.7649,-0.7869,-0.7698,-0.7779,-0.8049,-0.8418,-0.7947,-0.7808,-0.7959,-0.8409,-0.8608,-0.8517,-0.8673,-0.8765,-0.8797,-0.8526,-0.8566,-0.8989,-0.8657,-0.8343,-0.8122,-0.7928,-0.7523,0.0,0.0,0.0,0.0,0.0,0.0,0.0,0.0,0.0,0.0,0.0,-1.1055,-1.1137,-1.2089,-1.2941,-1.3593,-1.3863,-1.4116,-1.4384,-1.4398,-1.4687,-1.5291,-1.5013,-1.506,-1.5684,-1.5544,-1.5389,-1.5389,-1.5305,-1.5257,-1.5215,-1.5082,-1.4957,-1.4755,-1.4852,-1.4993,-1.4957,-1.5017,-1.4998,-1.4911,-1.4868,-1.5128,-1.5849,-1.5799,-1.6135,-1.7735,-1.7735,-1.7829,-1.8929,-1.934,-1.9666,-2.0302,-2.043,-2.045,-2.0566,-2.0615,-2.0566,-2.045,-2.0225,-2.0069,-0.6612,-0.66,-0.6436,-0.6428,-0.6428,-0.683,-0.7007,-0.7007,-0.701,-0.7051,-0.7092,-0.701,-0.6967,-0.6885,-0.7003,-0.6871,-0.6649,-0.6587,-0.6371,-0.607,-0.5851,-0.5719,-0.5738,-0.6119,-0.629,-0.627,-0.7421,-0.7591,-0.6838,-0.7968,-0.8246,-0.7657,-0.8214,-0.8635,-0.8884,-0.89,-0.9008,-0.9195,-0.9012,-0.8814,-0.8522,-0.8517,-0.8517,-0.8517,-0.8517,-0.8517,-0.8544,-0.8569,-0.8576,-0.8485,-0.8696,-0.8495,-0.7717,-0.7996,-0.7885,0.0,-0.7401,0.0,0.0,0.0,0.0,0.0,0.0,0.0,0.0,-1.1745,-1.2055,-1.237,-1.3086,-1.365,-1.3929,-1.4389,-1.4864,-1.5304,-1.5264,-1.5446,-1.6206,-1.5611,-1.5345,-1.5834,-1.5628,-1.5389,-1.5389,-1.5389,-1.5389,-1.5389,-1.5389,-1.5215,-1.4908,-1.4831,-1.4846,-1.4783,-1.4783,-1.4769,-1.4586,-1.4601,-1.4936,-1.5541,-1.5529,-1.5876,-1.829,-1.8152,-1.8118,-1.9441,-2.0,-2.0332,-2.0557,-2.0596,-2.0615,-2.0605,-2.0615,-2.0615,-2.0566,-2.042,-2.0303,-0.621,-0.6204,-0.6355,-0.6428,-0.6428,-0.6476,-0.652,-0.6517,-0.652,-0.6656,-0.6881,-0.7413,-0.7734,-0.7973,-0.8482,-0.8618,-0.8388,-0.8118,-0.7833,-0.7581,-0.7274,-0.7019,-0.6821,-0.6895,-0.6917,-0.6939,-0.765,-0.791,-0.7763,-0.8463,-0.8667,-0.8317,-0.8452,-0.863,-0.889,0.0,0.0,0.0,-0.9163,-0.8937,-0.8538,-0.8517,-0.8517,-0.8517,-0.8517,0.0,-0.8727,-0.8663,-0.868,-0.8862,-0.8688,0.0,0.0,0.0,0.0,0.0,0.0,0.0,0.0,0.0,0.0,0.0,-1.1224,-1.1458,-1.1533,-1.21,-1.2718,-1.3346,-1.3548,-1.3967,-1.4751,-1.4919,-1.5101,-1.534,-1.5389,-1.5493,-1.5935,-1.5615,-1.5471,-1.587,-1.5586,-1.5389,-1.5389,-1.5389,-1.5389,-1.5389,-1.5389,-1.5389,-1.5305,-1.5257,-1.5257,-1.5257,-1.5131,-1.4915,-1.4699,-1.4699,-1.5026,-1.5809,-1.6535,-1.722,-1.8367,-1.9134,-1.945,-2.0128,-2.0264,-2.0381,-2.0547,-2.0615,-2.0615,-2.0615,-2.0615,-2.0615,-2.0605,-2.045,-2.0333,-0.5908,0.0,-0.6038,-0.6299,0.0,-0.6741,-0.7003,-0.7441,-0.7173,-0.7441,-0.8017,-0.836,-0.858,-0.8711,-0.8923,-0.8918,-0.8692,-0.8421,-0.8113,-0.7815,-0.7642,-0.7471,-0.7345,-0.7715,-0.7864,-0.7809,-0.8476,-0.872,-0.8604,-0.888,-0.8969,-0.8856,-0.8743,-0.8802,-0.9057,-0.9034,-0.9068,-0.9039,-0.9141,-0.898,-0.8538,-0.8517,-0.8517,-0.8517,-0.8517,0.0,0.0,0.0,0.0,0.0,0.0,0.0,0.0,-0.8823,0.0,-0.9221,-0.9192,-0.9434,-0.9956,-1.0202,-1.0731,-1.1527,-1.2027,-1.2348,-1.2512,-1.2889,-1.3378,-1.3973,-1.4131,-1.4448,-1.5019,-1.5173,-1.5364,-1.5593,-1.5484,-1.5513,-1.5818,-1.5586,-1.5455,-1.5586,-1.5526,-1.5389,-1.5389,-1.5389,-1.5389,-1.5389,-1.5389,-1.5389,-1.5389,-1.5389,-1.5389,-1.5389,-1.5298,-1.5173,-1.4957,-1.4999,-1.5117,-1.565,-1.6378,-1.7302,-1.8207,-1.9015,-1.9784,-2.0294,-2.045,-2.0489,-2.0566,-2.0615,-2.0615,-2.0615,-2.0615,-2.0615,-2.0615,-2.0527,-2.0489,-0.5955,-0.5952,-0.613,-0.6612,-0.736,-0.7356,-0.7885,-0.8715,0.0,0.0,0.0,-0.9239,-0.9269,-0.9299,-0.9276,-0.9087,-0.8807,-0.8645,-0.8381,-0.8002,-0.7998,-0.7981,-0.7982,-0.857,-0.8798,-0.8746,-0.9327,-0.9475,-0.9276,-0.927,-0.9244,-0.919,-0.9046,-0.9046,-0.9195,-0.9249,-0.9157,-0.8976,-0.9071,-0.8942,-0.8533,-0.8517,-0.8517,-0.8517,-0.8517,-0.863,-0.8864,-0.8719,-0.8728,-0.8877,-0.9,-0.9025,-0.8957,-0.9305,-0.9547,-0.9627,-0.9829,-1.0243,-1.0852,-1.0942,-1.1308,-1.2092,-1.2567,-1.2991,-1.3413,-1.3581,-1.3858,-1.4337,-1.4573,-1.4803,-1.5124,-1.524,-1.5433,-1.5754,-1.5542,-1.5491,-1.5725,-1.5606,-1.5396,-1.5389,-1.5396,-1.5389,-1.5389,-1.5389,-1.5389,-1.5389,-1.5389,-1.5389,-1.5389,-1.5389,-1.5389,-1.5389,-1.5389,-1.5305,-1.5215,-1.5257,-1.5382,-1.5533,-1.6337,-1.7229,-1.8078,-1.8975,-1.9775,-2.045,-2.0615,-2.0615,-2.0615,-2.0615,-2.0615,-2.0615,-2.0615,-2.0615,-2.0615,-2.0615,-2.0605,-0.6922,-0.6962,-0.7753,-0.8193,-0.8324,-0.8321,-0.8851,-0.9628,-0.8588,-0.8437,-0.8965,-0.9359,-0.963,-0.9846,-1.0448,-1.048,-1.0034,-0.9998,-0.9852,-0.9585,-0.958,-0.9482,-0.9343,-0.9422,-0.9479,-0.9474,-0.9557,-0.9603,-0.9529,-0.956,-0.9416,-0.9227,-0.9174,-0.9168,-0.9217,-0.9416,-0.9405,-0.9163,-0.8996,-0.8786,-0.8522,-0.8517,-0.8517,-0.8517,-0.8522,-0.8706,-0.9131,-0.9005,-0.9171,-0.9628,-0.9618,-0.9667,-0.9885,-0.9961,-1.0166,-1.048,-1.0533,-1.0779,-1.1298,-1.1465,-1.1882,-1.2607,-1.2757,-1.2824,-1.2911,-1.354,-1.4056,-1.4301,-1.4526,-1.4837,-1.5282,-1.5148,-1.5141,-1.5452,-1.5418,-1.5411,-1.5511,-1.5425,-1.5389,-1.5389,-1.5389,-1.5389,-1.5389,-1.5389,-1.5389,-1.5389,-1.5352,-1.5382,-1.5389,-1.5389,-1.5389,-1.5389,-1.5389,-1.5389,-1.5347,-1.5389,-1.5673,-1.637,-1.7147,-1.7997,-1.8847,-1.9726,-2.0323,-2.0566,-2.0615,-2.0615,-2.0615,-2.0615,-2.0615,-2.0615,-2.0615,-2.0605,-2.0576,-2.0546,-2.0566,-0.7404,-0.7885,-0.8324,-0.8807,-0.9288,-0.9816,-1.0182,-1.0444,-0.98,-0.9703,-1.0041,-1.0096,-1.0213,-1.029,-1.0543,-1.0498,-1.0288,-1.0153,-1.0024,-0.9889,-0.9884,-0.9868,-0.9771,-0.9766,-0.9766,-0.9766,-0.9766,-0.976,-0.9766,-0.9766,-0.9701,-0.9588,-0.947,-0.9163,-0.8735,-0.9141,-0.9141,-0.8684,-0.9062,-0.9165,-0.8899,-0.8888,-0.8854,-0.8854,-0.9,-0.9185,-0.9502,-0.9564,-0.974,-1.0049,-1.0052,-1.0069,-1.0188,-1.036,-1.0486,-1.0683,-1.0852,-1.1095,-1.1552,-1.1855,-1.2173,-1.2492,-1.2617,-1.2692,-1.2699,-1.3163,-1.3756,-1.4365,-1.4529,-1.4828,-1.5345,-1.525,-1.5221,-1.5367,-1.5389,-1.5389,-1.5389,-1.5389,-1.5389,-1.5389,-1.5389,-1.5389,-1.5389,-1.5389,-1.5389,-1.5374,-1.5258,-1.5192,-1.5345,-1.5243,-1.5199,-1.5345,-1.5389,-1.5389,-1.5382,-1.5389,-1.579,-1.6583,-1.7432,-1.8287,-1.9134,-2.001,-2.0527,-2.0615,-2.0615,-2.0615,-2.0605,-2.0615,-2.0615,-2.0615,-2.0615,-2.0546,-2.0331,-2.0049,-2.0077,-0.8149,-0.8807,-0.9069,-0.955,-1.0294,-1.0954,-1.1198,-1.1047,-1.0726,-1.0694,-1.0859,-1.0665,-1.0517,-1.0501,-1.0369,-1.0266,-1.0186,-1.0008,-0.9884,-0.9884,-0.9884,-0.9884,-0.9884,-0.9884,-0.9884,-0.9884,-0.9884,-0.9884,-0.9884,-0.9884,-0.9884,-0.9863,-0.9739,-0.9301,-0.8622,-0.9118,-0.9118,-0.8667,-0.9306,-0.9507,-0.9217,-0.9171,-0.9171,-0.9206,-0.9357,-0.9565,-0.9897,-1.0043,-1.0243,-1.0472,-1.0472,-1.0472,-1.0478,-1.0695,-1.0767,-1.0828,-1.1034,-1.1372,-1.1744,-1.2077,-1.2305,-1.2305,-1.2489,-1.2599,-1.2657,-1.2985,-1.354,-1.4362,-1.4536,-1.4822,-1.5245,-1.5301,-1.5309,-1.5374,-1.5389,-1.5389,-1.5389,-1.5389,-1.5389,-1.5389,-1.5389,-1.5389,-1.5389,-1.5389,-1.5389,-1.5352,-1.5163,-1.5133,-1.5301,-1.5155,-1.5148,-1.5272,-1.533,-1.5214,-1.5248,-1.527,-1.5722,-1.666,-1.7495,-1.8421,-1.9371,-2.0206,-2.0527,-2.0615,-2.0615,-2.0546,-2.0488,-2.0439,-2.038,-2.0244,-2.0176,-2.0165,-1.9824,-1.957,-1.9529,-0.968,-0.9903,-1.0608,-1.1089,-1.1132,-1.1262,-1.1284,-1.1203,-1.079,-1.0603,-1.0603,-1.0423,-1.0326,-1.0326,-1.0299,-1.0169,-0.9938,-0.9895,-0.9884,-0.9884,-0.9884,-0.9884,-0.9884,-0.9884,-0.9884,-0.9884,-0.9884,-0.9884,-0.9884,-0.9884,-0.9884,-0.9884,-0.9857,-0.983,-0.9729,-0.9804,-0.9772,-0.9739,-0.9841,-0.9669,-0.9238,-0.9171,-0.9171,-0.9171,-0.9211,-0.9526,-1.0149,-1.0191,-1.0434,-1.0978,-1.1021,-1.0996,-1.1033,-1.1063,-1.1075,-1.1075,-1.1248,-1.1558,-1.1929,-1.2157,-1.2318,-1.2305,-1.2516,-1.2751,-1.2905,-1.3351,-1.3815,-1.423,-1.4413,-1.4776,-1.5272,-1.5148,-1.5119,-1.5367,-1.5389,-1.5389,-1.5389,-1.5389,-1.5389,-1.5389,-1.5389,-1.5389,-1.5389,-1.5389,-1.5389,-1.5389,-1.5294,-1.5265,-1.536,-1.5301,-1.525,-1.5294,-1.5155,-1.4904,-1.4743,-1.4823,-1.5702,-1.7071,-1.7743,-1.8674,-1.9854,-2.045,-2.0615,-2.0615,-2.0615,-2.0498,-2.0146,-1.9961,-1.9863,-1.9658,-1.9541,-1.9414,-1.9346,-1.9248,-1.9287,-0.9985,-1.0738,-1.1132,-1.1311,-1.1311,-1.1311,-1.1225,-1.1101,-1.0737,-1.0522,-1.0412,-1.018,-1.0073,-1.0073,-1.0034,-1.0013,-0.9922,-0.9884,-0.9884,-0.9884,-0.9884,-0.9884,-0.9884,-0.9884,-0.9884,-0.9884,-0.9884,-0.9884,-0.9884,-0.9884,-0.9884,-0.9884,-0.9884,-0.9884,-0.9884,-0.9884,-0.9884,-0.9884,-0.9884,-0.9788,-0.9621,-0.9626,-0.9589,-0.9631,-0.9845,-1.0067,-1.0353,-1.0592,-1.0855,-1.1068,-1.1117,-1.1117,-1.1117,-1.1217,-1.1217,-1.1105,-1.1409,-1.1706,-1.1966,-1.2346,-1.264,-1.276,-1.3113,-1.3401,-1.3644,-1.3957,-1.4282,-1.4558,-1.4703,-1.494,-1.5301,-1.5265,-1.5243,-1.5367,-1.5389,-1.5389,-1.5389,-1.5389,-1.5389,-1.5389,-1.5389,-1.5389,-1.5389,-1.5389,-1.5389,-1.536,-1.525,-1.5192,-1.5338,-1.5228,-1.5104,-1.5061,-1.4834,-1.4735,-1.4746,-1.5295,-1.6158,-1.7209,-1.8232,-1.9283,-2.0129,-2.0605,-2.0615,-2.0595,-2.0546,-2.038,-1.9972,-1.9902,-1.9785,-1.9375,-1.9014,-1.887,-1.887,-1.8666,-1.8574,-0.9952,-1.0833,-1.1015,-1.1084,-1.1127,-1.1262,-1.1209,-1.1063,-1.0832,-1.0606,-1.0374,-1.0132,-0.9986,-0.9889,-0.9884,-0.9884,-0.9884,-0.9884,-0.9884,-0.9884,-0.9884,-0.9884,-0.9884,-0.9884,-0.9884,-0.9884,-0.9884,-0.9884,-0.9884,-0.9884,-0.9884,-0.9884,-0.9884,-0.9884,-0.9884,-0.9884,-0.9884,-0.9884,-0.9884,-0.9884,-0.9879,-0.9884,-0.9916,-0.9992,-1.0255,-1.0509,-1.0697,-1.0968,-1.1151,-1.1226,-1.1226,-1.119,-1.1117,-1.1298,-1.1372,-1.1372,-1.1558,-1.1856,-1.2188,-1.2625,-1.297,-1.3219,-1.3627,-1.3981,-1.4205,-1.4467,-1.4692,-1.4849,-1.498,-1.5148,-1.5338,-1.5389,-1.5389,-1.5389,-1.5389,-1.5431,-1.5555,-1.5514,-1.5514,-1.5673,-1.5597,-1.5389,-1.5389,-1.5389,-1.5389,-1.5367,-1.5206,-1.5179,-1.5467,-1.5405,-1.5298,-1.5367,-1.5093,-1.4836,-1.4885,-1.5139,-1.6121,-1.7128,-1.8071,-1.9084,-2.0062,-2.0235,-2.0417,-2.0286,-2.0348,-2.0218,-1.9742,-1.9646,-1.9544,-1.9187,-1.8817,-1.8601,-1.8571,-1.8262,-1.811,-0.9885,-0.988,-1.0383,-1.0641,-1.0684,-1.1084,-1.1262,-1.116,-1.0979,-1.079,-1.0484,-1.0324,-1.0104,-0.9857,-0.9814,-0.9884,-0.9884,-0.9884,-0.9884,-0.9884,-0.9884,-0.9884,-0.9884,-0.9884,-0.9884,-0.9884,-0.9884,-0.9884,-0.9884,-0.9884,-0.9884,-0.9884,-0.9884,-0.9884,-0.9884,-0.9884,-0.9884,-0.9884,-0.9884,-0.9884,-0.9884,-0.9884,-0.9992,-1.0143,-1.0212,-1.0508,-1.1064,-1.1194,-1.1266,-1.1471,-1.1453,-1.1351,-1.116,-1.1304,-1.1558,-1.1892,-1.1787,-1.2021,-1.2665,-1.3002,-1.3247,-1.3512,-1.3944,-1.4212,-1.4338,-1.466,-1.49,-1.4915,-1.5185,-1.536,-1.5382,-1.5389,-1.5389,-1.5389,-1.5389,-1.5597,-1.5963,-1.5639,-1.5839,-1.6245,-1.588,-1.5514,-1.5431,-1.5389,-1.5431,-1.5431,-1.5401,-1.5526,-1.5933,-1.6015,-1.6108,-1.6255,-1.5944,-1.5395,-1.4744,-1.5047,-1.5487,-1.6433,-1.7663,-1.847,-1.9042,-1.957,-1.9802,-1.9956,-1.9976,-1.9813,-1.9414,-1.9154,-1.9029,-1.8794,-1.865,-1.851,-1.8389,-1.8349,-1.8245,-0.9576,-0.9933,-1.0135,-1.0207,-1.0255,-1.0386,-1.0477,-1.0453,-1.0201,-1.0026,-0.9893,-0.9622,-0.9414,-0.933,-0.9186,-0.9425,-0.9846,-0.9884,-0.9884,-0.9884,-0.9884,-0.9884,-0.9884,-0.9884,-0.9884,-0.9884,-0.9884,-0.9884,-0.9884,-0.9884,-0.9884,-0.9884,-0.9884,-0.9884,-0.9884,-0.9884,-0.9884,-0.9884,-0.9884,-0.9884,-0.9884,-0.9884,-0.9992,-1.0218,-1.0331,-1.0564,-1.0921,-1.1079,-1.1232,-1.1483,-1.1489,-1.1524,-1.153,-1.1583,-1.1781,-1.2133,-1.2192,-1.2386,-1.2811,-1.3342,-1.3793,-1.4024,-1.4476,-1.4806,-1.4972,-1.5107,-1.5214,-1.5228,-1.5294,-1.5389,-1.5389,-1.5389,-1.5389,-1.5389,-1.5431,-1.5465,-1.5631,-1.5763,-1.5963,-1.6203,-1.6004,-1.588,-1.5763,-1.559,-1.5514,-1.5763,-1.5597,-1.5756,-1.6252,-1.6294,-1.6294,-1.6511,-1.6333,-1.5935,-1.5783,-1.5724,-1.6015,-1.664,-1.753,-1.8406,-1.9089,-1.9445,-1.972,-1.9755,-1.9736,-1.9585,-1.9268,-1.8976,-1.8795,-1.8714,-1.8549,-1.8549,-1.8303,-1.8405,-1.8337,-0.9016,-0.954,-0.9694,-0.9777,-0.9777,-0.9951,-0.9994,-0.998,-0.9804,-0.9667,-0.9555,-0.9301,-0.915,-0.9056,-0.8858,-0.9072,-0.9566,-0.9542,-0.9576,-0.97,-0.969,-0.962,-0.9576,-0.9765,-0.9846,-0.9733,-0.9846,-0.9884,-0.9884,-0.9884,-0.9884,-0.9884,-0.9884,-0.9884,-0.9884,-0.9884,-0.9884,-0.9884,-0.9884,-0.9884,-0.9884,-0.9884,-0.9997,-1.0218,-1.04,-1.0634,-1.0898,-1.1131,-1.1291,-1.1471,-1.1573,-1.1778,-1.2033,-1.2024,-1.2176,-1.2543,-1.26,-1.2765,-1.3099,-1.3728,-1.4192,-1.4426,-1.4905,-1.5257,-1.5389,-1.5389,-1.5389,-1.5389,-1.5389,-1.5389,-1.5389,-1.5389,-1.5389,-1.5389,-1.5389,-1.5472,-1.5639,-1.5922,-1.6121,-1.6327,-1.65,-1.6417,-1.6136,-1.5846,-1.5722,-1.5888,-1.568,-1.5955,-1.6451,-1.6656,-1.6664,-1.6992,-1.6862,-1.6725,-1.6561,-1.6506,-1.61,-1.6546,-1.7115,-1.8071,-1.8771,-1.9161,-1.9489,-1.954,-1.95,-1.9403,-1.9191,-1.8887,-1.8755,-1.8704,-1.8751,-1.8774,-1.864,-1.8539,-1.8472,-0.8282,-0.8719,-0.9087,-0.9301,-0.9345,-0.9694,-0.9951,-0.9864,-0.9898,-0.9704,-0.9479,-0.9498,-0.9271,-0.915,-0.891,-0.8981,-0.9003,-0.8812,-0.8956,-0.9279,-0.9284,-0.9127,-0.8851,-0.9501,-0.9695,-0.9473,-0.9733,-0.9884,-0.9884,-0.9884,-0.9884,-0.9884,-0.9884,-0.9884,-0.9884,-0.9884,-0.9884,-0.9884,-0.9884,-0.9884,-0.9884,-0.9884,-0.9997,-1.018,-1.0368,-1.0697,-1.1132,-1.1325,-1.1479,-1.1513,-1.173,-1.2114,-1.2485,-1.2554,-1.2778,-1.3021,-1.2995,-1.3147,-1.3561,-1.3994,-1.4413,-1.467,-1.5117,-1.534,-1.5389,-1.5389,-1.5389,-1.5389,-1.5389,-1.5389,-1.5389,-1.5389,-1.5389,-1.5389,-1.5389,-1.5555,-1.588,-1.6087,-1.6252,-1.6656,-1.7017,-1.6984,-1.6417,-1.6128,-1.6046,-1.588,-1.5922,-1.6286,-1.6779,-1.7066,-1.7473,-1.7738,-1.7561,-1.7324,-1.7255,-1.7132,-1.6567,-1.6229,-1.6793,-1.7478,-1.8038,-1.8469,-1.9013,-1.914,-1.9295,-1.9206,-1.9216,-1.8959,-1.8983,-1.8975,-1.9008,-1.8942,-1.8808,-1.8674,-1.8674,-0.8345,-0.86,-0.8744,-0.8828,-0.8828,-0.8959,-0.9043,-0.9043,-0.9043,-0.9008,-0.8896,-0.8777,-0.8636,-0.8547,-0.8382,-0.843,-0.8541,-0.8238,-0.8385,-0.8799,-0.8894,-0.8818,-0.8818,-0.9241,-0.9544,-0.9695,-0.9846,-0.9884,-0.9884,-0.9884,-0.9884,-0.9884,-0.9884,-0.9884,-0.9884,-0.9884,-0.9884,-0.9884,-0.9884,-0.9884,-0.9884,-0.9884,-0.9916,-1.0035,-1.018,-1.0451,-1.0709,-1.1049,-1.1297,-1.1489,-1.1742,-1.2206,-1.2741,-1.296,-1.3055,-1.3194,-1.3326,-1.3405,-1.3606,-1.4069,-1.4448,-1.472,-1.4999,-1.5257,-1.5389,-1.5389,-1.5389,-1.5389,-1.5389,-1.5389,-1.5389,-1.5389,-1.5389,-1.5389,-1.5431,-1.5465,-1.5714,-1.617,-1.6697,-1.7106,-1.731,-1.727,-1.7025,-1.6779,-1.6574,-1.6615,-1.6574,-1.6738,-1.7343,-1.7432,-1.7554,-1.7885,-1.782,-1.774,-1.756,-1.7424,-1.7107,-1.673,-1.7021,-1.7415,-1.7823,-1.8269,-1.8704,-1.8971,-1.9091,-1.9119,-1.9119,-1.9098,-1.9098,-1.9098,-1.9065,-1.8975,-1.8885,-1.8818,-1.8808,-0.8268,-0.8564,-0.8476,-0.8524,-0.8616,-0.8616,-0.8828,-0.8999,-0.8744,-0.8959,-0.9444,-0.913,-0.9111,-0.9224,-0.8787,-0.8598,-0.8675,-0.8036,-0.7905,-0.8264,-0.8441,-0.8399,-0.8322,-0.867,-0.9051,-0.9425,-0.962,-0.9657,-0.9695,-0.9846,-0.9884,-0.9884,-0.9884,-0.9884,-0.9884,-0.9884,-0.9884,-0.9884,-0.9884,-0.9884,-0.9884,-0.9884,-0.9884,-0.9922,-1.018,-1.0363,-1.0519,-1.0982,-1.1309,-1.1564,-1.1945,-1.2519,-1.3086,-1.3307,-1.3412,-1.3574,-1.3694,-1.3773,-1.3828,-1.417,-1.4482,-1.4692,-1.4957,-1.5173,-1.5347,-1.5389,-1.5389,-1.5389,-1.5389,-1.5389,-1.5389,-1.5389,-1.5389,-1.5389,-1.5389,-1.5465,-1.5722,-1.6294,-1.6861,-1.727,-1.7514,-1.7554,-1.7351,-1.7229,-1.6984,-1.7106,-1.7066,-1.7025,-1.7627,-1.7676,-1.7829,-1.7951,-1.7948,-1.7869,-1.774,-1.7655,-1.7555,-1.7436,-1.7417,-1.7806,-1.8214,-1.8682,-1.9139,-1.9322,-1.9471,-1.9285,-1.9243,-1.9139,-1.9098,-1.9098,-1.9139,-1.9042,-1.8975,-1.9019,-1.9008,-0.8006,-0.86,-0.8332,-0.8512,-0.8828,-0.8784,-0.9213,-0.9772,-0.9218,-0.9733,-1.0755,-1.023,-1.036,-1.075,-0.9883,-0.9437,-0.9264,-0.8426,-0.7949,-0.803,-0.8208,-0.8208,-0.7868,-0.8102,-0.8479,-0.8818,-0.9127,-0.9246,-0.9279,-0.962,-0.9846,-0.9809,-0.9846,-0.9884,-0.9884,-0.9884,-0.9884,-0.9884,-0.9884,-0.9884,-0.9884,-0.9884,-0.9884,-0.9922,-1.0212,-1.0438,-1.0579,-1.1159,-1.1525,-1.1648,-1.2267,-1.286,-1.3322,-1.361,-1.3762,-1.4001,-1.4068,-1.4055,-1.411,-1.4223,-1.444,-1.4699,-1.4915,-1.518,-1.5347,-1.5389,-1.5389,-1.5389,-1.5389,-1.5389,-1.5389,-1.5389,-1.5389,-1.5389,-1.5472,-1.5673,-1.6046,-1.6451,-1.6861,-1.727,-1.7635,-1.7829,-1.7432,-1.7392,-1.727,-1.7106,-1.727,-1.7473,-1.7554,-1.7757,-1.7951,-1.7991,-1.7991,-1.7948,-1.786,-1.7852,-1.7792,-1.786,-1.7973,-1.8451,-1.8738,-1.9187,-1.955,-1.9715,-1.9793,-1.9585,-1.943,-1.9399,-1.9316,-1.9305,-1.9274,-1.916,-1.9129,-1.917,-1.9295,-0.8295,-0.9235,-0.8504,-0.9113,-1.0332,-0.9859,-1.0077,-1.0852,-1.0674,-1.0794,-1.1209,-1.0842,-1.0816,-1.0947,-1.0454,-1.0068,-0.9913,-0.9589,-0.9399,-0.9311,-0.9367,-0.8808,-0.8136,-0.8063,-0.8327,-0.8703,-0.8856,-0.8861,-0.8894,-0.9241,-0.9473,-0.9473,-0.9733,-0.9884,-0.9884,-0.9884,-0.9884,-0.9884,-0.9884,-0.9884,-0.9884,-0.9884,-0.9884,-0.9922,-1.0143,-1.0374,-1.0564,-1.1343,-1.188,-1.2095,-1.2474,-1.2945,-1.336,-1.3561,-1.3822,-1.4039,-1.4088,-1.4088,-1.413,-1.4166,-1.4328,-1.465,-1.4776,-1.4999,-1.5389,-1.5389,-1.5389,-1.5389,-1.5389,-1.5389,-1.5389,-1.5389,-1.5389,-1.5431,-1.5673,-1.5922,-1.6128,-1.6443,-1.6779,-1.6902,-1.7302,-1.7514,-1.7514,-1.7635,-1.7757,-1.7676,-1.7716,-1.7789,-1.7797,-1.7838,-1.7991,-1.7991,-1.7991,-1.7991,-1.7974,-1.7974,-1.8037,-1.8172,-1.8544,-1.9257,-1.9513,-1.9776,-2.0042,-2.023,-2.0255,-2.0089,-1.9965,-1.9882,-1.9748,-1.9471,-1.9285,-1.9139,-1.9253,-1.9326,-1.9554,-0.8502,-0.9405,-0.9283,-0.998,-1.1068,-1.0684,-1.102,-1.1649,-1.1347,-1.171,-1.213,-1.1591,-1.1588,-1.1934,-1.1215,-1.0824,-1.0729,-1.0264,-0.9986,-0.9868,-0.975,-0.9355,-0.8931,-0.8851,-0.8813,-0.8699,-0.8889,-0.8737,-0.8551,-0.8822,-0.9018,-0.9127,-0.943,-0.9657,-0.962,-0.9846,-0.9884,-0.9884,-0.9884,-0.9884,-0.9884,-0.9884,-0.9884,-0.996,-1.0116,-1.0392,-1.0954,-1.1566,-1.1999,-1.2196,-1.2514,-1.2897,-1.333,-1.3476,-1.3737,-1.4039,-1.4088,-1.4088,-1.4088,-1.4088,-1.4243,-1.4524,-1.465,-1.4908,-1.5215,-1.5347,-1.5389,-1.5389,-1.5389,-1.5389,-1.5389,-1.5389,-1.5389,-1.5472,-1.5797,-1.6095,-1.6136,-1.6664,-1.6935,-1.7106,-1.7351,-1.7676,-1.7635,-1.7878,-1.7959,-1.7991,-1.791,-1.7951,-1.7991,-1.7991,-1.7991,-1.7991,-1.7991,-1.7991,-1.7991,-1.7991,-1.8112,-1.8224,-1.8829,-1.9606,-2.0243,-2.0423,-2.0598,-2.0757,-2.0705,-2.0617,-2.0435,-2.0159,-1.971,-1.943,-1.9243,-1.9243,-1.9412,-1.9653,-1.9882,-0.864,-0.9335,-1.0207,-1.0832,-1.1316,-1.1381,-1.1909,-1.2481,-1.1794,-1.2254,-1.3268,-1.251,-1.2482,-1.3433,-1.2081,-1.1589,-1.1459,-1.0697,-1.0289,-1.0129,-1.0017,-0.9879,-1.0024,-0.9649,-0.9364,-0.9064,-0.9226,-0.8998,-0.8737,-0.8775,-0.8775,-0.8927,-0.9165,-0.9284,-0.9397,-0.9657,-0.9803,-0.9884,-0.9884,-0.9884,-0.9884,-0.9884,-0.9884,-0.9927,-1.0182,-1.066,-1.127,-1.1766,-1.1958,-1.198,-1.2439,-1.2917,-1.3313,-1.3398,-1.3659,-1.3997,-1.4088,-1.4088,-1.4088,-1.4088,-1.4208,-1.4398,-1.4566,-1.4783,-1.509,-1.5264,-1.5347,-1.5389,-1.5389,-1.5389,-1.5389,-1.5389,-1.5389,-1.5472,-1.5805,-1.6095,-1.6252,-1.682,-1.731,-1.7351,-1.7635,-1.7878,-1.7959,-1.8,-1.7991,-1.7991,-1.7991,-1.7991,-1.7991,-1.7991,-1.7991,-1.7991,-1.7991,-1.7991,-1.7991,-1.7991,-1.8112,-1.8313,-1.8975,-1.9748,-2.0807,-2.1141,-2.1295,-2.1352,-2.1339,-2.112,-2.0734,-2.0348,-1.9993,-1.9834,-1.9961,-1.9815,-1.9677,-2.0017,-2.0292,-0.871,-0.9861,-1.0152,-1.1398,-1.282,-1.2404,-1.2605,-1.3309,-1.308,-1.3033,-1.3326,-1.3191,-1.3087,-1.2953,-1.2587,-1.228,-1.1829,-1.1469,-1.1345,-1.1074,-1.1035,-1.101,-1.0814,-1.0162,-0.9638,-0.9606,-0.9707,-0.9669,-0.948,-0.9221,-0.9188,-0.9188,-0.9003,-0.9008,-0.9359,-0.9456,-0.9587,-0.9846,-0.9895,-0.9927,-0.9932,-0.9927,-0.9927,-0.9981,-1.0313,-1.0756,-1.1241,-1.1734,-1.2058,-1.2224,-1.2506,-1.2918,-1.327,-1.3398,-1.3616,-1.3962,-1.4088,-1.4088,-1.4088,-1.413,-1.4166,-1.4356,-1.444,-1.465,-1.5048,-1.5131,-1.5257,-1.5347,-1.5389,-1.5389,-1.5389,-1.5389,-1.5389,-1.5514,-1.5805,-1.6053,-1.6177,-1.6533,-1.6861,-1.6984,-1.7229,-1.7514,-1.7554,-1.7838,-1.791,-1.7991,-1.7991,-1.7991,-1.7991,-1.7991,-1.7991,-1.7991,-1.7991,-1.7991,-1.7991,-1.8031,-1.8112,-1.8313,-1.8904,-1.946,-2.0557,-2.1454,-2.1435,-2.169,-2.1975,-2.1634,-2.1063,-2.1385,-2.1225,-2.0997,-2.0631,-2.0441,-2.0337,-2.0567,-2.0836,-0.9401,-1.028,-1.0762,-1.1799,-1.2877,-1.2729,-1.2828,-1.3206,-1.3234,-1.3227,-1.3166,-1.312,-1.2906,-1.2777,-1.263,-1.2338,-1.2098,-1.1946,-1.163,-1.1255,-1.1189,-1.1182,-1.1135,-1.0607,-1.0272,-1.0315,-1.0418,-1.0303,-0.9933,-0.9744,-0.9599,-0.9561,-0.9183,-0.9377,-0.9689,-0.9642,-0.9869,-1.0253,-1.0246,-1.0217,-1.0217,-1.0217,-1.0217,-1.0261,-1.0548,-1.0885,-1.126,-1.1735,-1.207,-1.2326,-1.2584,-1.2875,-1.3185,-1.3355,-1.3568,-1.3828,-1.4046,-1.4088,-1.4088,-1.4088,-1.4124,-1.4243,-1.4356,-1.4524,-1.479,-1.4957,-1.5131,-1.5264,-1.5347,-1.5389,-1.5389,-1.5389,-1.5396,-1.5431,-1.5597,-1.5763,-1.5888,-1.6327,-1.6689,-1.673,-1.6943,-1.7188,-1.7383,-1.7627,-1.7829,-1.791,-1.7991,-1.7991,-1.7991,-1.7991,-1.7991,-1.7991,-1.7991,-1.7991,-1.7991,-1.8031,-1.8112,-1.8313,-1.8714,-1.9112,-1.9706,-2.0644,-2.1443,-2.1711,-2.1983,-2.1795,-2.1418,-2.1884,-2.1981,-2.1344,-2.0943,-2.096,-2.1114,-2.1423,-2.1729,-1.0056,-1.0428,-1.1418,-1.1981,-1.2284,-1.2633,-1.2831,-1.2824,-1.2789,-1.2854,-1.2954,-1.2496,-1.2565,-1.2561,-1.2468,-1.2314,-1.2078,-1.1768,-1.1301,-1.0982,-1.0929,-1.0922,-1.0883,-1.0863,-1.084,-1.0831,-1.1077,-1.0824,-1.0516,-1.0164,-1.0164,-1.0051,-0.9599,-0.9755,-1.0192,-1.0133,-1.0164,-1.0754,-1.0757,-1.0734,-1.0757,-1.0768,-1.0773,-1.0726,-1.0805,-1.1037,-1.131,-1.1737,-1.2152,-1.2388,-1.2577,-1.279,-1.3009,-1.327,-1.3476,-1.3688,-1.3962,-1.4088,-1.4088,-1.4088,-1.4088,-1.4088,-1.4243,-1.4356,-1.4482,-1.4741,-1.4964,-1.5202,-1.5349,-1.5555,-1.5511,-1.5548,-1.5498,-1.5511,-1.5482,-1.5389,-1.5555,-1.6087,-1.6368,-1.6615,-1.6738,-1.6943,-1.7147,-1.7383,-1.7627,-1.7829,-1.791,-1.7991,-1.7991,-1.7991,-1.7991,-1.7991,-1.7991,-1.7991,-1.7991,-1.7991,-1.8072,-1.8193,-1.8554,-1.8794,-1.9121,-1.9814,-2.0712,-2.1568,-2.1762,-2.172,-2.1823,-2.2157,-2.2049,-2.1446,-2.1461,-2.1673,-2.1985,-2.2289,-2.2433,-0.9616,-0.977,-1.1031,-1.1727,-1.2009,-1.2383,-1.2537,-1.2569,-1.2542,-1.2487,-1.245,-1.2505,-1.233,-1.2262,-1.2411,-1.2137,-1.1572,-1.12,-1.089,-1.0722,-1.072,-1.074,-1.0787,-1.0922,-1.1055,-1.1345,-1.1549,-1.1604,-1.1582,-1.1292,-1.0956,-1.0763,-1.0196,-1.0126,-1.0481,-1.0419,-1.0579,-1.1115,-1.1192,-1.1266,-1.1298,-1.1449,-1.1412,-1.1248,-1.1241,-1.1313,-1.1444,-1.1818,-1.212,-1.2363,-1.2577,-1.2705,-1.2833,-1.3179,-1.3434,-1.3695,-1.3913,-1.4046,-1.4088,-1.4088,-1.4088,-1.4088,-1.4124,-1.4237,-1.4363,-1.4531,-1.4762,-1.519,-1.5545,-1.5818,-1.5833,-1.5833,-1.5833,-1.5782,-1.5621,-1.5433,-1.5467,-1.5604,-1.588,-1.617,-1.6409,-1.6697,-1.682,-1.7025,-1.7221,-1.7473,-1.7716,-1.7797,-1.787,-1.791,-1.7991,-1.7991,-1.7991,-1.7991,-1.7991,-1.7991,-1.8031,-1.8031,-1.8273,-1.8482,-1.8794,-1.9183,-1.9883,-2.0818,-2.1749,-2.2178,-2.2366,-2.2535,-2.2571,-2.2319,-2.2435,-2.2488,-2.268,-2.2836,-2.257,-0.9792,-0.9983,-1.0623,-1.101,-1.1335,-1.1753,-1.1923,-1.1967,-1.2036,-1.2109,-1.212,-1.2132,-1.21,-1.1987,-1.1853,-1.155,-1.1112,-1.0843,-1.0659,-1.0628,-1.0734,-1.0821,-1.0807,-1.0942,-1.1122,-1.1355,-1.1597,-1.1904,-1.2228,-1.1929,-1.1719,-1.1558,-1.0919,-1.0807,-1.1154,-1.0959,-1.1153,-1.1493,-1.1712,-1.1774,-1.1798,-1.2118,-1.2195,-1.2141,-1.2176,-1.2284,-1.2415,-1.2656,-1.2796,-1.279,-1.2966,-1.2918,-1.2875,-1.3003,-1.3307,-1.3568,-1.3779,-1.3997,-1.4088,-1.4088,-1.4088,-1.4088,-1.4088,-1.4124,-1.4243,-1.4377,-1.4677,-1.5241,-1.5647,-1.5987,-1.6126,-1.6148,-1.6148,-1.6096,-1.587,-1.5709,-1.5643,-1.5484,-1.5592,-1.5778,-1.5888,-1.6087,-1.6368,-1.6574,-1.6779,-1.7106,-1.7432,-1.7595,-1.7668,-1.7838,-1.7919,-1.7991,-1.7991,-1.7991,-1.7991,-1.7991,-1.7991,-1.7991,-1.8031,-1.8282,-1.8523,-1.8913,-1.9411,-2.0109,-2.1078,-2.2128,-2.2734,-2.2844,-2.304,-2.3112,-2.3039,-2.2988,-2.3236,-2.3293,-2.2922,-0.9997,-1.0148,-1.0196,-1.0334,-1.0628,-1.1119,-1.1292,-1.1273,-1.1557,-1.1755,-1.1888,-1.1731,-1.1732,-1.1827,-1.1539,-1.1181,-1.0923,-1.0863,-1.0757,-1.0832,-1.0806,-1.0895,-1.0982,-1.1035,-1.1182,-1.155,-1.1697,-1.181,-1.2138,-1.2284,-1.2398,-1.2234,-1.1727,-1.1809,-1.2157,-1.1831,-1.1931,-1.2097,-1.2379,-1.2368,-1.25,-1.2764,-1.3005,-1.299,-1.3204,-1.3224,-1.3226,-1.3421,-1.3392,-1.3264,-1.3264,-1.3222,-1.2966,-1.2966,-1.3137,-1.3392,-1.3603,-1.3828,-1.4004,-1.4088,-1.4088,-1.4088,-1.4088,-1.4088,-1.4166,-1.4355,-1.4691,-1.5319,-1.5799,-1.6082,-1.6322,-1.6469,-1.6469,-1.6455,-1.6206,-1.5965,-1.5848,-1.5666,-1.5498,-1.5538,-1.5411,-1.5555,-1.588,-1.6211,-1.6458,-1.6615,-1.6984,-1.7147,-1.7261,-1.7635,-1.7797,-1.7951,-1.7991,-1.7991,-1.7991,-1.7991,-1.7991,-1.7991,-1.8031,-1.8152,-1.8362,-1.8603,-1.9231,-1.9863,-2.0576,-2.1586,-2.236,-2.2631,-2.2092,-2.2069,-2.2922,-2.3014,-2.2408,-2.2708,-2.2897,-0.9787,-0.963,-0.9865,-0.9967,-1.0162,-1.0816,-1.0955,-1.0825,-1.1296,-1.1481,-1.1752,-1.1414,-1.1575,-1.178,-1.1543,-1.1538,-1.1514,-1.1158,-1.1079,-1.1314,-1.1065,-1.0992,-1.1015,-1.0995,-1.1431,-1.1852,-1.2101,-1.2051,-1.2249,-1.2604,-1.2723,-1.2694,-1.279,-1.2949,-1.2908,-1.2687,-1.2995,-1.3074,-1.3213,-1.3308,-1.3365,-1.3415,-1.3426,-1.3353,-1.3289,-1.3349,-1.362,-1.3815,-1.3773,-1.373,-1.3519,-1.3434,-1.327,-1.2924,-1.3052,-1.3307,-1.3603,-1.3815,-1.4039,-1.4088,-1.4088,-1.4088,-1.4088,-1.4088,-1.4166,-1.4299,-1.4577,-1.4943,-1.5572,-1.6115,-1.6442,-1.6701,-1.6799,-1.6741,-1.6558,-1.6213,-1.6001,-1.5805,-1.5637,-1.5238,-1.5138,-1.5215,-1.5416,-1.5797,-1.6177,-1.6294,-1.6458,-1.6697,-1.6984,-1.7432,-1.7757,-1.791,-1.7991,-1.7991,-1.7991,-1.7991,-1.7991,-1.7991,-1.8072,-1.8112,-1.8322,-1.8652,-1.9197,-1.9861,-2.0489,-2.0708,-2.1039,-2.1042,-2.0642,-2.1188,-2.2197,-2.1761,-2.0824,-2.1561,-2.2978,-1.0298,-1.0419,-1.0475,-1.0583,-1.0878,-1.1469,-1.1433,-1.122,-1.1775,-1.2109,-1.2131,-1.2039,-1.1984,-1.193,-1.1703,-1.1786,-1.188,-1.1592,-1.1646,-1.1975,-1.1757,-1.1685,-1.1812,-1.1806,-1.2017,-1.2303,-1.2702,-1.3031,-1.296,-1.2923,-1.3006,-1.3058,-1.3172,-1.314,-1.3267,-1.322,-1.3206,-1.3279,-1.3502,-1.3754,-1.3928,-1.4098,-1.4236,-1.4243,-1.4254,-1.4331,-1.4455,-1.458,-1.4657,-1.4657,-1.4566,-1.4223,-1.3844,-1.3548,-1.3464,-1.3179,-1.3392,-1.3695,-1.4046,-1.4088,-1.4088,-1.4088,-1.4088,-1.4088,-1.4124,-1.4299,-1.4528,-1.4886,-1.5453,-1.5984,-1.6433,-1.681,-1.6967,-1.6987,-1.6813,-1.6521,-1.6221,-1.5929,-1.5711,-1.5254,-1.4866,-1.4999,-1.5082,-1.5374,-1.5714,-1.588,-1.6203,-1.6566,-1.6976,-1.7473,-1.7757,-1.7951,-1.7991,-1.7991,-1.7991,-1.7991,-1.7991,-1.8031,-1.8241,-1.8282,-1.8362,-1.8732,-1.9197,-1.9545,-1.9971,-2.0043,-1.9933,-2.0396,-2.0941,-2.123,-2.1562,-2.1335,-2.1279,-2.2482,-2.3587,-1.0962,-1.1532,-1.1059,-1.1127,-1.1524,-1.2002,-1.1914,-1.1557,-1.2183,-1.2527,-1.2584,-1.2602,-1.2376,-1.2087,-1.205,-1.2161,-1.2359,-1.2174,-1.2389,-1.257,-1.2572,-1.2516,-1.2643,-1.2691,-1.2788,-1.2944,-1.3677,-1.3956,-1.3938,-1.3888,-1.3821,-1.3516,-1.3698,-1.3587,-1.3474,-1.348,-1.3507,-1.3548,-1.3803,-1.4008,-1.4158,-1.4554,-1.4735,-1.4918,-1.5126,-1.5301,-1.5382,-1.5347,-1.534,-1.5333,-1.5276,-1.4929,-1.451,-1.4048,-1.3844,-1.3555,-1.3519,-1.3525,-1.387,-1.4046,-1.4088,-1.4088,-1.4088,-1.4088,-1.413,-1.425,-1.4518,-1.4878,-1.529,-1.5892,-1.6412,-1.6811,-1.7026,-1.713,-1.7099,-1.6813,-1.6528,-1.6235,-1.5871,-1.5475,-1.5092,-1.4748,-1.4873,-1.4992,-1.5208,-1.5465,-1.5873,-1.6402,-1.6935,-1.7432,-1.7716,-1.7959,-1.7991,-1.7991,-1.7991,-1.7991,-1.7991,-1.808,-1.8282,-1.8451,-1.8531,-1.8652,-1.898,-1.928,-1.9608,-1.9954,-2.0187,-2.0815,-2.1335,-2.1203,-2.1199,-2.1901,-2.2413,-2.3413,-2.4011,-1.1655,-1.2743,-1.1382,-1.114,-1.1585,-1.1822,-1.1914,-1.1887,-1.2233,-1.2534,-1.2712,-1.2755,-1.2709,-1.2382,-1.2526,-1.2806,-1.3194,-1.2544,-1.2946,-1.313,-1.2917,-1.3139,-1.3407,-1.366,-1.3834,-1.43,-1.4738,-1.494,-1.5035,-1.5144,-1.4797,-1.4358,-1.4471,-1.4342,-1.4186,-1.4084,-1.3972,-1.3992,-1.4165,-1.4268,-1.4347,-1.455,-1.4767,-1.4896,-1.4966,-1.5075,-1.5367,-1.5389,-1.5472,-1.5465,-1.5533,-1.5519,-1.5137,-1.4629,-1.4342,-1.4181,-1.3639,-1.3688,-1.3906,-1.3997,-1.4082,-1.4088,-1.4088,-1.4088,-1.413,-1.4088,-1.4385,-1.4926,-1.5315,-1.5774,-1.638,-1.6817,-1.7066,-1.721,-1.7208,-1.7026,-1.6778,-1.6492,-1.6126,-1.5727,-1.5248,-1.4804,-1.4657,-1.4783,-1.5082,-1.534,-1.5714,-1.6245,-1.6812,-1.731,-1.7635,-1.7878,-1.7951,-1.7991,-1.7991,-1.7991,-1.7991,-1.8072,-1.8241,-1.8451,-1.862,-1.878,-1.894,-1.925,-1.9627,-2.005,-2.0459,-2.0943,-2.1115,-2.075,-2.0892,-2.1668,-2.2118,-2.2675,-2.3458,-1.1794,-1.3007,-1.211,-1.2133,-1.2798,-1.307,-1.2933,-1.2691,-1.3244,-1.3568,-1.3566,-1.3559,-1.3434,-1.3273,-1.3372,-1.3647,-1.4052,-1.4017,-1.4262,-1.451,-1.4478,-1.4388,-1.4572,-1.4622,-1.4712,-1.5116,-1.5529,-1.5817,-1.5861,-1.6173,-1.5978,-1.5619,-1.542,-1.5154,-1.4961,-1.4657,-1.4448,-1.4258,-1.4314,-1.44,-1.4448,-1.4731,-1.4945,-1.4993,-1.5158,-1.525,-1.5374,-1.5389,-1.5597,-1.5756,-1.579,-1.5824,-1.5809,-1.5387,-1.5179,-1.4936,-1.4265,-1.4019,-1.4068,-1.4068,-1.3906,-1.4088,-1.4088,-1.4088,-1.413,-1.4208,-1.4475,-1.4918,-1.5328,-1.5847,-1.6434,-1.6804,-1.7073,-1.7246,-1.7267,-1.7143,-1.693,-1.6683,-1.6228,-1.5763,-1.5142,-1.4545,-1.4524,-1.4566,-1.4908,-1.5298,-1.5673,-1.6087,-1.6738,-1.727,-1.7635,-1.7838,-1.7951,-1.7991,-1.7991,-1.7991,-1.7991,-1.8112,-1.8241,-1.8451,-1.87,-1.8851,-1.9051,-1.9329,-1.9587,-2.004,-2.0487,-2.094,-2.1172,-2.1314,-2.1334,-2.148,-2.1835,-2.2024,-2.2664,-1.2299,-1.3413,-1.3244,-1.3332,-1.3723,-1.3913,-1.3761,-1.3541,-1.3929,-1.4198,-1.4207,-1.404,-1.3941,-1.392,-1.3937,-1.4232,-1.4533,-1.4751,-1.5183,-1.5331,-1.5355,-1.5493,-1.5616,-1.5756,-1.5904,-1.6069,-1.6463,-1.685,-1.6907,-1.7148,-1.7018,-1.6741,-1.643,-1.6163,-1.5413,-1.5338,-1.5002,-1.4799,-1.4664,-1.4768,-1.4845,-1.4852,-1.5026,-1.5061,-1.5269,-1.536,-1.5382,-1.5431,-1.5548,-1.5756,-1.5955,-1.6113,-1.618,-1.6131,-1.6008,-1.5553,-1.497,-1.4475,-1.4398,-1.4195,-1.3952,-1.4186,-1.4115,-1.4102,-1.4137,-1.4318,-1.4618,-1.5051,-1.5473,-1.5976,-1.6547,-1.6872,-1.7113,-1.7239,-1.7286,-1.7223,-1.7055,-1.6799,-1.6284,-1.574,-1.514,-1.4655,-1.495,-1.5033,-1.5325,-1.579,-1.6327,-1.6656,-1.7025,-1.7473,-1.7716,-1.7919,-1.7991,-1.7991,-1.7991,-1.7991,-1.8031,-1.8233,-1.8362,-1.8531,-1.8732,-1.8922,-1.9002,-1.9112,-1.945,-1.9972,-2.0285,-2.0501,-2.134,-2.2264,-2.1882,-2.1246,-2.1186,-2.14,-2.1743,-1.3247,-1.4156,-1.467,-1.4549,-1.4059,-1.4028,-1.4127,-1.4198,-1.4139,-1.413,-1.416,-1.41,-1.407,-1.404,-1.4091,-1.4428,-1.4862,-1.4997,-1.5319,-1.5752,-1.5896,-1.6203,-1.6531,-1.6744,-1.6882,-1.7807,-1.7825,-1.7715,-1.788,-1.7816,-1.7833,-1.7861,-1.7534,-1.7006,-1.5712,-1.5905,-1.6008,-1.5959,-1.5491,-1.5434,-1.546,-1.5204,-1.5204,-1.5249,-1.5499,-1.5673,-1.5431,-1.5431,-1.5472,-1.5555,-1.5839,-1.6121,-1.6443,-1.6263,-1.6296,-1.6535,-1.5081,-1.4426,-1.4363,-1.4208,-1.4188,-1.4279,-1.4168,-1.4115,-1.4155,-1.4365,-1.4791,-1.5246,-1.5669,-1.6218,-1.6635,-1.7012,-1.7153,-1.7246,-1.7286,-1.725,-1.7128,-1.6813,-1.627,-1.5914,-1.541,-1.5034,-1.5387,-1.5673,-1.588,-1.6327,-1.6943,-1.727,-1.7432,-1.7554,-1.7716,-1.7919,-1.7991,-1.7991,-1.7991,-1.7991,-1.8072,-1.8313,-1.8482,-1.8563,-1.8763,-1.9002,-1.9033,-1.8984,-1.9244,-1.9659,-1.9847,-1.9965,-2.0572,-2.1032,-2.1228,-2.0881,-2.0756,-2.0697,-2.099,-1.2994,-1.3759,-1.4461,-1.474,-1.471,-1.4963,-1.4956,-1.4762,-1.4704,-1.4645,-1.4636,-1.4675,-1.4517,-1.4419,-1.4444,-1.4757,-1.5219,-1.5451,-1.5771,-1.6438,-1.6523,-1.659,-1.6961,-1.7324,-1.753,-1.7715,-1.7926,-1.8258,-1.8036,-1.8276,-1.8155,-1.8081,-1.808,-1.7475,-1.6598,-1.6299,-1.6056,-1.5715,-1.5528,-1.5612,-1.5932,-1.593,-1.5901,-1.5779,-1.6075,-1.6,-1.5548,-1.5555,-1.5514,-1.5431,-1.568,-1.588,-1.6327,-1.6278,-1.6681,-1.6968,-1.6057,-1.5405,-1.4796,-1.4271,-1.3988,-1.4133,-1.4195,-1.4188,-1.4349,-1.4622,-1.5042,-1.5562,-1.5965,-1.6462,-1.6893,-1.7131,-1.7239,-1.7286,-1.7286,-1.7286,-1.7165,-1.6733,-1.6308,-1.6126,-1.5713,-1.5369,-1.544,-1.5846,-1.6087,-1.6409,-1.6943,-1.7229,-1.7432,-1.7473,-1.7595,-1.7878,-1.7991,-1.7991,-1.7991,-1.7991,-1.8112,-1.8362,-1.8482,-1.8563,-1.8803,-1.9033,-1.9112,-1.9103,-1.9173,-1.9313,-1.9483,-1.9595,-1.9343,-1.9497,-1.9927,-2.0302,-2.0262,-2.0058,-1.9941,-1.3297,-1.3941,-1.5023,-1.5572,-1.5677,-1.563,-1.5389,-1.5057,-1.5009,-1.5009,-1.5009,-1.498,-1.4882,-1.4745,-1.4801,-1.5053,-1.5564,-1.6122,-1.6531,-1.7205,-1.7419,-1.7602,-1.7777,-1.7925,-1.8435,-1.8499,-1.8968,-1.9329,-1.9663,-1.9137,-1.8872,-1.8644,-1.8385,-1.8035,-1.7512,-1.7264,-1.6975,-1.6758,-1.6652,-1.6433,-1.6512,-1.645,-1.6485,-1.6477,-1.6556,-1.6604,-1.6067,-1.5831,-1.5707,-1.5548,-1.5521,-1.5646,-1.6053,-1.6458,-1.6902,-1.7098,-1.6902,-1.6156,-1.5288,-1.4401,-1.4264,-1.4523,-1.4331,-1.4262,-1.4469,-1.4801,-1.5164,-1.5631,-1.6193,-1.6597,-1.6929,-1.7145,-1.7286,-1.7286,-1.7286,-1.7286,-1.7216,-1.6791,-1.6492,-1.6294,-1.5957,-1.5637,-1.5445,-1.5846,-1.6211,-1.6533,-1.6861,-1.7147,-1.7441,-1.7554,-1.7595,-1.7838,-1.7991,-1.7991,-1.7991,-1.7991,-1.8152,-1.8362,-1.8482,-1.8563,-1.8763,-1.9002,-1.9073,-1.9183,-1.9213,-1.9292,-1.9292,-1.9252,-1.9203,-1.9067,-1.9108,-1.9421,-1.964,-1.9474,-1.9177,-1.4247,-1.4779,-1.644,-1.6985,-1.6791,-1.5969,-1.5402,-1.5078,-1.5068,-1.5068,-1.5039,-1.5068,-1.5029,-1.5,-1.5,-1.5286,-1.5758,-1.6672,-1.7328,-1.7833,-1.8128,-1.8522,-1.8823,-1.9053,-1.9329,-2.0183,-2.0706,-2.0767,-2.1617,-2.0827,-2.0024,-1.9431,-1.9104,-1.879,-1.8572,-1.8402,-1.8118,-1.7714,-1.7522,-1.7321,-1.7214,-1.7041,-1.705,-1.7088,-1.7257,-1.7174,-1.6855,-1.6707,-1.6255,-1.5922,-1.5585,-1.5778,-1.6053,-1.6466,-1.6918,-1.7163,-1.7,-1.6368,-1.5865,-1.5063,-1.4684,-1.4874,-1.479,-1.4464,-1.4476,-1.4921,-1.53,-1.5645,-1.6081,-1.6535,-1.6878,-1.7059,-1.7239,-1.7286,-1.7279,-1.7257,-1.7213,-1.6974,-1.669,-1.6389,-1.6001,-1.5716,-1.5489,-1.5763,-1.6087,-1.6451,-1.6779,-1.7229,-1.7514,-1.7797,-1.7838,-1.7878,-1.7991,-1.7991,-1.7991,-1.7991,-1.8152,-1.8362,-1.8491,-1.8612,-1.8812,-1.8962,-1.9073,-1.9183,-1.9222,-1.9253,-1.9292,-1.9292,-1.9295,-1.9153,-1.9008,-1.9019,-1.9389,-1.8797,-1.847,-1.4597,-1.4931,-1.6177,-1.6528,-1.6207,-1.593,-1.5752,-1.5624,-1.5566,-1.5498,-1.5469,-1.5342,-1.5313,-1.5156,-1.5156,-1.5634,-1.6148,-1.6708,-1.7492,-1.8133,-1.8731,-1.8991,-1.9335,-1.969,-2.0024,-2.0446,-2.1028,-2.1726,-2.1697,-2.1432,-2.1163,-2.042,-2.0091,-1.9744,-1.9355,-1.9157,-1.8773,-1.8364,-1.8224,-1.8056,-1.8103,-1.8068,-1.7937,-1.7865,-1.8197,-1.8018,-1.7525,-1.755,-1.7131,-1.6468,-1.6536,-1.6549,-1.5597,-1.6259,-1.6902,-1.7556,-1.7211,-1.6662,-1.6635,-1.5887,-1.5314,-1.5312,-1.5285,-1.5167,-1.5048,-1.5084,-1.547,-1.5697,-1.5992,-1.6398,-1.665,-1.6831,-1.7059,-1.7153,-1.7192,-1.7225,-1.7169,-1.6879,-1.6595,-1.6199,-1.587,-1.5665,-1.5452,-1.5472,-1.5805,-1.6211,-1.6656,-1.7106,-1.7554,-1.7838,-1.8,-1.7991,-1.7991,-1.7991,-1.7991,-1.7991,-1.8152,-1.8353,-1.8482,-1.8652,-1.8843,-1.9002,-1.9073,-1.9183,-1.9262,-1.9253,-1.9292,-1.9292,-1.9292,-1.9292,-1.9196,-1.9102,-1.8935,-1.8539,-1.8329,-1.5148,-1.5509,-1.6581,-1.691,-1.6722,-1.668,-1.6597,-1.6405,-1.599,-1.5798,-1.5798,-1.5902,-1.5902,-1.5931,-1.6132,-1.6475,-1.6964,-1.7647,-1.8348,-1.8964,-1.9306,-1.9776,-2.0128,-2.038,-2.0665,-2.1037,-2.1715,-2.2596,-2.2485,-2.2395,-2.2178,-2.142,-2.1239,-2.0711,-2.0343,-2.0256,-1.9822,-1.9201,-1.8727,-1.8597,-1.8653,-1.8927,-1.8773,-1.8704,-1.9068,-1.8788,-1.8289,-1.8439,-1.7891,-1.6944,-1.6961,-1.6529,-1.5729,-1.6202,-1.6991,-1.7655,-1.7796,-1.7664,-1.7596,-1.6915,-1.6197,-1.5727,-1.5665,-1.5418,-1.5313,-1.5305,-1.5471,-1.5691,-1.5967,-1.6272,-1.6414,-1.6548,-1.6791,-1.7026,-1.7113,-1.72,-1.7001,-1.6704,-1.636,-1.6001,-1.5745,-1.554,-1.5431,-1.5389,-1.5597,-1.6087,-1.6533,-1.6984,-1.7432,-1.7797,-1.7959,-1.7991,-1.7991,-1.7991,-1.7991,-1.8031,-1.8112,-1.8282,-1.8482,-1.8652,-1.8882,-1.9033,-1.9183,-1.9222,-1.9292,-1.9292,-1.9292,-1.9292,-1.9292,-1.9292,-1.9292,-1.921,-1.9127,-1.899,-1.8861,-1.5848,-1.6277,-1.737,-1.7723,-1.7814,-1.7702,-1.7513,-1.7227,-1.6392,-1.599,-1.6105,-1.6578,-1.6765,-1.6698,-1.7052,-1.7413,-1.7823,-1.839,-1.8988,-1.9919,-2.0208,-2.0569,-2.093,-2.1198,-2.1463,-2.212,-2.2764,-2.3267,-2.3874,-2.3761,-2.322,-2.2467,-2.2355,-2.1914,-2.1278,-2.1458,-2.109,-2.0352,-1.9706,-1.9293,-1.8786,-1.8947,-1.9335,-1.9345,-1.9554,-1.9669,-1.9411,-1.9097,-1.8647,-1.7513,-1.6795,-1.6562,-1.6061,-1.6326,-1.7157,-1.7803,-1.8221,-1.8464,-1.833,-1.7778,-1.695,-1.6354,-1.5841,-1.5549,-1.5463,-1.5491,-1.5631,-1.5665,-1.5913,-1.6062,-1.617,-1.6359,-1.6602,-1.6791,-1.6925,-1.6987,-1.6856,-1.6519,-1.6111,-1.5796,-1.5613,-1.5389,-1.5389,-1.5431,-1.5597,-1.6004,-1.6458,-1.6894,-1.7302,-1.7708,-1.791,-1.7991,-1.7991,-1.7991,-1.8031,-1.8031,-1.804,-1.8201,-1.8442,-1.8612,-1.8772,-1.8993,-1.9253,-1.9292,-1.9292,-1.9292,-1.9292,-1.9292,-1.9292,-1.9292,-1.9292,-1.9292,-1.9246,-1.9182,-1.9399,-1.6227,-1.6932,-1.7266,-1.7364,-1.7375,-1.7364,-1.7348,-1.7228,-1.7032,-1.674,-1.657,-1.6978,-1.7191,-1.7191,-1.7693,-1.8101,-1.8545,-1.8958,-1.9328,-2.0109,-2.0721,-2.126,-2.165,-2.198,-2.2214,-2.2462,-2.3007,-2.3697,-2.4275,-2.4402,-2.4264,-2.3526,-2.3331,-2.2888,-2.214,-2.2355,-2.2103,-2.1469,-2.1008,-2.0256,-1.9532,-1.933,-1.9472,-1.9582,-1.9755,-2.0014,-1.9946,-2.0033,-1.9552,-1.8825,-1.8305,-1.7338,-1.5967,-1.6699,-1.7345,-1.7916,-1.8556,-1.8863,-1.8931,-1.8532,-1.7768,-1.6939,-1.6359,-1.5962,-1.5724,-1.5772,-1.5805,-1.5765,-1.5758,-1.5852,-1.5974,-1.617,-1.6366,-1.6555,-1.673,-1.6721,-1.6703,-1.6299,-1.587,-1.5657,-1.5433,-1.5389,-1.5389,-1.5514,-1.568,-1.6004,-1.6451,-1.6853,-1.7261,-1.7676,-1.791,-1.7991,-1.7991,-1.8031,-1.8031,-1.8112,-1.8161,-1.8201,-1.8402,-1.8531,-1.87,-1.8993,-1.9292,-1.9292,-1.9292,-1.9292,-1.9292,-1.9292,-1.9292,-1.9292,-1.9292,-1.9292,-1.9292,-1.9246,-1.9698,-1.6684,-1.7402,-1.7709,-1.7826,-1.7815,-1.7815,-1.7826,-1.7826,-1.7815,-1.7749,-1.7633,-1.7868,-1.7884,-1.7922,-1.8516,-1.8912,-1.9354,-1.9627,-2.0279,-2.0886,-2.1303,-2.186,-2.2293,-2.2566,-2.2537,-2.2671,-2.3028,-2.3648,-2.4452,-2.4631,-2.446,-2.4375,-2.4205,-2.3854,-2.3209,-2.3257,-2.3121,-2.2601,-2.2253,-2.1507,-2.0508,-2.0129,-1.9905,-1.9937,-2.0082,-2.0294,-2.0362,-2.0449,-1.9992,-1.9152,-1.8186,-1.702,-1.6049,-1.6293,-1.7101,-1.7811,-1.8473,-1.9032,-1.9195,-1.9032,-1.8448,-1.7634,-1.7411,-1.719,-1.685,-1.6796,-1.6109,-1.6028,-1.5839,-1.5872,-1.5872,-1.6021,-1.617,-1.6319,-1.6391,-1.642,-1.637,-1.6159,-1.5792,-1.5498,-1.5389,-1.5389,-1.5389,-1.5431,-1.5597,-1.5714,-1.6203,-1.6689,-1.7139,-1.7676,-1.787,-1.7991,-1.7991,-1.7991,-1.8031,-1.8152,-1.8313,-1.8362,-1.8402,-1.8723,-1.8962,-1.9143,-1.9292,-1.9292,-1.9292,-1.9292,-1.9292,-1.9292,-1.9292,-1.9292,-1.9292,-1.9292,-1.9292,-1.9332,-1.9687,-1.7159,-1.7792,-1.8357,-1.8575,-1.8587,-1.8587,-1.856,-1.856,-1.8575,-1.8712,-1.8862,-1.8847,-1.8874,-1.9202,-1.9798,-2.0118,-2.0374,-2.0484,-2.1148,-2.1652,-2.2068,-2.2376,-2.258,-2.2816,-2.2805,-2.2862,-2.313,-2.3701,-2.439,-2.4572,-2.4819,-2.5191,-2.5134,-2.4933,-2.4647,-2.4576,-2.4468,-2.3756,-2.3231,-2.2739,-2.1859,-2.0857,-2.0498,-2.043,-2.044,-2.0556,-2.0566,-2.042,-2.0022,-1.9262,-1.808,-1.6729,-1.616,-1.6213,-1.6989,-1.7792,-1.8605,-1.9139,-1.9458,-1.9589,-1.8963,-1.8487,-1.8548,-1.8316,-1.7895,-1.7289,-1.6601,-1.6236,-1.6001,-1.5812,-1.5812,-1.5825,-1.5981,-1.6096,-1.6108,-1.6199,-1.6127,-1.6049,-1.5807,-1.5506,-1.5455,-1.5455,-1.5389,-1.5389,-1.5514,-1.5631,-1.5955,-1.6451,-1.6943,-1.7505,-1.7951,-1.7991,-1.7991,-1.7991,-1.7991,-1.8193,-1.8393,-1.8442,-1.8523,-1.8913,-1.9183,-1.9222,-1.9301,-1.9292,-1.9292,-1.9292,-1.9292,-1.9292,-1.9292,-1.9292,-1.9292,-1.9292,-1.9292,-1.9371,-1.9618,-1.7535,-1.8419,-1.8563,-1.8587,-1.8587,-1.8587,-1.8587,-1.8587,-1.8602,-1.8857,-1.9319,-1.9657,-1.976,-1.9799,-2.0396,-2.078,-2.1056,-2.1302,-2.1544,-2.1922,-2.2588,-2.2786,-2.2912,-2.311,-2.3065,-2.3095,-2.3195,-2.3543,-2.4043,-2.446,-2.4772,-2.4941,-2.5215,-2.5158,-2.517,-2.517,-2.5028,-2.4504,-2.4047,-2.3526,-2.2675,-2.1756,-2.0934,-2.0555,-2.011,-2.0332,-2.041,-2.0195,-2.0226,-1.977,-1.8638,-1.6992,-1.6249,-1.627,-1.7059,-1.7744,-1.8556,-1.9156,-1.9502,-1.9665,-1.9135,-1.86,-1.858,-1.8444,-1.7903,-1.7348,-1.6832,-1.6565,-1.6276,-1.5866,-1.5805,-1.5812,-1.592,-1.5954,-1.5973,-1.6216,-1.6253,-1.6179,-1.6017,-1.5834,-1.5731,-1.5613,-1.5389,-1.5472,-1.5548,-1.579,-1.6162,-1.6607,-1.7025,-1.7505,-1.7951,-1.7991,-1.7991,-1.7991,-1.7991,-1.8241,-1.8402,-1.8482,-1.8643,-1.8953,-1.9152,-1.9231,-1.9262,-1.9292,-1.9292,-1.9292,-1.9292,-1.9292,-1.9292,-1.9292,-1.9292,-1.9292,-1.9292,-1.9332,-1.9529]}]]